[[{"header":{"parameterUnit":"m.s-1","parameterCategory":1,"la1":30.6,"la2":29.2853,"lo1":-89.7004,"lo2":-87.6739,"dy":0.0162,"dx":0.0183,"nx":112,"ny":82,"refTime":"2023-03-27T06:00:00:Z","depth":0,"parameterNumber":2,"parameterNumberName":"U-component_of_WINDS"},"data":[0.0,0.0,0.0,0.0,0.0,0.0,0.0,0.0,0.0,0.0,0.0,0.0,0.0,0.0,0.0,0.0,0.0,0.0,0.0,0.0,0.0,0.0,0.0,0.0,0.0,0.0,0.0,0.0,0.0,0.0,0.0,0.0,0.0,0.0,0.0,0.0,0.0,0.0,0.0,0.0,0.0,0.0,0.0,0.0,0.0,0.0,0.0,0.0,0.0,0.0,0.0,0.0,0.0,0.0,0.0,0.0,0.0,0.0,0.0,0.0,0.0,0.0,0.0,0.0,0.0,0.0,0.0,0.0,0.0,0.0,0.0,0.0,0.0,0.0,0.0,0.0,0.0,0.0,0.0,0.0,0.0,0.0,0.0,0.0,0.0,0.0,0.0,0.0,0.0,0.0,-5.0537,-5.2185,-5.4771,-5.6461,-5.662,-5.7622,-5.6338,-5.1949,0.0,0.0,0.0,0.0,0.0,0.0,0.0,0.0,0.0,0.0,0.0,0.0,0.0,0.0,0.0,0.0,0.0,0.0,0.0,0.0,0.0,0.0,0.0,0.0,0.0,0.0,0.0,0.0,0.0,0.0,0.0,0.0,0.0,0.0,0.0,0.0,0.0,0.0,0.0,0.0,0.0,0.0,0.0,0.0,0.0,0.0,0.0,0.0,0.0,0.0,0.0,0.0,0.0,0.0,0.0,0.0,0.0,0.0,0.0,0.0,0.0,0.0,0.0,0.0,0.0,0.0,0.0,0.0,0.0,0.0,0.0,0.0,0.0,0.0,0.0,0.0,0.0,0.0,0.0,0.0,0.0,0.0,0.0,0.0,0.0,0.0,0.0,0.0,0.0,0.0,0.0,0.0,0.0,0.0,0.0,0.0,0.0,0.0,0.0,0.0,0.0,0.0,0.0,0.0,-5.1053,-5.6188,-5.6485,-5.6781,-5.7895,-5.7387,-5.5331,-5.1433,0.0,0.0,0.0,0.0,0.0,0.0,0.0,0.0,0.0,0.0,0.0,0.0,0.0,0.0,0.0,0.0,0.0,0.0,0.0,0.0,0.0,0.0,0.0,0.0,0.0,0.0,0.0,0.0,0.0,0.0,0.0,0.0,0.0,0.0,0.0,0.0,0.0,0.0,0.0,0.0,0.0,0.0,0.0,0.0,0.0,0.0,0.0,0.0,0.0,0.0,0.0,0.0,0.0,0.0,0.0,0.0,0.0,0.0,0.0,0.0,0.0,0.0,0.0,0.0,0.0,0.0,0.0,0.0,0.0,0.0,0.0,0.0,0.0,0.0,0.0,0.0,0.0,0.0,0.0,0.0,0.0,0.0,0.0,0.0,0.0,0.0,0.0,0.0,0.0,0.0,0.0,0.0,0.0,0.0,0.0,0.0,0.0,0.0,0.0,0.0,0.0,0.0,0.0,-4.9765,-5.2293,-5.7733,-5.7429,-5.7179,-5.8021,-5.7417,-5.5389,-5.154,-5.155,0.0,0.0,0.0,0.0,0.0,0.0,0.0,0.0,0.0,0.0,0.0,0.0,0.0,0.0,0.0,0.0,0.0,0.0,0.0,0.0,0.0,0.0,0.0,0.0,0.0,0.0,0.0,0.0,0.0,0.0,0.0,0.0,0.0,0.0,0.0,0.0,0.0,0.0,0.0,0.0,0.0,0.0,0.0,0.0,0.0,0.0,0.0,0.0,0.0,0.0,0.0,0.0,0.0,0.0,0.0,0.0,0.0,0.0,0.0,0.0,0.0,0.0,0.0,0.0,0.0,0.0,0.0,0.0,0.0,0.0,0.0,0.0,0.0,0.0,0.0,0.0,0.0,0.0,0.0,0.0,0.0,0.0,0.0,0.0,0.0,0.0,0.0,0.0,0.0,0.0,0.0,0.0,0.0,0.0,0.0,0.0,0.0,0.0,0.0,0.0,0.0,0.0,-5.2513,-5.4411,-5.8603,-5.8093,-5.7661,-5.8247,-5.7551,-5.5496,-5.1748,-5.0948,0.0,0.0,0.0,0.0,0.0,0.0,0.0,0.0,0.0,0.0,0.0,0.0,0.0,0.0,0.0,0.0,0.0,0.0,0.0,0.0,0.0,0.0,0.0,0.0,0.0,0.0,0.0,0.0,0.0,0.0,0.0,0.0,0.0,0.0,0.0,0.0,0.0,0.0,0.0,0.0,0.0,0.0,0.0,0.0,0.0,0.0,0.0,0.0,0.0,0.0,0.0,0.0,0.0,0.0,0.0,0.0,0.0,0.0,0.0,0.0,0.0,0.0,0.0,0.0,0.0,0.0,0.0,0.0,0.0,0.0,0.0,0.0,0.0,0.0,0.0,0.0,0.0,0.0,0.0,0.0,0.0,0.0,0.0,0.0,0.0,0.0,0.0,0.0,0.0,0.0,0.0,0.0,0.0,0.0,0.0,0.0,0.0,0.0,0.0,0.0,0.0,0.0,-5.4294,-5.7853,-5.9636,-5.8635,-5.8259,-5.9301,-5.7579,-5.5022,-5.17,-5.0409,0.0,0.0,0.0,0.0,0.0,0.0,0.0,0.0,0.0,0.0,0.0,0.0,0.0,0.0,0.0,0.0,0.0,0.0,0.0,0.0,0.0,0.0,0.0,0.0,0.0,0.0,0.0,0.0,0.0,0.0,0.0,0.0,0.0,0.0,0.0,0.0,0.0,0.0,0.0,0.0,0.0,0.0,0.0,0.0,0.0,0.0,0.0,0.0,0.0,0.0,0.0,0.0,0.0,0.0,0.0,0.0,0.0,0.0,0.0,0.0,0.0,0.0,0.0,0.0,0.0,0.0,0.0,0.0,0.0,0.0,0.0,0.0,0.0,0.0,0.0,0.0,0.0,0.0,0.0,0.0,0.0,0.0,0.0,0.0,0.0,0.0,0.0,0.0,0.0,0.0,0.0,0.0,0.0,0.0,0.0,0.0,0.0,0.0,0.0,0.0,0.0,0.0,-5.3632,-5.6304,0.0,-5.8588,-5.8196,-5.9098,-5.8002,-5.5434,-5.1045,0.0,0.0,0.0,0.0,0.0,0.0,0.0,0.0,0.0,0.0,0.0,0.0,0.0,0.0,0.0,0.0,0.0,0.0,0.0,0.0,0.0,0.0,0.0,0.0,0.0,0.0,0.0,0.0,0.0,0.0,0.0,0.0,0.0,0.0,0.0,0.0,0.0,0.0,0.0,0.0,0.0,0.0,0.0,0.0,0.0,0.0,0.0,0.0,0.0,0.0,0.0,0.0,0.0,0.0,0.0,0.0,0.0,0.0,0.0,0.0,0.0,0.0,0.0,0.0,0.0,0.0,0.0,0.0,0.0,0.0,0.0,0.0,0.0,0.0,0.0,0.0,0.0,0.0,0.0,0.0,0.0,0.0,0.0,0.0,0.0,0.0,0.0,0.0,0.0,0.0,0.0,0.0,0.0,0.0,0.0,0.0,0.0,0.0,0.0,0.0,0.0,0.0,-5.1493,-5.3584,-5.5901,0.0,-5.841,-5.8008,-5.853,-5.7641,-5.5124,-5.0555,0.0,0.0,0.0,0.0,0.0,0.0,0.0,0.0,0.0,0.0,0.0,0.0,0.0,0.0,0.0,0.0,0.0,0.0,0.0,0.0,0.0,0.0,0.0,0.0,0.0,0.0,0.0,0.0,0.0,0.0,0.0,0.0,0.0,0.0,0.0,0.0,0.0,0.0,0.0,0.0,0.0,0.0,0.0,0.0,0.0,0.0,0.0,0.0,0.0,0.0,0.0,0.0,0.0,0.0,0.0,0.0,0.0,0.0,0.0,0.0,0.0,0.0,0.0,0.0,0.0,0.0,0.0,0.0,0.0,0.0,0.0,0.0,0.0,0.0,0.0,0.0,0.0,0.0,0.0,0.0,0.0,0.0,0.0,0.0,0.0,0.0,0.0,0.0,0.0,0.0,0.0,0.0,0.0,0.0,0.0,0.0,0.0,0.0,0.0,0.0,0.0,0.0,-5.072,-5.4528,-5.7582,-5.8819,-5.8228,-5.7707,-5.7698,-5.6369,-5.402,0.0,0.0,0.0,0.0,0.0,0.0,0.0,0.0,0.0,0.0,0.0,0.0,0.0,0.0,0.0,0.0,0.0,0.0,0.0,0.0,0.0,0.0,0.0,0.0,0.0,0.0,0.0,0.0,0.0,0.0,0.0,0.0,0.0,0.0,0.0,0.0,0.0,0.0,0.0,0.0,0.0,0.0,0.0,0.0,0.0,0.0,0.0,0.0,0.0,0.0,0.0,0.0,0.0,0.0,0.0,0.0,0.0,0.0,0.0,0.0,0.0,0.0,0.0,0.0,0.0,0.0,0.0,0.0,0.0,0.0,0.0,0.0,0.0,0.0,0.0,0.0,0.0,0.0,0.0,0.0,0.0,0.0,0.0,0.0,0.0,0.0,0.0,0.0,0.0,0.0,0.0,0.0,0.0,0.0,0.0,0.0,0.0,0.0,0.0,0.0,0.0,0.0,0.0,-5.0579,-5.4313,-5.7045,-5.768,-5.774,-5.7681,-5.7363,-5.691,-5.4684,-5.0201,0.0,0.0,0.0,0.0,0.0,0.0,0.0,0.0,0.0,0.0,0.0,0.0,0.0,0.0,0.0,0.0,0.0,0.0,0.0,0.0,0.0,0.0,0.0,0.0,0.0,0.0,0.0,0.0,0.0,0.0,0.0,0.0,0.0,0.0,0.0,0.0,0.0,0.0,0.0,0.0,0.0,0.0,0.0,0.0,0.0,0.0,0.0,0.0,0.0,0.0,0.0,0.0,0.0,0.0,0.0,0.0,0.0,0.0,0.0,0.0,0.0,0.0,0.0,0.0,0.0,0.0,0.0,0.0,0.0,0.0,0.0,0.0,0.0,0.0,0.0,0.0,0.0,0.0,0.0,0.0,0.0,0.0,0.0,0.0,0.0,0.0,0.0,0.0,0.0,0.0,0.0,0.0,0.0,0.0,0.0,0.0,0.0,0.0,0.0,0.0,0.0,0.0,-5.0356,-5.402,-5.6615,-5.6932,-5.7192,-5.7198,-5.6834,-5.6715,-5.4879,-5.0742,0.0,0.0,0.0,0.0,0.0,0.0,0.0,0.0,0.0,0.0,0.0,0.0,0.0,0.0,0.0,0.0,0.0,0.0,0.0,0.0,0.0,0.0,0.0,0.0,0.0,0.0,0.0,0.0,0.0,0.0,0.0,0.0,0.0,0.0,0.0,0.0,0.0,0.0,0.0,0.0,0.0,0.0,0.0,0.0,0.0,0.0,0.0,0.0,0.0,0.0,0.0,0.0,0.0,0.0,0.0,0.0,0.0,0.0,0.0,0.0,0.0,0.0,0.0,0.0,0.0,0.0,0.0,0.0,0.0,0.0,0.0,0.0,0.0,0.0,0.0,0.0,0.0,0.0,0.0,0.0,0.0,0.0,0.0,0.0,0.0,0.0,0.0,0.0,0.0,0.0,0.0,0.0,0.0,0.0,0.0,0.0,0.0,0.0,0.0,0.0,0.0,0.0,-5.0084,-5.3783,-5.6374,-5.6649,-5.6684,-5.6563,-5.6241,-5.6058,-5.4686,-5.1734,0.0,0.0,0.0,0.0,0.0,0.0,0.0,0.0,0.0,0.0,0.0,0.0,0.0,0.0,0.0,0.0,0.0,0.0,0.0,0.0,0.0,0.0,0.0,0.0,0.0,0.0,0.0,0.0,0.0,0.0,0.0,0.0,0.0,0.0,0.0,0.0,0.0,0.0,0.0,0.0,0.0,0.0,0.0,0.0,0.0,0.0,0.0,0.0,0.0,0.0,0.0,0.0,0.0,0.0,0.0,0.0,0.0,0.0,0.0,0.0,-4.1971,0.0,0.0,0.0,0.0,0.0,0.0,0.0,0.0,0.0,0.0,0.0,0.0,0.0,0.0,0.0,0.0,0.0,0.0,0.0,0.0,0.0,0.0,0.0,0.0,0.0,0.0,0.0,0.0,0.0,0.0,0.0,0.0,0.0,0.0,0.0,0.0,0.0,0.0,0.0,0.0,0.0,-4.9898,-5.3944,-5.683,-5.7063,-5.7309,-5.7146,-5.6357,-5.5683,-5.4344,-5.2046,-5.0461,0.0,0.0,0.0,0.0,0.0,0.0,0.0,0.0,0.0,0.0,0.0,0.0,0.0,0.0,0.0,0.0,0.0,0.0,0.0,0.0,0.0,0.0,0.0,0.0,0.0,0.0,0.0,0.0,0.0,0.0,0.0,0.0,0.0,0.0,0.0,0.0,0.0,0.0,0.0,0.0,0.0,0.0,0.0,0.0,0.0,0.0,0.0,0.0,0.0,0.0,0.0,0.0,0.0,0.0,0.0,0.0,0.0,0.0,0.0,0.0,-4.296,0.0,0.0,0.0,0.0,0.0,0.0,0.0,0.0,0.0,0.0,0.0,0.0,0.0,0.0,0.0,0.0,0.0,0.0,0.0,0.0,0.0,0.0,0.0,0.0,0.0,0.0,0.0,0.0,0.0,0.0,0.0,0.0,0.0,0.0,0.0,0.0,0.0,0.0,0.0,0.0,-5.0241,-5.4091,-5.6837,-5.7096,-5.7446,-5.7302,-5.6393,-5.604,-5.5024,-5.3082,-5.1632,0.0,0.0,0.0,0.0,0.0,0.0,0.0,0.0,0.0,0.0,0.0,0.0,0.0,0.0,0.0,0.0,0.0,0.0,0.0,0.0,0.0,0.0,0.0,0.0,0.0,0.0,0.0,0.0,0.0,0.0,0.0,0.0,0.0,0.0,0.0,0.0,0.0,0.0,0.0,0.0,0.0,0.0,0.0,0.0,0.0,0.0,0.0,0.0,0.0,0.0,0.0,0.0,0.0,-4.2635,-4.2983,-4.5173,-4.523,-4.6444,-4.8395,-4.6953,-4.6484,-4.6443,0.0,0.0,0.0,0.0,0.0,0.0,0.0,0.0,0.0,0.0,0.0,0.0,0.0,0.0,0.0,0.0,0.0,0.0,0.0,0.0,0.0,0.0,0.0,0.0,0.0,-4.722,-4.9788,0.0,0.0,0.0,0.0,0.0,0.0,0.0,0.0,0.0,0.0,0.0,0.0,-5.0998,-5.4395,-5.6703,-5.6968,-5.7368,-5.7155,-5.6081,-5.6234,-5.5689,-5.3993,-5.2951,-5.1284,0.0,0.0,0.0,0.0,0.0,0.0,0.0,0.0,0.0,0.0,0.0,0.0,0.0,0.0,0.0,0.0,0.0,0.0,0.0,0.0,0.0,0.0,0.0,0.0,0.0,0.0,0.0,0.0,0.0,0.0,0.0,0.0,-3.7116,-3.8042,0.0,0.0,0.0,0.0,0.0,0.0,0.0,0.0,0.0,0.0,0.0,0.0,0.0,0.0,-4.5867,-4.7135,-4.7536,-4.7109,-4.8984,-5.0428,-5.1481,-5.1514,-5.1704,-5.2012,-5.1776,0.0,-4.8398,-4.6289,0.0,0.0,0.0,0.0,0.0,0.0,0.0,0.0,0.0,0.0,0.0,0.0,0.0,0.0,0.0,0.0,0.0,0.0,0.0,0.0,0.0,0.0,-4.7453,-4.9608,-5.0645,-5.1447,0.0,-5.0966,-4.8881,-4.7391,-4.7069,0.0,0.0,0.0,0.0,0.0,0.0,0.0,-5.2532,-5.4964,-5.6643,-5.6955,-5.7288,-5.672,-5.4961,-5.5027,-5.4682,-5.3639,-5.2981,-5.1668,-4.948,-4.8489,0.0,0.0,0.0,0.0,0.0,0.0,0.0,0.0,0.0,0.0,0.0,0.0,0.0,0.0,0.0,0.0,0.0,0.0,0.0,0.0,0.0,0.0,0.0,0.0,0.0,0.0,0.0,0.0,0.0,-3.4788,-3.6122,-3.6931,-3.7262,-3.7539,0.0,0.0,0.0,0.0,0.0,0.0,0.0,0.0,0.0,-5.1516,-5.0811,-5.0464,-5.059,-5.0876,-5.1044,-5.1206,-5.1324,-5.2104,-5.3428,-5.2914,-5.2711,-5.2702,-5.2702,-5.1777,-5.0148,-4.7917,-4.6087,-4.4414,0.0,0.0,0.0,0.0,-3.7849,-3.7773,-3.9959,-4.07,0.0,0.0,0.0,0.0,0.0,0.0,0.0,0.0,0.0,0.0,0.0,0.0,0.0,-5.0171,-5.199,-5.3293,-5.3052,-5.328,-5.2858,0.0,-4.9425,-4.8283,-4.6784,0.0,0.0,0.0,0.0,-5.1263,-5.2881,-5.4722,-5.5973,-5.6319,-5.6373,-5.5978,-5.5027,-5.5002,-5.4733,-5.3868,-5.3135,-5.1819,-4.9808,-4.8123,-4.5866,0.0,0.0,0.0,0.0,0.0,0.0,0.0,0.0,0.0,0.0,0.0,0.0,0.0,0.0,0.0,0.0,0.0,0.0,0.0,0.0,0.0,0.0,0.0,0.0,0.0,0.0,0.0,0.0,-3.5272,-3.6639,-3.6557,-3.8865,-3.999,0.0,0.0,0.0,0.0,0.0,0.0,-5.1642,-5.1966,-5.2747,-5.4292,-5.3706,-5.3669,-5.4298,-5.3641,-5.3688,-5.4322,-5.3232,-5.3387,-5.4631,-5.3961,-5.3446,-5.3047,-5.3049,-5.2427,-5.1219,-4.9068,-4.7904,-4.7212,-4.4232,-4.2408,-4.1365,-4.096,-4.0415,-4.0228,-4.2601,-4.3378,-4.3419,-4.3619,0.0,-4.3108,-4.1831,0.0,0.0,0.0,0.0,-4.4096,-4.5849,-4.7971,-4.9841,-5.0478,-5.2845,-5.4576,-5.3301,-5.4326,-5.4994,0.0,-5.1942,-5.0516,-4.8847,0.0,0.0,0.0,0.0,-5.2015,-5.3574,-5.4647,-5.5378,-5.5616,-5.5638,-5.5383,-5.4779,-5.4706,-5.443,-5.3702,-5.2904,-5.1581,-4.962,-4.7987,-4.5874,-4.3235,0.0,0.0,0.0,0.0,0.0,0.0,0.0,0.0,0.0,0.0,0.0,0.0,0.0,0.0,0.0,0.0,0.0,0.0,0.0,0.0,0.0,0.0,0.0,0.0,0.0,0.0,0.0,0.0,0.0,-3.8669,-4.2752,0.0,0.0,0.0,0.0,-4.7231,-4.8999,-5.1849,-5.5975,-5.4697,-5.5391,-5.8673,-5.6371,-5.509,-5.5143,-5.5106,-5.5114,-5.5242,-5.5983,-5.6367,-5.6355,-5.6313,-5.5455,-5.3933,-5.3933,-5.2965,-5.1336,-5.0358,-4.904,-4.741,-4.5569,-4.382,-4.2421,-4.3193,-4.3495,-4.3683,-4.551,-4.6045,-4.5763,-4.4202,-4.311,-4.28,-4.5156,-4.4729,0.0,0.0,-4.6581,-4.764,-4.9326,-5.1034,-5.2315,-5.2275,-5.3598,-5.4776,-5.47,-5.4086,-5.3748,0.0,-5.4525,-5.4087,-5.2979,0.0,-5.1667,-5.2271,-5.2295,-5.3036,-5.5258,-5.5412,-5.5212,-5.5057,-5.5438,-5.508,-5.3534,-5.3449,-5.3222,-5.2548,-5.2039,-5.0801,-4.8644,-4.8754,-4.6728,-4.2154,-4.2891,0.0,0.0,0.0,0.0,0.0,0.0,0.0,0.0,0.0,0.0,0.0,0.0,0.0,0.0,0.0,0.0,0.0,0.0,0.0,0.0,0.0,0.0,0.0,0.0,0.0,0.0,0.0,0.0,-4.027,-4.4226,0.0,-4.493,-4.7118,-4.9255,-5.0657,-5.2398,-5.4279,-5.638,-5.5972,-5.6209,-5.7398,-5.6548,-5.6082,-5.604,-5.6087,-5.6094,-5.6138,-5.645,-5.656,-5.647,-5.597,-5.507,-5.3919,-5.3391,-5.2501,-5.1367,-5.1058,-5.0594,-4.985,-4.8131,-4.7081,-4.6422,-4.5673,-4.5356,-4.5471,-4.6099,-4.6635,-4.6928,-4.6343,-4.6295,-4.6644,-4.7594,-4.7443,-4.717,-4.8318,-4.9268,-5.0088,-5.0622,-5.2008,-5.3246,-5.3131,-5.3917,-5.4705,-5.4564,-5.4738,-5.4957,-5.5154,-5.4398,-5.3551,-5.3069,-5.3515,-5.362,-5.274,-5.3299,-5.4138,-5.4942,-5.4663,-5.4392,-5.4429,-5.4363,-5.3907,-5.2993,-5.2958,-5.2547,-5.142,-5.0421,-4.906,-4.7395,-4.6545,-4.5386,-4.3831,-4.3626,-4.2293,0.0,0.0,0.0,0.0,0.0,0.0,0.0,0.0,0.0,0.0,0.0,0.0,0.0,0.0,0.0,0.0,0.0,0.0,0.0,0.0,0.0,0.0,0.0,0.0,0.0,0.0,-4.282,-4.1638,-4.5783,-4.8308,-4.7104,-4.9573,-5.1871,-5.3342,-5.4826,-5.6014,-5.6904,-5.6701,-5.667,-5.6929,-5.6704,-5.655,-5.6506,-5.6555,-5.6563,-5.6606,-5.6606,-5.656,-5.647,-5.5933,-5.5228,-5.4318,-5.3516,-5.2626,-5.1806,-5.1538,-5.1419,-5.1254,-4.9801,-4.9057,-4.863,-4.7218,-4.6514,-4.6318,-4.6594,-4.7245,-4.8005,-4.8281,-4.8737,-4.9266,-4.9549,-4.9627,-4.974,-5.029,-5.123,-5.2042,-5.1682,-5.304,-5.4372,-5.401,-5.4469,-5.4979,-5.4857,-5.5215,-5.5581,-5.5413,-5.458,-5.3874,-5.3694,-5.4485,-5.4542,-5.2759,-5.3967,-5.4738,-5.3876,-5.4086,-5.4261,-5.4074,-5.3552,-5.314,-5.307,-5.1668,-5.0804,-5.0719,-4.8783,-4.7097,-4.5974,-4.4766,-4.3685,-4.2701,-4.2421,-4.1751,-4.0646,0.0,0.0,0.0,0.0,0.0,0.0,0.0,0.0,0.0,0.0,0.0,0.0,0.0,0.0,0.0,0.0,0.0,0.0,0.0,0.0,0.0,0.0,0.0,-4.0176,-4.2941,-4.453,-4.2847,-4.7763,-5.0664,-4.9019,-5.1843,-5.4178,-5.5064,-5.5981,-5.6865,-5.7708,-5.6959,-5.689,-5.773,-5.695,-5.653,-5.6506,-5.6545,-5.6553,-5.6604,-5.6604,-5.656,-5.6509,-5.647,-5.6048,-5.5242,-5.4344,-5.3494,-5.2648,-5.1789,-5.1434,-5.1349,-5.0432,-4.9571,-4.8757,-4.7874,-4.7008,-4.6421,-4.7262,-4.8142,-4.8986,-4.9822,-5.0077,-5.0201,-5.1018,-5.123,-5.1249,-5.1278,-5.2469,-5.3488,-5.2663,-5.4171,-5.5694,-5.4912,-5.5201,-5.5643,-5.5577,-5.5499,-5.5377,-5.521,-5.5261,-5.5288,-5.5197,-5.5099,-5.441,-5.2635,-5.4264,0.0,-5.2306,-5.381,-5.4801,-5.4,-5.3033,-5.2791,-5.3474,-4.9463,-4.7928,-5.0334,-4.7196,-4.5021,-4.4427,-4.3758,-4.188,-3.8671,-3.9423,-4.0658,-4.2273,0.0,0.0,0.0,0.0,0.0,0.0,0.0,0.0,0.0,0.0,0.0,0.0,0.0,0.0,0.0,0.0,0.0,0.0,0.0,0.0,0.0,0.0,-4.2458,-4.2602,-4.614,-4.8491,-4.7977,-4.9919,-5.158,-5.2258,-5.3236,-5.4419,-5.593,-5.6281,-5.6546,-5.6843,-5.6647,-5.6611,-5.6854,-5.7242,-5.713,-5.651,-5.7122,-5.7136,-5.6514,-5.6542,-5.6545,-5.656,-5.5938,-5.5515,-5.5214,-5.3702,-5.2922,-5.2687,-5.2453,-5.2332,-5.2209,-5.0687,-4.9939,-4.9655,-4.8839,-4.8322,-4.8226,-4.9097,-4.9523,-4.9763,-5.0024,-5.0474,-5.0883,-5.0494,-5.1191,-5.1981,-5.1268,-5.2298,-5.3475,-5.3086,-5.3472,-5.4208,-5.5088,-5.4924,-5.4718,-5.5224,-5.5679,-5.5798,-5.5255,-5.5479,-5.5602,-5.5118,-5.4927,-5.4693,-5.4193,-5.4479,0.0,-5.3808,-5.3457,-5.2809,-5.1536,-5.0502,-4.9834,-4.965,-4.8093,-4.7473,-4.8365,-4.609,-4.4705,-4.4603,-4.3378,-4.2226,-4.1289,-4.0886,-4.0878,0.0,0.0,0.0,0.0,0.0,0.0,0.0,0.0,0.0,0.0,0.0,0.0,0.0,0.0,0.0,0.0,0.0,0.0,0.0,0.0,0.0,0.0,-4.3088,-4.4955,-4.6208,-4.8532,-5.0213,-5.0541,-5.1027,-5.1823,-5.3107,-5.3574,-5.4363,-5.5745,-5.6207,-5.6472,-5.6503,-5.6488,-5.6488,-5.6507,-5.6998,-5.6995,-5.6492,-5.6992,-5.701,-5.6506,-5.6511,-5.656,-5.6573,-5.6071,-5.5845,0.0,-5.3983,-5.3241,-5.3202,-5.2459,-5.2144,0.0,0.0,0.0,0.0,0.0,-4.9059,-4.9421,-4.9903,-5.0293,-5.0608,-5.0591,-5.093,-5.1273,-5.1087,-5.1701,-5.2407,-5.2109,-5.3011,-5.3992,-5.3878,-5.4044,-5.4524,-5.5369,-5.5113,-5.4891,-5.5605,-5.5945,-5.6004,-5.5578,0.0,0.0,-5.4973,-5.4752,-5.443,-5.3783,-5.4276,-5.4253,-5.2902,-5.2938,-5.2531,-5.0982,-5.0018,-4.9365,-4.9011,-4.7235,0.0,0.0,0.0,-4.3136,-4.2637,-4.1401,0.0,0.0,0.0,-4.0935,-4.1956,0.0,0.0,0.0,-4.4811,-4.5546,0.0,0.0,0.0,0.0,0.0,0.0,0.0,0.0,0.0,0.0,0.0,0.0,0.0,0.0,0.0,0.0,-4.6594,-4.8348,-4.9999,-5.0265,-5.0549,-5.13,-5.1331,-5.1654,-5.2524,-5.3325,-5.4173,-5.503,-5.5961,-5.6496,-5.6514,0.0,0.0,0.0,0.0,-5.6617,-5.6492,-5.6595,-5.6611,-5.6509,-5.6454,-5.6463,-5.6465,-5.6433,-5.6403,-5.6211,-5.4687,-5.3945,-5.3748,-5.2187,-5.1562,-5.1598,-5.2277,-5.2075,-5.1226,-4.9651,-4.9589,-5.0222,-5.0166,0.0,0.0,-5.1447,-5.149,-5.1728,-5.2425,-5.2646,-5.279,-5.3336,-5.4053,-5.4678,-5.4659,-5.52,-5.5773,-5.5797,-5.5715,-5.5849,-5.6466,-5.6496,-5.6299,-5.6144,-5.5998,-5.5672,-5.4926,-5.4585,-5.3954,-5.2585,-5.3899,-5.4,-5.1065,-5.2362,-5.2884,-5.1174,0.0,0.0,-4.9697,-4.6636,-4.5167,-4.6139,-4.3747,-4.1689,-4.0334,-3.9606,-3.9215,-3.9143,-3.9928,-4.1393,-4.3541,-4.5219,-4.646,-4.7233,-4.5196,-4.5458,0.0,0.0,0.0,0.0,0.0,0.0,0.0,0.0,0.0,0.0,0.0,0.0,0.0,0.0,0.0,-4.5572,-4.7908,-4.9908,-5.1001,-5.1132,-5.119,-5.1302,-5.1317,-5.1647,-5.2528,-5.3321,-5.4173,-5.5013,-5.59,-5.6455,-5.6515,-5.6507,0.0,-5.6402,-5.7157,-5.7203,-5.6492,-5.7205,-5.7219,-5.6509,0.0,0.0,-5.5565,-5.5535,-5.5152,-5.4492,-5.4138,-5.359,-5.2928,-5.2577,-5.2461,-5.2416,-5.1864,-5.1554,-5.1362,-5.1039,-5.0982,-5.1154,-5.1138,-5.1658,-5.2325,-5.2281,-5.2733,-5.3346,-5.3365,-5.3857,0.0,-5.3533,-5.387,-5.4416,-5.4314,-5.4863,-5.5644,-5.6256,-5.6815,-5.7211,-5.73,-5.7655,-5.7746,-5.6966,-5.675,-5.6399,-5.552,-5.4825,-5.433,-5.4075,-5.4193,-5.3885,-5.2663,-5.2171,-5.1078,-4.8732,-4.7858,-4.7236,-4.6623,-4.5581,-4.5677,-4.7422,-4.6123,-4.4887,-4.4019,-4.3824,-4.3712,-4.3643,-4.4435,-4.4725,-4.4439,-4.6117,-4.7054,-4.7311,-4.8253,-4.8963,0.0,0.0,0.0,0.0,0.0,0.0,0.0,0.0,0.0,0.0,0.0,-4.2023,0.0,0.0,-4.5944,-4.8278,-4.9407,-5.0324,-5.1268,-5.1405,-5.1402,-5.134,-5.1347,-5.1515,-5.1973,-5.2734,-5.3567,-5.4402,-5.5307,-5.5978,-5.645,-5.6488,-5.6464,-5.6457,-5.689,-5.6743,-5.5857,-5.6709,-5.6528,-5.5238,-5.5248,-5.5023,-5.4639,-5.4644,-5.4414,-5.3982,-5.3549,-5.3117,-5.2688,-5.2224,-5.2031,-5.2029,-5.156,-5.1404,-5.1401,-5.1394,-5.1691,-5.2057,-5.2025,-5.2536,-5.3199,-5.3107,-5.3402,-5.3813,-5.4142,-5.4544,-5.4831,-5.4612,-5.4833,-5.506,-5.4871,-5.5514,-5.6217,-5.6537,-5.7156,-5.773,-5.8068,-5.798,-5.78,-5.7716,-5.6917,-5.6213,-5.6051,-5.4985,-5.4198,-5.4303,-5.4145,-5.3738,-5.297,-5.2096,-5.0922,-4.928,-4.8493,-4.7823,-4.7113,-4.6314,-4.6107,-4.6767,-4.5958,-4.5114,-4.4366,-4.4334,-4.4348,-4.4309,-4.5056,-4.5234,-4.4754,-4.6851,-4.8178,-4.8686,-5.0438,-5.1043,0.0,0.0,0.0,0.0,0.0,0.0,0.0,0.0,-4.1982,-4.3823,-4.4298,-4.5062,-4.7323,-4.724,-4.7792,-5.0698,-5.0668,-5.0501,-5.1258,-5.1397,-5.1406,-5.1403,-5.1416,-5.1383,-5.1383,-5.2142,-5.2851,-5.3502,-5.4416,-5.5282,-5.6125,-5.6238,-5.6266,-5.6248,-5.6266,-5.5845,-5.4987,-5.5667,-5.5326,-5.4003,-5.4522,-5.4448,-5.3748,-5.3906,-5.3826,-5.3469,-5.2764,-5.2448,-5.2405,-5.1675,-5.1405,-5.1406,-5.1406,-5.1405,-5.14,-5.1589,-5.2081,-5.2679,-5.2632,-5.3247,-5.3979,-5.3769,-5.3907,-5.431,-5.4946,-5.5079,-5.5131,-5.5654,-5.5776,-5.5724,-5.5497,-5.6228,-5.7008,-5.6828,-5.7458,-5.8272,-5.8843,-5.8321,-5.7909,-5.8432,-5.7201,-5.6197,-5.6631,-5.5398,-5.4354,-5.4316,-5.4093,-5.3609,-5.2675,-5.1964,-5.1214,-5.0331,-4.9765,-4.9122,-4.8342,-4.759,-4.676,-4.5764,-4.5414,-4.4943,-4.4237,-4.4023,-4.4046,-4.4185,-4.4936,-4.5325,-4.5344,-4.7717,-4.9357,-5.0295,-5.2029,-5.2497,-3.6286,-3.796,-4.0817,-4.2473,-4.3376,-4.4763,0.0,0.0,-4.7266,-4.9143,-4.9646,-4.9846,-5.023,-5.0263,-5.0449,-5.103,-5.1092,-5.1131,-5.1278,-5.1346,-5.1405,-5.1405,-5.1396,-5.141,-5.141,-5.2119,-5.2639,-5.2727,-5.3502,-5.4377,-5.5286,-5.5338,-5.5358,-5.5354,-5.5369,-5.4953,-5.4144,-5.4241,-5.4206,-5.4005,-5.3318,-5.2929,-5.2888,-5.3632,-5.316,-5.1672,-5.1589,-5.1546,-5.1548,-5.1441,-5.1405,-5.1405,-5.1406,-5.1406,-5.1484,-5.226,-5.2594,-5.2598,-5.2607,-5.358,-5.4744,-5.389,-5.4671,-5.5908,-5.5899,-5.5866,-5.587,-5.5798,-5.5724,-5.5593,-5.5351,-5.6406,-5.7516,-5.7414,-5.8555,-5.962,-5.9551,-5.9407,-5.9282,-5.914,-5.8316,-5.7623,-5.7486,-5.6623,-5.5728,-5.5174,-5.4353,-5.3367,-5.2148,-5.1748,-5.1041,-4.9668,-4.9612,-4.9164,-4.7893,-4.8422,-4.7972,-4.594,-4.6505,-4.6623,-4.5947,-4.5234,-4.5187,-4.5909,-4.6763,-4.7207,-4.721,-4.9,-5.0286,-5.1197,-5.296,-5.3701,-4.1999,-4.2777,-4.3945,0.0,-4.7255,-4.7801,-4.9061,-4.882,-4.8765,-5.0156,-5.05,-5.043,-5.0055,-5.0452,-5.0751,0.0,-5.0848,-5.12,-5.1278,-5.1364,-5.1394,-5.1405,-5.1404,-5.1393,-5.1416,-5.1654,-5.2044,-5.2493,-5.287,-5.3485,-5.4338,-5.4402,-5.4476,-5.4507,-5.4484,-5.411,-5.3264,-5.374,-5.347,-5.2497,-5.3161,-5.3201,-5.2695,-5.3086,-5.2848,-5.2135,-5.162,-5.1696,-5.213,-5.1626,-5.1396,-5.1402,-5.1403,-5.1405,-5.1445,-5.1829,-5.2243,-5.2648,-5.26,-5.3638,-5.4886,-5.4498,-5.511,-5.602,-5.6016,-5.5989,-5.5895,-5.5735,-5.5995,-5.6134,-5.5441,-5.6442,-5.7501,-5.6831,-5.7946,-5.8981,-5.8396,-5.8593,-5.8713,-5.8101,-5.7564,-5.7118,-5.6964,-5.608,-5.533,-5.4976,-5.4664,-5.4148,-5.3105,-5.2292,-5.1239,-4.9858,-5.0208,-4.9982,-4.8571,-4.9289,-4.8862,-4.6638,-4.7868,-4.8149,-4.694,-4.7082,-4.738,-4.7694,-4.8069,-4.8254,-4.826,-4.9973,-5.1265,-5.2172,-5.441,-5.5738,-4.5057,0.0,0.0,-4.8964,-5.0153,-5.0476,-4.9656,-4.9721,-4.9985,-5.0068,-5.0134,-4.9949,-4.9237,-4.9671,-4.9954,-4.9504,-5.0198,-5.0836,-5.0917,-5.1194,-5.1384,-5.1405,-5.1405,-5.1474,-5.1732,-5.1503,-5.158,-5.213,-5.2208,-5.2589,-5.3433,-5.3506,-5.354,-5.3613,-5.363,-5.3217,-5.2334,-5.3195,-5.2887,-5.1406,-5.2926,-5.3317,-5.2695,-5.2969,-5.3044,-5.3027,-5.2119,-5.1964,-5.2285,-5.165,-5.154,-5.1711,-5.1479,-5.1561,-5.1719,-5.1473,-5.1923,-5.2684,-5.2855,-5.3813,-5.4906,-5.4858,-5.5365,-5.5932,-5.5971,-5.5924,-5.5835,-5.5692,-5.6038,-5.6228,-5.5376,-5.6196,-5.7101,-5.6535,-5.7456,-5.837,-5.8001,-5.8333,-5.8507,-5.7849,-5.7356,-5.6987,-5.6835,-5.5971,-5.5218,-5.4916,-5.4922,-5.4668,-5.3628,-5.2435,-5.1194,-5.0044,-5.0499,-5.0366,-4.914,-4.9801,-4.9401,-4.7435,-4.8577,-4.8812,-4.7756,-4.8167,-4.8566,-4.8782,-4.9023,-4.9296,-4.9531,-5.1014,-5.2421,-5.3788,-5.5699,-5.7261,0.0,0.0,-4.7115,-4.8949,-5.1312,-5.2846,-5.1513,-5.194,-5.1904,-4.9545,-4.916,-4.9007,-4.8279,-4.8182,-4.8244,-4.8415,-4.9227,-4.9886,-5.0036,-5.0803,-5.1394,-5.1404,-5.1398,-5.173,0.0,-5.1906,-5.1414,-5.1411,-5.1363,-5.1728,-5.2602,-5.2645,-5.2625,-5.262,-5.2728,-5.2316,-5.1468,-5.2294,-5.2299,-5.1405,-5.2303,-5.2733,-5.2734,-5.3593,-5.3979,-5.3927,-5.2971,-5.2154,-5.1428,-5.1408,-5.1886,-5.2571,-5.1718,-5.1914,-5.2578,-5.1701,-5.1906,-5.2692,-5.3494,-5.4252,-5.4904,-5.4831,-5.5324,-5.6018,-5.6018,-5.5875,-5.5724,-5.5776,-5.5626,-5.5377,-5.5181,-5.5622,-5.6292,-5.6911,-5.764,-5.8438,-5.9266,-5.9436,-5.9418,-5.9234,-5.8503,-5.7847,-5.7847,-5.7004,-5.6086,-5.5304,-5.5078,-5.4483,-5.3029,-5.1764,-5.0757,-5.0087,-4.9971,-4.9695,-4.9125,-4.9778,-4.9602,-4.8145,-4.8252,-4.8385,-4.8471,-4.7855,-4.7955,-4.8796,-4.9639,-5.0466,-5.1326,-5.2224,-5.3941,-5.6396,-5.6466,-5.7869,0.0,0.0,-5.0509,-5.2522,-5.3648,-5.3867,-5.2468,-5.241,-5.212,-5.0259,-4.9051,-4.7959,-4.6608,-4.6873,-4.7006,-4.6032,-4.8108,-4.9886,-4.9975,-5.0792,-5.138,-5.1399,-5.1406,0.0,0.0,0.0,0.0,-5.2139,-5.1643,-5.1429,-5.171,-5.1721,-5.1743,-5.1801,-5.1823,-5.1956,-5.2278,-5.1976,-5.1982,-5.226,-5.2575,-5.2694,-5.2695,-5.3007,-5.3159,-5.3107,-5.2204,-5.1968,-5.22,-5.1646,-5.1576,-5.1825,-5.1523,-5.1562,-5.1792,-5.1496,-5.1536,-5.1764,-5.2044,-5.2964,-5.4051,-5.4001,-5.4899,-5.5924,-5.5924,-5.5807,-5.5692,-5.5638,-5.6254,-5.6803,-5.6036,-5.6778,-5.751,-5.6488,-5.7322,-5.8093,-5.7301,-5.838,-5.9022,-5.7363,-5.7976,-5.8053,-5.5881,-5.6015,-5.5898,-5.4424,-5.4278,-5.4,-5.306,-5.3115,-5.2831,-5.1698,-5.1561,-5.1315,-5.0756,-5.0412,-4.9877,-4.9028,-4.9607,-4.9792,-4.9392,-4.9756,-5.01,-5.0436,-5.1318,-5.1917,-5.2277,-5.368,-5.5118,-5.6514,-5.7679,-5.9003,0.0,-5.062,-5.2404,-5.3855,-5.4414,-5.4129,-5.2395,-5.2251,-5.1887,-4.9707,-4.801,-4.6418,-4.4844,-4.5053,-4.5051,-4.3831,-4.6377,-4.8593,-4.9013,-4.9898,-5.072,-5.1325,-5.1406,-5.1519,0.0,0.0,0.0,-5.2149,-5.1647,-5.132,-5.1339,-5.131,-5.132,-5.1414,-5.1394,-5.1835,-5.2698,-5.2126,-5.2136,-5.269,-5.2694,-5.2695,-5.2695,-5.3006,-5.3002,-5.268,-5.2083,-5.1964,-5.2205,-5.1648,-5.1581,-5.1832,-5.1523,-5.1598,-5.1823,-5.1523,-5.1372,-5.1374,-5.165,-5.258,-5.3676,-5.3909,-5.4834,-5.5856,-5.5855,-5.5714,-5.5593,-5.5535,-5.618,-5.6684,-5.5911,-5.6489,-5.6986,-5.604,-5.663,-5.7288,-5.6798,-5.7858,-5.8538,-5.7258,-5.7903,-5.7922,-5.5527,-5.538,-5.5193,-5.4093,-5.3982,-5.3775,-5.3023,-5.3587,-5.3628,-5.2532,-5.2437,-5.2332,-5.2014,-5.1564,-5.113,-5.077,-5.0785,-5.0758,-5.0667,-5.0984,-5.1185,-5.1269,-5.2738,-5.3387,-5.3136,-5.5123,-5.6521,-5.745,-5.8839,-6.0126,-5.0602,-5.2011,-5.2881,-5.3038,-5.374,-5.3821,-5.1549,-5.1735,-5.1457,-4.8071,-4.6175,-4.4565,0.0,0.0,-4.2666,-4.1947,-4.4137,-4.6313,-4.7303,-4.8274,-4.9484,0.0,0.0,0.0,0.0,0.0,0.0,-5.1396,0.0,-5.1316,-5.1408,-5.132,-5.132,-5.1414,-5.1401,-5.1837,-5.2684,-5.2706,-5.2684,-5.2615,-5.2578,-5.2578,-5.2655,-5.3432,-5.3351,-5.2646,-5.2533,-5.2069,-5.1395,-5.1334,-5.1861,-5.2537,-5.1713,-5.1902,-5.2519,-5.1703,-5.1372,-5.1479,-5.2204,-5.2946,-5.3741,-5.4405,-5.5139,-5.5731,-5.5707,-5.5581,-5.5401,-5.5449,-5.5377,-5.5206,-5.5017,-5.4936,-5.5054,-5.5647,-5.5717,-5.6081,-5.7695,-5.7959,-5.8128,-5.8799,-5.8237,-5.7453,-5.6668,-5.5193,-5.4127,-5.429,-5.42,-5.381,-5.297,-5.3224,-5.3225,-5.2679,-5.2623,-5.2768,-5.3004,-5.2997,-5.3086,-5.3251,-5.1797,-5.1313,-5.2221,-5.1591,-5.125,-5.132,-5.3789,-5.4736,-5.3958,-5.6488,-5.8165,-5.9026,-5.9835,-6.1159,-5.1306,-5.2921,-5.4503,-5.4118,-5.4204,-5.4105,-5.2962,-5.2515,-5.1372,-4.7895,-4.6013,-4.3931,0.0,0.0,0.0,-4.1085,-4.42,0.0,-4.821,-4.9178,0.0,-5.1284,0.0,-5.1481,-5.1708,-5.1527,0.0,0.0,-5.1349,-5.132,-5.1335,-5.1292,-5.1342,-5.1414,-5.1333,-5.1771,-5.2684,-5.2706,-5.2369,-5.1713,-5.1054,-5.1093,-5.1717,-5.1284,-5.1316,-5.1695,-5.1013,-5.1006,-5.1357,-5.0705,-5.0959,-5.1717,-5.1474,-5.1533,-5.1718,-5.1411,-5.1339,-5.1355,-5.1526,-5.2081,-5.2848,-5.3584,-5.4306,-5.4998,-5.5542,-5.5581,-5.5376,-5.5339,-5.5719,-5.605,-5.5761,-5.6176,-5.6474,-5.574,-5.6063,-5.6644,-5.6985,-5.751,-5.7978,-5.8128,-5.7061,-5.6014,-5.5807,-5.4909,-5.4218,-5.4182,-5.42,-5.4161,-5.3973,-5.4037,-5.4145,-5.4147,-5.3698,-5.3729,-5.4549,-5.3675,-5.3381,-5.4139,-5.329,-5.2868,-5.3141,-5.3011,-5.2923,-5.2997,-5.4346,-5.4957,-5.481,-5.6757,-5.8155,-5.9012,-5.9838,-6.1151,-5.2731,-5.3941,-5.4894,-5.3903,-5.3918,-5.3654,-5.1469,-5.0996,-4.9928,-4.6144,-4.4221,-4.2241,-3.9175,-4.0535,0.0,0.0,0.0,0.0,-4.8457,-4.9163,-5.0,0.0,-5.1406,0.0,-5.1396,-5.141,-5.1389,0.0,-5.0966,-5.091,-5.1317,-5.0959,-5.0966,-5.1375,-5.1375,-5.1422,-5.1559,-5.1576,-5.1121,-5.0271,-5.0195,-5.0194,-5.0306,-5.0143,-5.0373,-5.08,0.0,-5.0586,-5.1341,-5.0885,-5.0975,-5.1405,-5.1418,-5.1386,-5.1366,-5.1317,-5.1292,-5.1308,-5.1292,-5.155,-5.2057,-5.3148,-5.3992,-5.4738,-5.538,-5.5437,-5.5275,-5.5168,-5.5413,-5.5677,-5.5394,-5.574,-5.5956,-5.5145,-5.5655,-5.6329,-5.6519,-5.721,-5.7771,-5.7752,-5.6425,-5.5342,-5.5489,-5.4759,-5.4218,-5.4216,-5.4271,-5.4343,-5.4375,-5.4443,-5.4505,-5.472,-5.4495,-5.458,-5.5185,-5.4606,-5.444,-5.5045,-5.4352,-5.3962,-5.4069,-5.4056,-5.391,-5.3582,-5.4861,-5.5539,-5.5575,-5.7336,-5.8632,-5.9499,-6.0702,-6.2024,-5.4179,-5.4822,-5.474,-5.3237,-5.333,-5.2845,-4.9144,-4.8739,-4.7963,-4.383,-4.1854,-4.0314,-3.8467,-3.9646,-4.0834,-4.059,0.0,-4.6345,-4.8463,-4.8876,-4.9569,-5.1205,-5.1406,-5.1365,-5.1239,-5.121,-5.1224,-5.1224,-5.0352,-5.0316,-5.1355,-5.0681,-5.0555,-5.1216,-5.1115,-5.0698,-4.9926,-4.9938,-4.9562,-4.8828,-4.953,-4.9525,-4.8926,-4.9503,-4.9819,-4.9907,0.0,0.0,-5.1208,-5.1093,-5.1208,-5.1418,-5.1394,-5.1359,-5.1328,-5.1303,-5.1292,-5.1273,-5.1269,-5.1225,-5.1414,-5.2852,-5.3815,-5.4506,-5.5063,-5.5199,-5.5154,-5.4941,-5.4905,-5.4829,-5.4571,-5.4571,-5.4608,-5.436,-5.4815,-5.5491,-5.6087,-5.6868,-5.7409,-5.7297,-5.6084,-5.5118,-5.5321,-5.4667,-5.4198,-5.4392,-5.434,-5.434,-5.4472,-5.4489,-5.4554,-5.4767,-5.4956,-5.514,-5.5236,-5.5449,-5.5649,-5.5766,-5.5133,-5.4823,-5.4942,-5.5075,-5.4705,-5.3855,-5.5613,-5.647,-5.6393,-5.8136,-5.9413,-6.0288,-6.1857,-6.3238,-5.3776,-5.4601,-5.541,-5.3978,-5.3218,-5.2326,-5.0348,-4.9015,0.0,0.0,-4.1292,-3.9852,-3.6608,-3.7691,-3.954,-4.1054,-4.3073,-4.5681,-4.9093,-4.9649,-5.0116,0.0,-5.1393,-5.1131,-5.039,-5.0337,0.0,0.0,0.0,-4.9708,-5.1302,-5.1261,-5.0901,-5.0339,-4.9628,-4.9172,-4.9016,-4.9082,-4.9018,-4.8866,-4.8316,-4.8304,-4.88,-4.8205,-4.8345,-4.8992,0.0,0.0,-5.0253,-4.9557,-5.0116,-5.1401,-5.138,-5.1394,-5.1362,-5.1335,-5.1261,-5.122,-5.1162,-5.1114,-5.1231,-5.2082,-5.2833,-5.3551,-5.4137,-5.4674,-5.5014,-5.4912,-5.4829,-5.4705,-5.4538,-5.4522,-5.4472,-5.4198,-5.4239,-5.4521,-5.5115,-5.5953,-5.6423,-5.5809,-5.5529,-5.5228,-5.4695,-5.445,-5.4375,-5.4409,-5.4392,-5.4392,-5.4426,-5.4426,-5.4526,-5.4767,-5.489,-5.4985,-5.5102,-5.5364,-5.5531,-5.5649,-5.5671,-5.5673,-5.5692,-5.6395,-5.6402,-5.5595,-5.7381,-5.7984,-5.7278,-5.9029,-6.0272,-6.1097,-6.2067,-6.3765,-5.3864,-5.4202,-5.4388,-5.3267,-5.275,-5.1565,-4.8301,0.0,0.0,0.0,-4.0016,-3.916,-3.6646,-3.7838,0.0,-3.9986,-4.2382,-4.52,-4.7986,-4.9271,0.0,-5.0628,-5.1103,-5.1047,0.0,0.0,0.0,0.0,0.0,-5.0535,-5.135,-5.0951,-5.0519,-5.0098,-4.8816,-4.8123,-4.8172,-4.776,-4.7534,-4.7537,-4.7577,-4.7572,-4.7489,-4.7559,-4.7785,-4.8168,-4.8211,0.0,-5.0111,-5.0156,-5.066,-5.1385,-5.1344,-5.1349,-5.1328,-5.1287,-5.122,-5.1201,-5.112,-5.1068,-5.1069,-5.1315,-5.191,-5.2752,-5.3745,-5.4188,-5.4287,-5.4163,-5.4327,-5.4463,-5.3879,-5.41,-5.4439,-5.4109,-5.4317,-5.4764,-5.5523,-5.573,-5.5696,-5.5342,-5.5023,-5.4738,-5.4467,-5.4409,-5.4409,-5.4409,-5.4409,-5.4426,-5.4439,-5.4439,-5.4522,-5.4767,-5.4905,-5.4985,-5.5113,-5.5262,-5.5437,-5.5604,-5.5756,-5.6078,-5.6551,-5.6568,-5.678,-5.7245,-5.7774,-5.8272,-5.866,-5.9528,-6.0638,-6.1905,-6.2766,-6.4102,-5.3646,-5.3754,-5.3355,-5.2478,-5.2092,-5.0727,-4.6022,-4.4711,0.0,-3.9652,-3.8711,-3.8265,-3.7201,-3.8028,-3.889,0.0,-4.1294,-4.3923,-4.6457,-4.8087,-4.9212,0.0,-5.0377,0.0,-4.9644,0.0,0.0,0.0,0.0,0.0,-5.1128,-5.0299,-4.9755,-4.9534,-4.8045,-4.7268,-4.7323,-4.6473,-4.6011,-4.6014,-4.6719,-4.6679,-4.6013,-4.6908,-4.7298,-4.7337,-4.8236,0.0,0.0,-5.0771,-5.1226,-5.1401,-5.1342,-5.1308,-5.13,-5.1206,-5.118,-5.1175,-5.1101,-5.103,-5.0944,-5.0919,-5.1356,-5.2107,-5.3148,-5.3563,-5.357,-5.3225,-5.3801,-5.4251,-5.3273,-5.3699,-5.4371,-5.4074,-5.4391,-5.4946,-5.5614,-5.534,-5.4969,-5.5006,-5.4592,-5.4285,-5.4392,-5.4392,-5.4392,-5.4409,-5.4392,-5.4426,-5.4489,-5.4522,-5.4603,-5.4799,-5.4882,-5.4985,-5.5057,-5.517,-5.5339,-5.5508,-5.5682,-5.6192,-5.713,-5.6752,-5.7091,-5.8364,-5.8267,-5.8692,-5.9714,-6.0219,-6.1175,-6.2665,-6.3623,-6.4715,-5.2563,-5.3344,-5.3476,-5.2302,-5.141,-4.9777,-4.5752,0.0,-4.2068,-3.9371,-3.778,-3.7074,-3.753,-3.6758,-3.6881,-3.9374,-3.9566,-4.0922,-4.5286,-4.6106,-4.6912,-4.8608,0.0,0.0,0.0,0.0,0.0,0.0,0.0,0.0,0.0,-4.9382,-4.8558,-4.7767,-4.6869,-4.6407,-4.6419,-4.5574,-4.5112,-4.5115,-4.5195,-4.5153,-4.5072,-4.5973,-4.6403,-4.6361,0.0,0.0,0.0,-4.9871,-5.0684,-5.1385,-5.1386,-5.1359,-5.13,-5.1234,-5.1159,-5.1076,-5.0968,-5.088,-5.0919,-5.1376,-5.1628,-5.1705,-5.1662,-5.2527,-5.3346,-5.2537,-5.3301,-5.4167,-5.3256,-5.3651,-5.4235,-5.4037,-5.3944,-5.3943,-5.4017,-5.4131,-5.4203,-5.4221,-5.4326,-5.4392,-5.4409,-5.434,-5.4343,-5.4392,-5.434,-5.434,-5.4489,-5.4625,-5.4736,-5.489,-5.486,-5.4845,-5.4897,-5.5113,-5.5236,-5.5301,-5.5497,-5.6066,-5.7058,-5.7734,-5.8179,-5.8402,-5.9901,-6.0364,-5.9714,-6.1379,-6.2578,-6.34,-6.4405,-6.6136,-5.1849,-5.2289,-5.2073,-5.1265,-4.9683,-4.7582,-4.4619,0.0,-4.1119,-3.9056,-3.8273,-3.7775,-3.7137,-3.6617,-3.6421,-3.6766,-3.7479,0.0,-4.1423,-4.3634,-4.5312,-4.6125,0.0,0.0,0.0,0.0,0.0,0.0,0.0,0.0,0.0,-4.7939,-4.7658,-4.6802,-4.5943,-4.5283,-4.4746,-4.4403,-4.4211,-4.4211,-4.4761,-4.4956,-4.4913,-4.5812,-4.6519,-4.7029,0.0,0.0,0.0,-5.0523,-5.1056,-5.1347,-5.1356,-5.1307,-5.1261,-5.1125,-5.1101,-5.1076,-5.085,-5.0729,-5.0702,-5.0867,-5.086,-5.0959,-5.1788,-5.203,-5.1895,-5.1458,-5.243,-5.3314,-5.2335,-5.3048,-5.4,-5.4,-5.3907,-5.3813,-5.3907,-5.4,-5.4109,-5.42,-5.4375,-5.4439,-5.4409,-5.4426,-5.4426,-5.4409,-5.4426,-5.4422,-5.4505,-5.4673,-5.4767,-5.4829,-5.486,-5.4905,-5.4941,-5.5085,-5.5183,-5.5339,-5.5947,-5.6779,-5.7779,-5.8137,-5.8781,-5.981,-6.0068,-6.0222,-6.0349,-6.1632,-6.2667,-6.3505,-6.4436,-6.5975,-5.0414,-5.0818,-5.0615,-5.0039,-4.8307,-4.6091,0.0,0.0,-4.0244,-3.8784,-3.8469,-3.8088,-3.7124,-3.6825,-3.6385,-3.5249,-3.5975,-3.7129,-3.8478,-4.0685,-4.2388,0.0,0.0,0.0,0.0,0.0,0.0,0.0,0.0,0.0,0.0,-4.6303,-4.6372,-4.5558,-4.4933,-4.431,-4.3729,-4.3425,-4.3426,-4.3693,-4.4315,-4.4735,-4.4911,-4.5816,-4.6679,-4.75,0.0,0.0,0.0,-5.0937,-5.124,-5.0987,-5.1218,-5.1292,-5.1296,-5.1092,-5.1024,-5.1011,-5.0833,-5.0673,-5.0604,-5.0768,-5.0677,-5.0672,-5.1757,-5.1557,-5.0912,-5.0591,-5.133,-5.2163,-5.1895,-5.2642,-5.3497,-5.3851,-5.385,-5.385,-5.3963,-5.4074,-5.4127,-5.429,-5.4392,-5.4455,-5.4426,-5.4405,-5.4422,-5.4409,-5.4422,-5.4472,-5.4505,-5.4673,-5.4783,-5.4829,-5.4875,-5.4912,-5.5,-5.5099,-5.5183,-5.5339,-5.6026,-5.6939,-5.8204,-5.8264,-5.905,-6.0734,-6.0227,-6.0238,-6.0757,-6.1917,-6.281,-6.3461,-6.4602,-6.6101,-4.7985,-4.9013,-4.9398,-4.8856,-4.76,-4.5888,0.0,0.0,-3.9418,-3.8658,-3.7983,-3.7537,-3.7681,-3.7195,-3.6584,-3.5901,-3.5289,-3.5561,-3.7462,-3.724,0.0,0.0,0.0,0.0,0.0,0.0,0.0,0.0,0.0,0.0,0.0,-4.4552,-4.4629,-4.3764,-4.3725,-4.372,-4.3708,-4.283,-4.2833,-4.3681,-4.371,-4.4129,-4.4936,-4.5783,-4.6622,0.0,0.0,0.0,0.0,-5.0678,-5.0891,-5.0173,-5.1005,-5.1292,-5.1261,-5.1141,-5.1024,-5.092,-5.0913,-5.073,-5.0604,-5.1331,-5.1408,-5.1161,-5.106,-5.1017,-5.0813,-4.9948,-5.0069,-5.077,-5.2215,-5.2605,-5.2809,-5.3548,-5.3754,-5.385,-5.3963,-5.4074,-5.4127,-5.429,-5.434,-5.4409,-5.4409,-5.434,-5.4343,-5.4392,-5.4409,-5.4443,-5.4505,-5.4625,-5.4752,-5.4867,-5.492,-5.4912,-5.5,-5.5102,-5.521,-5.5313,-5.539,-5.6217,-5.8016,-5.8153,-5.8959,-6.0585,-6.0722,-6.0757,-6.0697,-6.2509,-6.3341,-6.3358,-6.5145,-6.6904,-4.6038,-4.5949,-4.5416,-4.541,-4.3868,-4.2155,-4.1542,0.0,-3.8692,-3.8425,-3.8282,-3.7873,-3.686,-3.6611,-3.6233,-3.5071,-3.4829,0.0,0.0,0.0,0.0,0.0,0.0,0.0,0.0,0.0,0.0,0.0,0.0,0.0,0.0,-4.3085,-4.3081,-4.2834,-4.2824,-4.2541,-4.1913,-4.1646,-4.1956,-4.2804,-4.3375,-4.4094,-4.4922,-4.5749,0.0,0.0,0.0,0.0,0.0,-5.0891,-5.0859,-5.0063,-5.0368,-5.0782,-5.1144,-5.0442,-5.0467,-5.0827,-5.0782,-5.0576,-5.0417,-5.0669,-5.0617,-5.043,-5.0241,-5.0485,-5.0695,-5.0226,-5.0226,-5.0572,-5.1527,-5.2197,-5.2679,-5.294,-5.3404,-5.3683,-5.3309,-5.3251,-5.3155,-5.268,-5.3119,-5.3599,-5.3599,-5.4016,-5.4392,-5.4455,-5.4559,-5.4625,-5.4705,-5.4807,-5.4912,-5.4956,-5.5057,-5.5113,-5.5085,-5.513,-5.521,-5.5313,-5.5874,-5.6792,-5.8054,-5.8654,-5.9484,-6.066,-6.0648,-6.0992,-6.1642,-6.2708,-6.3835,-6.5128,-6.6909,-6.7987,-4.3819,-4.3622,-4.3036,-4.3288,-4.184,0.0,0.0,-3.94,-3.832,-3.832,-3.8145,-3.765,-3.6501,-3.6136,-3.5647,-3.4582,-3.4277,0.0,0.0,0.0,0.0,0.0,0.0,0.0,0.0,0.0,0.0,0.0,0.0,0.0,0.0,0.0,-4.2263,-4.1939,-4.1927,-4.164,-4.1074,-4.1083,-4.17,-4.2844,-4.3347,-4.4214,-4.5326,-4.5852,0.0,0.0,0.0,0.0,0.0,-5.035,-5.0158,-4.9071,-4.9788,-5.0127,-5.0204,-5.0246,-5.0269,-5.0361,-5.0613,-5.0525,-5.0321,-5.0329,-5.0163,-4.9969,-5.0113,-5.0161,-5.0108,-4.9915,-5.0053,-5.0482,-5.1157,-5.1937,-5.2698,-5.3014,-5.3498,-5.3684,-5.3063,-5.2948,-5.2833,-5.2411,-5.2815,-5.3299,-5.3599,-5.4071,-5.4426,-5.4455,-5.4625,-5.4736,-5.4752,-5.4852,-5.4971,-5.5,-5.5085,-5.5116,-5.5154,-5.5222,-5.5275,-5.5352,-5.6129,-5.7009,-5.7979,-5.8834,-5.9703,-6.0585,-6.061,-6.107,-6.194,-6.3066,-6.4411,-6.5936,-6.7321,-6.7937,0.0,-4.1801,-4.1828,-4.2031,-4.1039,-4.0056,-4.0203,-3.9173,0.0,-3.8279,-3.7692,-3.7004,-3.6434,-3.5648,-3.4905,-3.4253,0.0,0.0,0.0,0.0,0.0,0.0,0.0,0.0,0.0,0.0,0.0,0.0,0.0,0.0,0.0,0.0,-4.1949,-4.1119,-4.1112,-4.1051,-4.099,-4.1134,-4.1983,-4.3607,-4.3665,-4.4491,-4.6002,-4.6061,0.0,0.0,0.0,0.0,0.0,-4.921,-4.8907,-4.7544,-4.9157,-4.9284,-4.8743,-5.0196,-5.0201,-4.9572,-5.0352,-5.0497,-5.0321,-5.0271,-4.9999,-4.9814,-5.0416,-5.0006,-4.9295,-4.9152,-4.966,-5.0371,-5.0991,-5.1807,-5.2661,-5.3441,-5.3777,-5.3757,-5.3075,-5.2922,-5.2919,-5.3003,-5.3074,-5.332,-5.4108,-5.4334,-5.4409,-5.4409,-5.4625,-5.4752,-5.4613,-5.4776,-5.4897,-5.4985,-5.5,-5.5071,-5.5183,-5.5364,-5.5479,-5.5479,-5.6243,-5.7084,-5.7963,-5.8821,-5.9639,-6.0398,-6.0713,-6.1198,-6.1806,-6.3679,-6.5051,-6.6,-6.6821,-6.7205,-3.9155,0.0,-3.8702,-3.8923,-3.8618,-3.8331,0.0,-3.8325,-3.7872,-3.7291,-3.7201,-3.679,-3.5469,-3.476,0.0,0.0,0.0,0.0,0.0,0.0,0.0,0.0,0.0,0.0,0.0,0.0,0.0,0.0,0.0,0.0,0.0,0.0,-4.1328,-4.1119,-4.1112,-4.1051,-4.099,-4.1675,-4.2552,-4.3592,-4.4202,-4.5031,-4.5997,-4.5964,0.0,0.0,0.0,0.0,-4.7411,-4.8476,-4.8341,-4.7417,-4.7722,-4.8093,-4.8425,-4.8132,-4.8569,-4.9413,-4.9732,-5.0057,-5.0259,-5.0114,-4.9879,-4.9715,-4.9815,-4.9686,-4.9427,-4.923,-4.9363,-4.9699,-5.0333,-5.0703,-5.1108,-5.1929,-5.2656,-5.297,-5.2231,-5.2098,-5.1911,-5.1307,-5.1731,-5.2252,-5.2394,-5.3532,-5.4409,-5.4409,-5.4489,-5.4603,-5.4752,-5.4799,-5.4875,-5.4985,-5.5,-5.5071,-5.5183,-5.5898,-5.632,-5.632,-5.7122,-5.7963,-5.8803,-5.9088,-5.9639,-6.0533,-6.1902,-6.2656,-6.27,-6.4575,-6.5882,-6.6699,-6.7653,-6.841,-3.8159,-3.7612,-3.7166,-3.7341,-3.7358,-3.7284,-3.7074,-3.7308,-3.7327,-3.6564,-3.6251,-3.5908,-3.5103,-3.5122,0.0,0.0,0.0,0.0,0.0,0.0,0.0,0.0,0.0,0.0,0.0,0.0,0.0,0.0,0.0,0.0,0.0,0.0,-4.1132,-4.1119,-4.1108,-4.123,-4.1536,-4.2039,-4.2914,-4.4118,-4.4569,-4.5216,-4.6019,-4.5947,-4.6201,0.0,0.0,0.0,-4.6752,-4.7565,-4.7681,-4.7311,-4.7191,-4.7397,-4.775,-4.7689,-4.8124,-4.8827,-4.9296,-4.9823,-5.02,-4.9973,-4.9821,-4.9678,-4.9604,-4.9762,-4.9921,-4.9741,-5.0179,-5.0815,-5.1246,-5.134,-5.145,-5.2076,-5.226,-5.2108,-5.142,-5.1303,-5.119,-5.074,-5.1303,-5.1978,-5.239,-5.3515,-5.4357,-5.4409,-5.4559,-5.4689,-5.4783,-5.486,-5.4897,-5.4985,-5.5028,-5.5223,-5.566,-5.6635,-5.7008,-5.6625,-5.7772,-5.8651,-5.9057,-5.9599,-6.0239,-6.1121,-6.2399,-6.3239,-6.3618,-6.5416,-6.6546,-6.6968,-6.796,-6.8602,-3.7703,-3.72,-3.6835,-3.683,-3.6736,-3.6564,-3.6007,-3.6406,-3.6644,-3.5887,-3.5221,-3.4852,-3.5193,-3.5549,0.0,0.0,0.0,0.0,0.0,0.0,0.0,0.0,0.0,0.0,0.0,0.0,0.0,0.0,0.0,0.0,0.0,0.0,0.0,-4.1116,-4.1216,-4.1635,-4.2373,-4.2451,-4.3212,-4.4716,-4.4905,-4.5327,-4.5997,-4.5991,-4.598,0.0,0.0,0.0,-4.6036,-4.6661,-4.6943,-4.6971,-4.6936,-4.6862,-4.6899,-4.7756,-4.8081,-4.8221,-4.9163,-4.9822,-5.0188,-4.9931,-4.9778,-4.9692,-4.9619,-5.0016,-5.0459,-5.0362,-5.1267,-5.2308,-5.2438,-5.2289,-5.2178,-5.2469,-5.1996,-5.1337,-5.081,-5.082,-5.0879,-5.0879,-5.149,-5.2244,-5.304,-5.3815,-5.4323,-5.4392,-5.4592,-5.4752,-5.4783,-5.4852,-5.4941,-5.4985,-5.5028,-5.5399,-5.6244,-5.7253,-5.7592,-5.7008,-5.8446,-5.9286,-5.93,-6.0378,-6.1223,-6.176,-6.2672,-6.3523,-6.4307,-6.6026,-6.6978,-6.7201,-6.8152,-6.8641,-3.688,-3.7373,-3.7861,-3.7091,-3.6338,-3.5812,-3.5882,-3.6048,-3.5933,-3.5126,-3.4536,-3.4605,-3.6091,-3.3792,-3.2323,0.0,0.0,0.0,0.0,0.0,0.0,0.0,0.0,0.0,0.0,0.0,0.0,0.0,0.0,0.0,0.0,0.0,0.0,-4.1099,-4.1779,-4.25,-4.3272,-4.3306,-4.3811,-4.4787,-4.5502,-4.5875,-4.5997,-4.5929,-4.5929,0.0,0.0,-4.5996,-4.5986,-4.6016,-4.6035,-4.6087,-4.6032,-4.5936,-4.594,-4.678,-4.7527,-4.8327,-4.9803,-5.0374,-5.0412,-5.0063,-4.9903,-4.9764,-4.9634,-4.9984,-5.0426,-5.0459,-5.1065,-5.1743,-5.176,-5.1289,-5.0817,-5.085,-5.0858,-5.081,-5.0729,-5.1255,-5.1705,-5.1705,-5.2419,-5.2986,-5.3031,-5.3778,-5.4392,-5.4409,-5.4443,-5.4543,-5.4767,-5.4651,-5.4667,-5.4882,-5.489,-5.5276,-5.6302,-5.7144,-5.7939,-5.8675,-5.9612,-6.0146,-6.0179,-6.1753,-6.2331,-6.1718,-6.3329,-6.4211,-6.4307,-6.6026,-6.7271,-6.8052,-6.8929,-6.9725,-3.6698,-3.6433,-3.6343,-3.701,-3.7562,-3.7771,-3.6961,-3.7476,-3.7558,-3.5416,-3.4833,-3.4833,0.0,0.0,-3.5172,-3.7927,0.0,0.0,0.0,0.0,0.0,0.0,0.0,0.0,0.0,0.0,0.0,0.0,0.0,0.0,0.0,0.0,0.0,0.0,-4.2106,-4.2921,-4.4205,-4.4156,-4.4588,-4.538,-4.5809,-4.5964,-4.5929,-4.5899,-4.5932,-4.5944,0.0,-4.5841,-4.5893,-4.5814,-4.6063,-4.6426,-4.5951,-4.5965,-4.6416,-4.721,-4.8068,-4.8952,-5.0035,-5.0424,-5.0401,-5.005,-4.9893,-4.9835,-4.9648,-5.0031,-5.0563,-5.0459,-5.0905,-5.1526,-5.2062,-5.124,-5.042,-5.0919,-5.0476,-4.9952,-4.9952,-5.0284,-5.0616,-5.0616,-5.1581,-5.2444,-5.2494,-5.3545,-5.4443,-5.4543,-5.4592,-5.4657,-5.4783,-5.473,-5.4761,-5.4905,-5.5337,-5.6004,-5.6905,-5.783,-5.893,-6.0299,-6.0771,-6.1043,-6.1114,-6.2299,-6.2787,-6.2448,-6.3671,-6.47,-6.5612,-6.6931,-6.8024,-6.8867,-6.984,-7.0459,-3.6223,-3.5544,-3.5111,-3.653,-3.7706,-3.8442,-3.7978,-3.8456,-3.8366,-3.6236,-3.5614,-3.5342,0.0,-3.6092,0.0,0.0,0.0,0.0,0.0,0.0,0.0,0.0,0.0,0.0,0.0,0.0,0.0,0.0,0.0,0.0,0.0,0.0,0.0,0.0,-4.2461,-4.3292,-4.4768,-4.4929,-4.5298,-4.5925,-4.5968,-4.5935,-4.5911,-4.5912,-4.5906,-4.5906,-4.5827,-4.5807,-4.5814,-4.5817,-4.6174,-4.6661,-4.5997,-4.6235,-4.702,-4.7548,-4.8462,-4.95,-4.9931,-5.021,-5.0356,-5.0038,-4.992,-4.9852,-4.9692,-4.9995,-5.0359,-5.0279,-5.046,-5.0916,-5.1897,-5.1152,-5.0353,-5.1111,-5.026,-4.9364,-4.9551,-4.9674,-4.9775,-4.9806,-5.1072,-5.2198,-5.2375,-5.3564,-5.4543,-5.4689,-5.4752,-5.4799,-5.4814,-5.4875,-5.492,-5.492,-5.5753,-5.6724,-5.7726,-5.8749,-6.0041,-6.169,-6.1855,-6.1913,-6.1969,-6.2973,-6.3475,-6.3422,-6.4154,-6.5244,-6.6774,-6.7682,-6.8584,-6.9404,-7.0388,-7.0829,-3.479,-3.5235,-3.5715,-3.5432,-3.482,-3.5101,-3.8252,-3.7387,-3.6273,-3.7604,-3.6836,-3.6163,-3.6847,-3.6649,0.0,0.0,0.0,0.0,0.0,0.0,0.0,0.0,0.0,0.0,0.0,0.0,0.0,0.0,0.0,0.0,0.0,0.0,0.0,0.0,0.0,-4.3816,-4.4681,-4.5497,-4.5947,-4.5991,-4.5923,-4.5911,-4.5911,-4.5912,-4.5919,-4.5905,-4.5834,-4.5827,-4.5893,-4.5814,-4.5817,-4.5865,-4.5817,-4.6305,-4.7071,-4.7061,-4.8107,-4.9489,-4.9462,-4.988,-5.0367,-5.0139,-4.9986,-4.9866,-4.9821,-4.9671,-4.9505,-4.9694,-4.9524,-4.9437,-5.0359,-5.0451,-5.0393,-5.0551,-4.991,-4.9514,-5.0247,-5.0488,-5.0574,-5.0695,-5.2043,-5.3225,-5.3299,-5.4116,-5.4767,-5.4783,-5.4783,-5.4814,-5.489,-5.492,-5.492,-5.492,-5.5753,-5.6966,-5.8676,-5.9712,-6.0991,-6.2597,-6.2771,-6.2815,-6.2815,-6.4417,-6.4987,-6.4304,-6.5095,-6.5977,-6.6897,-6.7629,-6.8487,-6.9404,-7.0249,-7.0647,-3.4375,-3.483,-3.5271,-3.5229,-3.4657,-3.5142,-3.9059,-3.8947,-3.7904,-3.7491,-3.7491,-3.7224,-3.6103,0.0,0.0,0.0,0.0,0.0,0.0,0.0,0.0,0.0,0.0,0.0,0.0,0.0,0.0,0.0,0.0,0.0,0.0,0.0,0.0,0.0,0.0,-4.3117,-4.3938,-4.4738,-4.5142,-4.5186,-4.5702,-4.6228,-4.6687,-4.6112,-4.613,-4.6619,-4.6056,-4.5803,-4.5795,-4.5852,-4.5831,-4.5789,-4.6306,-4.7331,-4.851,-4.7918,-4.8739,-5.0106,-4.9548,-4.9782,-5.0379,-5.02,-5.0089,-5.0024,-4.9848,-4.9707,-4.9604,-4.9619,-4.9468,-4.9466,-5.0223,-5.0379,-5.044,-5.0944,-5.0882,-5.0667,-5.048,-5.0476,-5.0611,-5.0785,-5.1757,-5.273,-5.3299,-5.417,-5.4799,-5.4799,-5.4875,-5.4927,-5.4956,-5.5,-5.5014,-5.4956,-5.6244,-5.8014,-6.0251,-6.0836,-6.1811,-6.3421,-6.3153,-6.3136,-6.3676,-6.4867,-6.5154,-6.4419,-6.5723,-6.6538,-6.684,-6.8195,-6.9068,-6.9404,-7.0256,-7.0678,-3.4366,-3.4287,-3.4403,-3.5446,-3.4624,-3.4709,-3.9223,-3.9276,-3.8375,-3.8319,-3.8331,-3.7833,-3.6342,0.0,0.0,0.0,0.0,0.0,0.0,0.0,0.0,0.0,0.0,0.0,0.0,0.0,0.0,0.0,0.0,0.0,0.0,0.0,0.0,0.0,0.0,-4.3014,-4.3899,-4.4372,-4.4775,-4.5109,-4.5691,-4.6248,-4.6731,-4.6078,-4.6126,-4.6653,-4.6066,-4.5773,-4.575,-4.5845,-4.58,-4.5796,-4.6344,-4.7284,-4.824,-4.7598,-4.8265,-4.9336,-4.875,-4.9046,-4.9647,-4.9778,-4.9758,-4.967,-4.9551,-4.9603,-4.9655,-4.939,-4.9348,-4.9496,-4.9985,-5.0223,-5.0532,-5.1301,-5.1521,-5.1476,-5.0949,-5.0663,-5.0515,-5.0508,-5.1367,-5.234,-5.2991,-5.4088,-5.4875,-5.4875,-5.4927,-5.4985,-5.4971,-5.5256,-5.5679,-5.6183,-5.7291,-5.8857,-6.089,-6.1347,-6.2154,-6.3566,-6.3435,-6.3671,-6.4532,-6.5441,-6.5537,-6.4803,-6.6385,-6.7137,-6.6869,-6.8272,-6.9076,-6.9359,-6.9957,-7.0364,-3.4621,-3.3665,-3.323,-3.6073,-3.4335,-3.3306,-3.851,-3.7743,-3.6933,-4.0463,-3.9433,-3.7924,-3.8061,-3.8041,0.0,0.0,0.0,0.0,0.0,0.0,0.0,0.0,0.0,0.0,0.0,0.0,0.0,0.0,0.0,0.0,0.0,0.0,0.0,0.0,0.0,0.0,-4.4753,-4.4727,-4.5138,-4.5958,-4.5932,-4.588,-4.5807,-4.5803,-4.581,-4.58,-4.5803,-4.5788,-4.5788,-4.5786,-4.5807,-4.5807,-4.5807,-4.5817,-4.5827,-4.5831,-4.626,-4.6917,-4.6917,-4.7366,-4.8102,-4.8709,-4.8919,-4.8896,-4.8834,-4.9232,-4.9584,-4.8905,-4.9051,-4.9415,-4.9415,-4.9937,-5.068,-5.1418,-5.1588,-5.1643,-5.1765,-5.1145,-5.0434,-4.9924,-5.111,-5.2273,-5.2451,-5.3898,-5.5,-5.5,-5.5,-5.4971,-5.4935,-5.5715,-5.6966,-5.8714,-5.8919,-5.9291,-6.0241,-6.1129,-6.2013,-6.2877,-6.3732,-6.4573,-6.5375,-6.6292,-6.6404,-6.5632,-6.7208,-6.7659,-6.7009,-6.7638,-6.8403,-6.9322,-6.9244,-6.9655,-3.277,-3.3739,-3.4474,-3.425,-3.4899,-3.5995,-3.7683,-3.7516,-3.7664,-4.0139,-3.9205,-3.7998,-3.8157,-3.867,0.0,0.0,0.0,0.0,0.0,0.0,0.0,0.0,0.0,0.0,0.0,0.0,0.0,0.0,0.0,0.0,0.0,0.0,0.0,0.0,0.0,0.0,-4.2101,-4.3181,-4.3865,-4.4098,-4.5272,-4.6141,-4.6689,-4.6073,-4.6128,-4.6607,-4.5982,-4.5743,-4.5743,-4.5719,-4.6136,-4.6714,-4.6661,-4.7001,-4.7473,-4.6775,-4.7041,-4.7717,-4.6992,-4.7289,-4.8039,-4.8754,-4.8955,-4.9011,-4.948,-4.9687,-4.9683,-4.9504,-4.9504,-4.9559,-4.9604,-5.0115,-5.0649,-5.0725,-5.1663,-5.2258,-5.1249,-5.1281,-5.134,-5.077,-5.104,-5.1758,-5.299,-5.3693,-5.4253,-5.4761,-5.4971,-5.5313,-5.595,-5.624,-5.7054,-5.8763,-5.8904,-5.9688,-6.188,-6.2208,-6.2971,-6.4482,-6.4825,-6.5116,-6.5465,-6.5747,-6.6045,-6.6442,-6.7558,-6.798,-6.7697,-6.9115,-6.9604,-6.9228,-6.9785,-7.0157,-3.382,-3.4388,-3.4562,-3.545,-3.616,-3.6998,-3.8251,-3.8575,-3.8947,-4.0164,-3.9446,-3.8697,-3.9128,-3.9381,0.0,0.0,0.0,0.0,0.0,0.0,0.0,0.0,0.0,0.0,0.0,0.0,0.0,0.0,0.0,0.0,0.0,0.0,0.0,0.0,0.0,0.0,-4.2471,-4.3402,-4.4008,-4.4337,-4.53,-4.6043,-4.653,-4.6005,-4.5835,-4.5974,-4.5109,-4.4954,-4.5225,-4.487,-4.524,-4.6095,-4.6036,-4.6337,-4.6777,-4.6483,-4.675,-4.7178,-4.7002,-4.6934,-4.7148,-4.8552,-4.8624,-4.8274,-4.8859,-4.9121,-4.9183,-4.8913,-4.9207,-4.9634,-4.9648,-4.9981,-5.0325,-5.0504,-5.1765,-5.266,-5.1448,-5.1866,-5.2316,-5.163,-5.1773,-5.2317,-5.3436,-5.3949,-5.4396,-5.4874,-5.5028,-5.5545,-5.6768,-5.6892,-5.7677,-5.974,-5.9619,-6.019,-6.2109,-6.2597,-6.3223,-6.4268,-6.5016,-6.5597,-6.5947,-6.6262,-6.6544,-6.684,-6.7944,-6.8365,-6.8089,-6.903,-6.9403,-6.9196,-6.9628,-7.0014,-3.627,-3.5262,-3.4192,-3.8277,-3.7834,-3.707,-3.9726,-4.0368,-4.0436,-4.0508,0.0,-3.9779,-4.0653,0.0,0.0,0.0,0.0,0.0,0.0,0.0,0.0,0.0,0.0,0.0,0.0,0.0,0.0,0.0,0.0,0.0,0.0,0.0,0.0,0.0,0.0,0.0,-4.4483,-4.4605,-4.5034,0.0,-4.5672,-4.565,-4.5573,-4.5688,-4.5318,-4.4576,-4.3761,-4.3852,-4.451,-4.3593,-4.3754,-4.4555,-4.445,-4.4467,-4.4699,-4.5315,-4.5611,-4.5817,-4.6728,-4.6359,-4.5916,-4.8148,-4.8078,-4.714,-4.7577,-4.8036,-4.8256,-4.7666,-4.8493,-4.9602,-4.9604,-4.9634,-4.9822,-5.0476,-5.1797,-5.2698,-5.1984,-5.258,-5.3081,-5.2454,-5.2885,-5.3474,-5.3756,-5.4392,-5.4952,-5.5061,-5.5151,-5.5812,-5.7411,-5.7677,-5.8667,-6.105,-6.0768,-6.0737,-6.1552,-6.2524,-6.3117,-6.3136,-6.4666,-6.5944,-6.6705,-6.7375,-6.7499,-6.7113,-6.8356,-6.8798,-6.8387,-6.8149,-6.845,-6.9278,-6.9091,-6.9565,-3.3399,-3.4909,0.0,-3.7487,-3.8621,-3.9618,-4.0241,-4.0469,-4.0576,-4.06,-4.0493,-4.05,0.0,0.0,0.0,0.0,0.0,0.0,0.0,0.0,0.0,0.0,0.0,0.0,0.0,0.0,0.0,0.0,0.0,0.0,0.0,0.0,0.0,0.0,0.0,-4.2549,-4.2752,-4.404,-4.4414,0.0,-4.5153,-4.5425,-4.48,-4.5426,-4.5634,-4.5471,-4.4599,-4.4337,-4.4428,-4.355,-4.3624,-4.4221,-4.3677,-4.4327,-4.5363,-4.4145,-4.4546,-4.5626,-4.5111,-4.5636,-4.6666,-4.7733,-4.7837,-4.7743,-4.8351,-4.8112,-4.7691,-4.8102,-4.8381,-4.8775,-4.9439,-4.9582,-4.9604,-4.9845,-5.0606,-5.1252,-5.1141,-5.1873,-5.2492,-5.2413,-5.2561,-5.293,-5.3623,-5.3893,-5.4306,-5.4985,-5.5684,-5.6511,-5.7558,-5.8282,-5.9159,-6.0417,-6.0906,-6.1545,-6.2504,-6.3329,-6.4138,-6.4891,-6.5244,-6.5877,-6.6915,-6.7002,-6.7508,-6.8537,-6.8935,-6.936,-6.9773,-6.9802,-6.9828,-6.9827,-6.9933,-7.0476,-3.3895,-3.4931,0.0,-3.753,0.0,-4.0411,-4.0477,-4.0559,-4.0654,-4.0654,-4.0391,0.0,0.0,0.0,0.0,0.0,0.0,0.0,0.0,0.0,0.0,0.0,0.0,0.0,0.0,0.0,0.0,0.0,0.0,0.0,0.0,0.0,0.0,0.0,-4.2611,-4.3214,-4.4015,-4.4905,-4.5052,-4.4531,-4.5413,-4.5353,-4.4555,-4.4537,-4.4544,-4.4601,-4.329,-4.2929,-4.3213,-4.2314,-4.2444,-4.3104,-4.2686,-4.3096,-4.3921,-4.4222,-4.4575,-4.4966,-4.5518,-4.5907,-4.6397,-4.7444,-4.7253,-4.6679,-4.745,-4.7226,-4.6909,-4.7607,-4.8093,-4.8593,-4.9273,-4.9514,-4.9627,-4.9634,-5.0237,-5.0855,-5.0885,-5.1941,-5.287,-5.2914,-5.3299,-5.376,-5.4244,-5.4392,-5.4728,-5.5607,-5.6102,-5.6854,-5.8144,-5.873,-5.9493,-6.0737,-6.0889,-6.1453,-6.2756,-6.3244,-6.39,-6.4823,-6.5671,-6.6489,-6.7331,-6.7791,-6.8319,-6.9043,-6.9027,-6.94,-7.0261,-6.9819,-6.9766,-7.0003,-7.053,-7.1037,-3.4797,-3.5034,-3.4843,-3.8223,-3.9771,0.0,-4.0581,-4.0674,-4.0707,-4.0739,0.0,0.0,0.0,0.0,0.0,0.0,0.0,0.0,0.0,0.0,0.0,0.0,0.0,0.0,0.0,0.0,0.0,0.0,0.0,0.0,0.0,0.0,-4.1846,-4.3248,-4.3569,-4.437,-4.577,-4.5797,-4.5652,-4.5486,-4.5422,-4.5105,-4.4583,-4.382,-4.3433,-4.3298,-4.1867,-4.15,-4.1957,-4.1163,-4.1303,-4.2012,-4.1724,-4.1809,-4.2372,-4.4145,-4.4397,-4.4081,-4.5719,-4.5975,-4.5781,-4.7002,-4.6506,-4.554,-4.6168,-4.6149,-4.6102,-4.6876,-4.772,-4.8527,-4.9189,-4.9544,-4.9692,-4.9634,-5.0266,-5.09,-5.0885,-5.2167,-5.3309,-5.346,-5.4193,-5.4875,-5.5,-5.5171,-5.5541,-5.6293,-5.6621,-5.7335,-5.8792,-5.915,-5.976,-6.1148,-6.09,-6.1182,-6.2673,-6.3059,-6.3614,-6.452,-6.5862,-6.7034,-6.7976,-6.8661,-6.9145,-6.9352,-6.915,-6.9447,-7.0261,-6.9447,-6.9469,-7.0231,-7.0837,-7.1385,-3.2337,0.0,-3.7518,0.0,-4.0369,-4.0588,0.0,0.0,-4.0808,0.0,0.0,0.0,0.0,0.0,0.0,0.0,0.0,0.0,0.0,0.0,0.0,0.0,0.0,0.0,0.0,0.0,0.0,0.0,0.0,0.0,0.0,-4.1678,-4.2179,-4.2447,-4.3826,-4.4655,-4.4865,-4.4855,-4.4482,-4.3724,-4.3718,-4.4056,-4.4691,-4.4499,-4.4021,-4.3286,-4.3001,-4.2549,-4.1994,-4.1805,-4.1907,-4.2092,-4.1123,-4.1894,-4.3349,-4.1839,-4.2101,-4.3181,-4.2833,-4.3975,-4.5627,-4.5755,-4.6099,-4.6396,-4.6271,-4.5767,-4.5504,-4.6736,-4.7264,-4.7786,-4.9175,-4.9619,-4.9707,-4.9764,-5.0325,-5.0885,-5.09,-5.1729,-5.2681,-5.3361,-5.4254,-5.4912,-5.5071,-5.5607,-5.6133,-5.6354,-5.7604,-5.8608,-5.8983,-5.9684,-6.0232,-6.0509,-6.1096,-6.1793,-6.2711,-6.355,-6.4672,-6.6106,-6.5779,-6.6536,-6.8836,-6.8264,-6.8689,-7.0358,-7.0192,-7.0103,-7.0147,-7.0103,-7.0431,-7.1104,-7.0659,-7.155,-3.3057,-3.558,-3.8042,0.0,-4.0452,-4.0612,-4.0629,0.0,0.0,0.0,0.0,0.0,0.0,0.0,0.0,0.0,0.0,0.0,0.0,0.0,0.0,0.0,0.0,0.0,0.0,0.0,0.0,0.0,0.0,0.0,-4.1716,-4.249,-4.317,-4.3699,-4.4404,-4.4965,-4.5431,-4.5442,-4.5231,-4.4799,-4.435,-4.409,-4.4012,-4.3967,-4.3969,-4.3983,-4.2976,-4.2337,-4.1983,-4.1988,-4.1735,-4.1342,-4.1301,-4.1532,-4.1909,-4.1416,-4.167,-4.2423,-4.3079,-4.3978,-4.487,-4.5295,-4.5628,-4.5769,-4.5601,-4.5276,-4.5166,-4.6087,-4.6769,-4.7521,-4.8543,-4.9265,-4.9721,-4.9792,-5.0043,-5.0279,-5.0279,-5.1336,-5.247,-5.3346,-5.4678,-5.5677,-5.5707,-5.6375,-5.6945,-5.7019,-5.7985,-5.8813,-5.8968,-5.9716,-6.0241,-6.037,-6.1134,-6.1922,-6.2771,-6.3679,-6.4672,-6.581,-6.6325,-6.7109,-6.8313,-6.8807,-6.9476,-7.04,-7.022,-7.0167,-7.0223,-7.057,-7.0951,-7.1294,-7.2012,-7.2904,0.0,0.0,-3.6905,-3.9112,-3.9807,-4.0104,0.0,0.0,0.0,0.0,0.0,0.0,0.0,0.0,0.0,0.0,0.0,0.0,0.0,0.0,0.0,0.0,0.0,0.0,0.0,0.0,0.0,0.0,0.0,0.0,-4.2256,-4.3038,-4.3797,-4.4453,-4.487,-4.5287,-4.5709,-4.5709,-4.5459,-4.4971,-4.4799,-4.4194,-4.3194,-4.3774,-4.4155,-4.4183,-4.2873,-4.2318,-4.2318,-4.2085,-4.1756,-4.1349,-4.1462,-4.1239,-4.0885,-4.1277,-4.1569,-4.1937,-4.3235,-4.3892,-4.4259,-4.4882,-4.5125,-4.5159,-4.5045,-4.4962,-4.5004,-4.5556,-4.6355,-4.7143,-4.7776,-4.8691,-4.9462,-4.949,-4.9807,-5.0185,-5.0388,-5.1389,-5.253,-5.3626,-5.4996,-5.5981,-5.6178,-5.6914,-5.7476,-5.7506,-5.8372,-5.901,-5.8978,-5.9649,-6.0226,-6.0356,-6.1134,-6.196,-6.2786,-6.3694,-6.4596,-6.555,-6.6695,-6.7521,-6.7994,-6.9157,-6.9954,-7.0289,-7.0129,-7.0167,-7.0331,-7.0704,-7.118,-7.1711,-7.281,-7.3666,0.0,-3.286,0.0,-3.7326,-3.8221,0.0,0.0,0.0,0.0,0.0,0.0,0.0,0.0,0.0,0.0,0.0,0.0,0.0,0.0,0.0,0.0,0.0,0.0,0.0,0.0,0.0,0.0,0.0,0.0,0.0,-4.2153,-4.3017,-4.3523,-4.3583,-4.5093,-4.5597,-4.4866,-4.4866,-4.4049,-4.2412,-4.4049,-4.3918,-4.234,-4.476,-4.4954,-4.3376,-4.326,-4.3247,-4.3163,-4.2356,-4.243,-4.2895,-4.1282,-4.1121,-4.1731,-4.0966,-4.1198,-4.1909,-4.1909,-4.2876,-4.4097,-4.4135,-4.4597,-4.5103,-4.5033,-4.4962,-4.5029,-4.5639,-4.5957,-4.6339,-4.6982,-4.7937,-4.8729,-4.8662,-4.9807,-5.1182,-5.2087,-5.2271,-5.2824,-5.4511,-5.492,-5.5253,-5.6124,-5.6914,-5.7415,-5.7491,-5.8874,-5.9703,-5.8995,-5.9701,-6.0308,-6.0408,-6.1134,-6.1946,-6.275,-6.3664,-6.4787,-6.6163,-6.6366,-6.7093,-6.8488,-6.8841,-6.9348,-7.0185,-7.0272,-7.0319,-7.0402,-7.0341,-7.1184,-7.2709,-7.2088,-7.3028,0.0,0.0,0.0,-3.5755,-3.7255,-3.8247,0.0,0.0,0.0,0.0,0.0,0.0,0.0,0.0,0.0,0.0,0.0,0.0,0.0,0.0,0.0,0.0,0.0,0.0,0.0,0.0,0.0,0.0,0.0,0.0,-4.3065,-4.3888,-4.4347,-4.4409,-4.5486,-4.592,-4.5653,-4.5614,-4.5274,-4.4594,-4.5274,-4.5007,-4.3868,-4.5337,-4.532,-4.4172,-4.36,-4.3021,-4.2434,-4.217,-4.188,-4.166,-4.1556,-4.1356,-4.1072,-4.0699,-4.0761,-4.1216,-4.212,-4.2805,-4.3426,-4.4475,-4.487,-4.4974,-4.495,-4.4877,-4.4801,-4.4971,-4.5437,-4.5981,-4.6361,-4.7081,-4.7878,-4.8513,-4.9511,-5.0699,-5.2134,-5.2437,-5.2788,-5.3897,-5.5041,-5.6057,-5.6861,-5.7256,-5.7491,-5.7551,-5.857,-5.9033,-5.8363,-5.9469,-6.0523,-6.1048,-6.1908,-6.2748,-6.3497,-6.4321,-6.4997,-6.5508,-6.6418,-6.7049,-6.7372,-6.8772,-6.9793,-7.0299,-7.0791,-7.1073,-7.1159,-7.1553,-7.2336,-7.3495,-7.3798,-7.4426,-3.1674,-3.2045,-3.2511,0.0,0.0,-3.6716,0.0,0.0,0.0,0.0,0.0,0.0,0.0,0.0,0.0,0.0,0.0,0.0,0.0,0.0,0.0,0.0,0.0,0.0,0.0,0.0,0.0,0.0,0.0,0.0,-4.3529,-4.4133,-4.4712,-4.5303,-4.5004,-4.513,-4.5685,-4.5715,-4.5493,-4.5126,-4.5789,-4.5361,-4.4078,-4.5126,-4.5004,-4.3973,-4.3613,-4.3218,-4.2841,-4.2318,-4.1763,-4.1274,-4.1776,-4.1467,-4.0739,-4.0583,-4.0746,-4.1208,-4.2402,-4.2967,-4.3405,-4.4712,-4.5033,-4.4914,-4.4889,-4.4802,-4.4685,-4.4619,-4.4995,-4.545,-4.5555,-4.6412,-4.7473,-4.8464,-4.9324,-5.0285,-5.1795,-5.2289,-5.2793,-5.3903,-5.5084,-5.6124,-5.6899,-5.7301,-5.7452,-5.723,-5.8439,-5.8992,-5.7985,-5.9321,-6.0628,-6.1467,-6.2351,-6.3191,-6.3924,-6.4692,-6.5123,-6.4968,-6.6273,-6.6976,-6.6862,-6.8774,-7.0119,-7.0682,-7.123,-7.1743,-7.2315,-7.2526,-7.3059,-7.397,-7.456,-7.5034,0.0,0.0,0.0,0.0,0.0,0.0,0.0,0.0,0.0,0.0,0.0,0.0,0.0,0.0,0.0,0.0,0.0,0.0,0.0,0.0,0.0,0.0,0.0,0.0,0.0,0.0,0.0,0.0,0.0,-4.1818,-4.3485,-4.363,-4.445,-4.6167,-4.3682,-4.3167,-4.4926,-4.4908,-4.4468,-4.3685,-4.5282,-4.4909,-4.2839,-4.4209,-4.403,-4.2703,-4.3267,-4.389,-4.4383,-4.275,-4.2034,-4.197,-4.1969,-4.1493,-4.0763,-4.0658,-4.1161,-4.1971,-4.2592,-4.3291,-4.3988,-4.4741,-4.4924,-4.4852,-4.4789,-4.4726,-4.4648,-4.4619,-4.4646,-4.4685,-4.4657,-4.597,-4.7488,-4.8477,-4.9286,-5.0134,-5.1074,-5.1868,-5.2902,-5.4643,-5.5,-5.5265,-5.6139,-5.6972,-5.7282,-5.6521,-5.8573,-5.9645,-5.8006,-5.9335,-6.0714,-6.154,-6.238,-6.3161,-6.3867,-6.4769,-6.5128,-6.4781,-6.5991,-6.6862,-6.7165,-6.8812,-7.0195,-7.1332,-7.1553,-7.2353,-7.3801,-7.3152,-7.3298,-7.4137,-7.4188,-7.4698,-3.0511,0.0,0.0,0.0,0.0,0.0,0.0,0.0,0.0,0.0,0.0,0.0,0.0,0.0,0.0,0.0,0.0,0.0,0.0,0.0,0.0,0.0,0.0,0.0,0.0,0.0,0.0,0.0,-4.1128,-4.1595,-4.2689,-4.2732,-4.382,-4.6121,-4.3722,-4.3484,-4.5825,-4.4598,-4.4444,-4.5395,-4.5304,-4.517,-4.5113,-4.5546,-4.5166,-4.418,-4.3699,-4.3243,-4.2814,-4.2299,-4.1722,-4.115,-4.1081,-4.0926,-4.0694,-4.0591,-4.1046,-4.1843,-4.2565,-4.3209,-4.3802,-4.4034,-4.4006,-4.3831,-4.3857,-4.3792,-4.3813,-4.4441,-4.4578,-4.4715,-4.5413,-4.6076,-4.6923,-4.8338,-4.8908,-4.9517,-5.0973,-5.1909,-5.2821,-5.3992,-5.4648,-5.528,-5.6212,-5.605,-5.5926,-5.6387,-5.7572,-5.8234,-5.7777,-5.9159,-6.0715,-6.21,-6.2528,-6.3204,-6.452,-6.4772,-6.5098,-6.5595,-6.6484,-6.6956,-6.6916,-6.8791,-7.0612,-7.23,-7.268,-7.3231,-7.3878,-7.3778,-7.4139,-7.4904,-7.5048,-7.5271,-3.0608,-3.0629,-3.0556,-3.018,0.0,0.0,0.0,-3.5524,0.0,0.0,0.0,0.0,0.0,0.0,0.0,0.0,0.0,0.0,0.0,0.0,0.0,0.0,0.0,0.0,0.0,0.0,0.0,0.0,-4.1132,-4.1484,-4.2344,-4.2734,-4.3632,-4.5093,-4.3349,-4.3309,-4.5123,-4.4119,-4.4085,-4.5056,-4.5274,-4.5637,-4.6037,-4.5715,-4.4945,-4.3929,-4.4024,-4.334,-4.2267,-4.2904,-4.2238,-4.0846,-4.1487,-4.1551,-4.1235,-4.11,-4.1544,-4.2265,-4.2642,-4.2948,-4.3187,-4.3191,-4.3123,-4.3001,-4.2976,-4.2938,-4.3037,-4.385,-4.4301,-4.4718,-4.5329,-4.5887,-4.6493,-4.7467,-4.8226,-4.9048,-5.0088,-5.119,-5.2354,-5.3612,-5.4486,-5.5209,-5.5717,-5.5763,-5.578,-5.5946,-5.7309,-5.8148,-5.7739,-5.9145,-6.0799,-6.2357,-6.2547,-6.3166,-6.4701,-6.5084,-6.5275,-6.5275,-6.667,-6.765,-6.8012,-6.9622,-7.1331,-7.3118,-7.3441,-7.3916,-7.4466,-7.4522,-7.4789,-7.5227,-7.543,-7.5518,-3.0614,-3.0613,-3.0481,-2.9625,0.0,0.0,-3.3412,-3.4671,0.0,0.0,0.0,0.0,0.0,0.0,0.0,0.0,0.0,0.0,0.0,0.0,0.0,0.0,0.0,0.0,0.0,0.0,-4.1092,-4.1093,-4.1092,-4.1482,-4.2344,-4.3124,-4.3593,-4.3706,-4.2966,-4.2966,-4.382,-4.3673,-4.3687,-4.3921,-4.5286,-4.6031,-4.6087,-4.5304,-4.421,-4.2996,-4.4258,-4.3889,-4.2466,-4.4029,-4.3212,-4.1129,-4.2613,-4.2707,-4.1988,-4.1863,-4.2258,-4.2889,-4.2642,-4.254,-4.2503,-4.2322,-4.2249,-4.2214,-4.2107,-4.2095,-4.2322,-4.3098,-4.3992,-4.4738,-4.4903,-4.5508,-4.6164,-4.6429,-4.7517,-4.8542,-4.896,-5.0165,-5.1684,-5.3356,-5.4386,-5.4985,-5.5042,-5.5805,-5.6128,-5.5311,-5.7336,-5.8634,-5.7815,-5.9197,-6.0883,-6.2389,-6.2515,-6.312,-6.4669,-6.5577,-6.5615,-6.4722,-6.6756,-6.8518,-6.9661,-7.066,-7.2008,-7.3877,-7.3992,-7.4447,-7.5283,-7.5209,-7.5227,-7.5281,-7.5427,-7.5518,-3.0178,-3.0166,-3.0484,-2.9602,0.0,0.0,-3.0273,-3.1584,-3.301,0.0,0.0,0.0,0.0,0.0,0.0,0.0,0.0,0.0,0.0,0.0,0.0,0.0,0.0,0.0,0.0,0.0,-4.1087,-4.1085,-4.1112,-4.1468,-4.2342,-4.2569,-4.2961,-4.3672,-4.3554,-4.3866,-4.4757,-4.404,-4.4367,-4.5702,-4.5297,-4.551,-4.6185,-4.5987,-4.5402,-4.4464,-4.4694,-4.4209,-4.3301,-4.4311,-4.359,-4.2006,-4.2918,-4.2783,-4.2067,-4.1855,-4.2291,-4.2885,-4.2086,-4.2143,-4.2455,-4.1743,-4.1404,-4.1264,-4.124,-4.1204,-4.1469,-4.3038,-4.4121,-4.5004,-4.5595,-4.5546,-4.5706,-4.7363,-4.734,-4.746,-4.9442,-5.0152,-5.0901,-5.2577,-5.3579,-5.4365,-5.5029,-5.5282,-5.5372,-5.5222,-5.6744,-5.782,-5.7654,-5.9041,-6.0675,-6.2286,-6.2421,-6.3282,-6.5389,-6.5823,-6.6333,-6.7065,-6.767,-6.8562,-6.9815,-7.0057,-7.1612,-7.4638,-7.4867,-7.4981,-7.5037,-7.5227,-7.5301,-7.5281,-7.5427,-7.5518,0.0,0.0,0.0,-2.9063,0.0,0.0,0.0,-3.0715,-3.219,0.0,0.0,0.0,0.0,0.0,0.0,0.0,0.0,0.0,0.0,0.0,0.0,0.0,0.0,0.0,0.0,0.0,-4.1109,-4.1095,-4.1076,-4.1244,-4.1747,-4.217,-4.2408,-4.2381,-4.3241,-4.3906,-4.4336,-4.4365,-4.4776,-4.5614,-4.5585,-4.556,-4.5581,-4.5987,-4.5671,-4.4939,-4.5282,-4.4948,-4.4205,-4.5032,-4.4583,-4.3497,-4.377,-4.3381,-4.2633,-4.2495,-4.2659,-4.2754,-4.1867,-4.1713,-4.1819,-4.0929,-4.0588,-4.0499,-4.0431,-4.0686,-4.1203,-4.2092,-4.3287,-4.4409,-4.4752,-4.4938,-4.5299,-4.6316,-4.6479,-4.6842,-4.8453,-4.9188,-5.0139,-5.2234,-5.297,-5.3655,-5.4993,-5.5157,-5.5309,-5.5809,-5.6858,-5.7753,-5.8254,-5.9673,-6.1121,-6.2273,-6.268,-6.3651,-6.5575,-6.618,-6.686,-6.7859,-6.8387,-6.9448,-7.1062,-7.1058,-7.2198,-7.4692,-7.5436,-7.5721,-7.5662,-7.6256,-7.6083,-7.5246,-7.5812,-7.6112,0.0,0.0,0.0,0.0,0.0,-2.9469,0.0,0.0,0.0,0.0,0.0,0.0,0.0,0.0,0.0,0.0,0.0,0.0,0.0,0.0,0.0,0.0,0.0,0.0,0.0,0.0,-4.073,-4.105,-4.0724,-4.0663,-4.106,-4.1922,-4.2048,-4.1359,-4.3043,-4.3942,-4.3941,-4.4802,-4.5258,-4.5247,-4.5911,-4.5842,-4.517,-4.564,-4.5589,-4.5169,-4.5633,-4.5536,-4.5104,-4.5747,-4.5609,-4.4932,-4.4814,-4.4126,-4.3226,-4.315,-4.2872,-4.2469,-4.1571,-4.1159,-4.0933,-4.0245,-3.9986,-3.9943,-3.9867,-4.045,-4.1154,-4.1217,-4.2318,-4.3535,-4.3663,-4.4253,-4.4843,-4.4936,-4.5542,-4.6388,-4.7466,-4.8238,-4.9493,-5.2132,-5.2475,-5.2996,-5.4878,-5.5183,-5.5502,-5.6433,-5.7139,-5.7982,-5.9054,-6.0418,-6.1619,-6.2521,-6.3027,-6.403,-6.5837,-6.6573,-6.7329,-6.8276,-6.9066,-7.0506,-7.2786,-7.2724,-7.3388,-7.5026,-7.5868,-7.6384,-7.6536,-7.7379,-7.7056,-7.5742,-7.6557,-7.6953,0.0,0.0,0.0,0.0,-2.9393,0.0,0.0,0.0,0.0,0.0,0.0,0.0,0.0,0.0,0.0,0.0,0.0,0.0,0.0,0.0,0.0,0.0,0.0,0.0,0.0,0.0,0.0,-4.0899,-3.965,-3.9432,-4.0944,-4.1847,-4.2297,-4.2252,-4.3938,-4.484,-4.4841,-4.5703,-4.6164,-4.6144,-4.6257,-4.6199,-4.6044,-4.5365,-4.5375,-4.5923,-4.5234,-4.5337,-4.5959,-4.598,-4.5958,-4.5836,-4.5764,-4.4737,-4.3258,-4.3158,-4.2563,-4.1686,-4.0755,-4.0358,-4.021,-4.0055,-3.9933,-3.9845,-3.9878,-4.0539,-4.1277,-4.1292,-4.1988,-4.2878,-4.3535,-4.3855,-4.4178,-4.4789,-4.5174,-4.5949,-4.7957,-4.846,-4.9369,-5.2171,-5.212,-5.24,-5.4802,-5.513,-5.5393,-5.6283,-5.7106,-5.8166,-5.9687,-6.0633,-6.1709,-6.323,-6.3331,-6.4275,-6.6727,-6.7069,-6.7807,-6.9339,-6.9679,-7.1291,-7.4484,-7.4574,-7.5253,-7.6717,-7.6458,-7.665,-7.7372,-7.7646,-7.7722,-7.7531,-7.7739,-7.787,0.0,0.0,0.0,0.0,0.0,0.0,-2.8858,0.0,-2.8365,0.0,0.0,0.0,0.0,0.0,0.0,0.0,0.0,0.0,0.0,0.0,0.0,0.0,0.0,0.0,0.0,0.0,0.0,0.0,0.0,-4.0435,-4.1701,-4.2088,-4.2577,-4.3125,-4.4357,-4.5225,-4.5735,-4.6133,-4.6559,-4.7061,-4.6542,-4.6255,-4.6201,-4.6511,-4.6449,-4.6169,-4.6277,-4.6225,-4.6117,-4.6085,-4.6051,-4.6019,-4.5953,-4.486,-4.3217,-4.3158,-4.2209,-4.0893,-4.0475,-4.0291,-4.0157,-4.0137,-4.0089,-4.004,-4.005,-4.0406,-4.0788,-4.0711,-4.134,-4.211,-4.2878,-4.3444,-4.4026,-4.4775,-4.5083,-4.5692,-4.7528,-4.787,-4.8668,-5.1421,-5.1585,-5.1952,-5.4127,-5.4784,-5.5555,-5.6976,-5.78,-5.882,-6.0491,-6.1326,-6.2153,-6.3273,-6.3729,-6.4765,-6.6819,-6.7068,-6.809,-7.0266,-7.0662,-7.2066,-7.4804,-7.3804,-7.4502,-7.7186,-7.7282,-7.7569,-7.8142,-7.8861,-7.9228,-7.9305,-7.8941,-7.8748,-3.3437,0.0,0.0,0.0,0.0,0.0,0.0,0.0,0.0,0.0,0.0,0.0,0.0,0.0,0.0,-3.0021,0.0,0.0,0.0,0.0,0.0,0.0,0.0,0.0,0.0,0.0,0.0,0.0,-4.0368,-4.0921,-4.2578,-4.2411,-4.2825,-4.4012,-4.466,-4.5531,-4.6667,-4.6405,-4.6874,-4.7968,-4.7062,-4.6739,-4.6924,-4.7281,-4.7141,-4.6554,-4.6664,-4.6493,-4.6115,-4.6126,-4.6051,-4.6012,-4.6002,-4.4858,-4.3209,-4.3134,-4.1986,-4.0407,-4.0407,-4.0183,-3.9853,-3.9853,-3.9699,-3.96,-3.9839,-3.9985,-4.0027,-3.9962,-4.0558,-4.1303,-4.2051,-4.2868,-4.3683,-4.4475,-4.4928,-4.5571,-4.7174,-4.7631,-4.8492,-5.1165,-5.1402,-5.1868,-5.4158,-5.4829,-5.5627,-5.7363,-5.8243,-5.9338,-6.1178,-6.1833,-6.252,-6.3502,-6.4086,-6.5063,-6.6799,-6.699,-6.8314,-7.1381,-7.2061,-7.2934,-7.4169,-7.3284,-7.4325,-7.7543,-7.7901,-7.8377,-7.8993,-7.9768,-8.0235,-8.0392,-7.9858,-7.9609,0.0,0.0,0.0,-3.2397,0.0,0.0,0.0,0.0,-2.859,0.0,0.0,0.0,0.0,-3.0844,-3.08,-3.0761,-3.0828,0.0,0.0,0.0,0.0,0.0,0.0,0.0,0.0,0.0,0.0,-3.9552,-3.8976,-3.9972,-4.3385,-4.2739,-4.3133,-4.4891,-4.4974,-4.5802,-4.753,-4.6715,-4.7148,-4.8867,-4.7969,-4.7965,-4.8642,-4.7082,-4.6752,-4.7372,-4.5719,-4.5436,-4.6176,-4.6134,-4.6099,-4.6076,-4.6012,-4.4882,-4.3292,-4.3213,-4.1994,-4.0407,-4.0407,-3.9797,-3.9026,-3.9026,-3.8503,-3.8031,-3.8969,-3.9184,-3.9152,-3.9144,-3.9665,-4.0444,-4.1235,-4.2023,-4.283,-4.3656,-4.4576,-4.5715,-4.7246,-4.8055,-4.9224,-5.1854,-5.1792,-5.2299,-5.5397,-5.5487,-5.5584,-5.7024,-5.8002,-5.9391,-6.1581,-6.1958,-6.2598,-6.4217,-6.4326,-6.5061,-6.6935,-6.697,-6.8628,-7.2696,-7.3897,-7.3897,-7.2524,-7.3972,-7.5876,-7.8121,-7.8192,-7.8765,-7.9954,-7.9992,-8.0154,-8.0392,-8.0354,-8.0411,0.0,0.0,-3.8313,-3.5113,0.0,0.0,0.0,0.0,0.0,0.0,0.0,0.0,0.0,-3.1313,-3.1464,-3.0875,-3.0786,-3.1008,0.0,0.0,0.0,0.0,0.0,0.0,0.0,0.0,0.0,-4.0501,-4.1293,-4.2542,0.0,-4.412,-4.4779,-4.6613,-4.6087,-4.6928,-4.9249,-4.7301,-4.7459,-4.9765,-4.9258,-4.8943,-4.8899,-4.9433,-4.9185,-4.8311,-4.7733,-4.7642,-4.7846,-4.6644,-4.6489,-4.6882,-4.6289,-4.4932,-4.3292,-4.3253,-4.2092,-4.046,-4.0402,-4.0219,-3.9975,-3.9955,-3.9431,-3.8996,-3.9761,-3.9654,-3.9367,-3.978,-4.0104,-4.0489,-4.1217,-4.2013,-4.2819,-4.3662,-4.4538,-4.562,-4.7234,-4.8124,-4.9149,-5.1168,-5.1784,-5.2693,-5.4875,-5.5133,-5.5724,-5.7748,-5.8774,-5.9897,-6.1751,-6.1996,-6.2617,-6.4156,-6.4793,-6.5584,-6.6874,-6.8988,-7.0877,-7.2239,-7.3288,-7.3876,-7.3862,-7.4422,-7.5565,-7.7387,-7.8523,-7.9383,-7.9924,-8.0026,-8.0072,-8.0058,-8.0329,-8.0734,-4.1835,-4.148,0.0,-3.7345,-3.6012,0.0,-3.2616,0.0,0.0,0.0,0.0,0.0,0.0,0.0,-3.2004,-3.1769,-3.1207,-3.1105,0.0,-3.2772,0.0,0.0,0.0,0.0,0.0,0.0,-3.9754,-4.1314,-4.2135,-4.3379,0.0,0.0,-4.5507,-4.6982,-4.6506,-4.7157,-4.9207,-4.7572,-4.777,-4.9723,-4.9844,-4.9687,-4.9374,-5.0458,-5.0328,-4.9228,-4.8608,-4.8512,-4.8671,-4.6924,-4.6656,-4.7324,-4.6459,-4.5142,-4.3749,-4.3408,-4.2097,-4.0469,-4.0106,-4.0053,-4.0062,-4.0007,-3.9514,-3.9064,-3.9777,-3.9684,-3.9427,-3.9805,-4.0121,-4.0442,-4.0874,-4.1753,-4.2699,-4.3329,-4.4516,-4.5917,-4.7298,-4.8378,-4.9525,-5.0918,-5.1933,-5.3203,-5.5023,-5.5756,-5.6587,-5.8178,-5.9087,-6.0186,-6.1695,-6.1958,-6.2598,-6.4154,-6.4957,-6.5895,-6.7105,-7.0148,-7.1944,-7.1901,-7.3102,-7.4164,-7.4906,-7.4714,-7.548,-7.7452,-7.8955,-7.9778,-7.9898,-7.9984,-7.9988,-7.9916,-8.0186,-8.0725]},{"header":{"parameterUnit":"m.s-1","parameterCategory":1,"la1":30.6,"la2":29.2853,"lo1":-89.7004,"lo2":-87.6739,"dy":0.0162,"dx":0.0183,"nx":112,"ny":82,"refTime":"2023-03-27T06:00:00:Z","depth":0,"parameterNumber":3,"parameterNumberName":"V-component_of_WINDS"},"data":[0.0,0.0,0.0,0.0,0.0,0.0,0.0,0.0,0.0,0.0,0.0,0.0,0.0,0.0,0.0,0.0,0.0,0.0,0.0,0.0,0.0,0.0,0.0,0.0,0.0,0.0,0.0,0.0,0.0,0.0,0.0,0.0,0.0,0.0,0.0,0.0,0.0,0.0,0.0,0.0,0.0,0.0,0.0,0.0,0.0,0.0,0.0,0.0,0.0,0.0,0.0,0.0,0.0,0.0,0.0,0.0,0.0,0.0,0.0,0.0,0.0,0.0,0.0,0.0,0.0,0.0,0.0,0.0,0.0,0.0,0.0,0.0,0.0,0.0,0.0,0.0,0.0,0.0,0.0,0.0,0.0,0.0,0.0,0.0,0.0,0.0,0.0,0.0,0.0,0.0,-0.0992,0.0512,0.1913,0.3391,0.4954,0.7011,0.8608,0.9511,0.0,0.0,0.0,0.0,0.0,0.0,0.0,0.0,0.0,0.0,0.0,0.0,0.0,0.0,0.0,0.0,0.0,0.0,0.0,0.0,0.0,0.0,0.0,0.0,0.0,0.0,0.0,0.0,0.0,0.0,0.0,0.0,0.0,0.0,0.0,0.0,0.0,0.0,0.0,0.0,0.0,0.0,0.0,0.0,0.0,0.0,0.0,0.0,0.0,0.0,0.0,0.0,0.0,0.0,0.0,0.0,0.0,0.0,0.0,0.0,0.0,0.0,0.0,0.0,0.0,0.0,0.0,0.0,0.0,0.0,0.0,0.0,0.0,0.0,0.0,0.0,0.0,0.0,0.0,0.0,0.0,0.0,0.0,0.0,0.0,0.0,0.0,0.0,0.0,0.0,0.0,0.0,0.0,0.0,0.0,0.0,0.0,0.0,0.0,0.0,0.0,0.0,0.0,0.0,-0.0446,0.1594,0.296,0.4905,0.7943,0.9475,1.0755,1.1992,0.0,0.0,0.0,0.0,0.0,0.0,0.0,0.0,0.0,0.0,0.0,0.0,0.0,0.0,0.0,0.0,0.0,0.0,0.0,0.0,0.0,0.0,0.0,0.0,0.0,0.0,0.0,0.0,0.0,0.0,0.0,0.0,0.0,0.0,0.0,0.0,0.0,0.0,0.0,0.0,0.0,0.0,0.0,0.0,0.0,0.0,0.0,0.0,0.0,0.0,0.0,0.0,0.0,0.0,0.0,0.0,0.0,0.0,0.0,0.0,0.0,0.0,0.0,0.0,0.0,0.0,0.0,0.0,0.0,0.0,0.0,0.0,0.0,0.0,0.0,0.0,0.0,0.0,0.0,0.0,0.0,0.0,0.0,0.0,0.0,0.0,0.0,0.0,0.0,0.0,0.0,0.0,0.0,0.0,0.0,0.0,0.0,0.0,0.0,0.0,0.0,0.0,0.0,-0.0054,0.1084,0.3026,0.4646,0.6768,0.9709,1.1486,1.2915,1.4112,1.466,0.0,0.0,0.0,0.0,0.0,0.0,0.0,0.0,0.0,0.0,0.0,0.0,0.0,0.0,0.0,0.0,0.0,0.0,0.0,0.0,0.0,0.0,0.0,0.0,0.0,0.0,0.0,0.0,0.0,0.0,0.0,0.0,0.0,0.0,0.0,0.0,0.0,0.0,0.0,0.0,0.0,0.0,0.0,0.0,0.0,0.0,0.0,0.0,0.0,0.0,0.0,0.0,0.0,0.0,0.0,0.0,0.0,0.0,0.0,0.0,0.0,0.0,0.0,0.0,0.0,0.0,0.0,0.0,0.0,0.0,0.0,0.0,0.0,0.0,0.0,0.0,0.0,0.0,0.0,0.0,0.0,0.0,0.0,0.0,0.0,0.0,0.0,0.0,0.0,0.0,0.0,0.0,0.0,0.0,0.0,0.0,0.0,0.0,0.0,0.0,0.0,0.0,0.1662,0.2971,0.4676,0.6683,0.9004,1.1718,1.3618,1.5195,1.644,1.773,0.0,0.0,0.0,0.0,0.0,0.0,0.0,0.0,0.0,0.0,0.0,0.0,0.0,0.0,0.0,0.0,0.0,0.0,0.0,0.0,0.0,0.0,0.0,0.0,0.0,0.0,0.0,0.0,0.0,0.0,0.0,0.0,0.0,0.0,0.0,0.0,0.0,0.0,0.0,0.0,0.0,0.0,0.0,0.0,0.0,0.0,0.0,0.0,0.0,0.0,0.0,0.0,0.0,0.0,0.0,0.0,0.0,0.0,0.0,0.0,0.0,0.0,0.0,0.0,0.0,0.0,0.0,0.0,0.0,0.0,0.0,0.0,0.0,0.0,0.0,0.0,0.0,0.0,0.0,0.0,0.0,0.0,0.0,0.0,0.0,0.0,0.0,0.0,0.0,0.0,0.0,0.0,0.0,0.0,0.0,0.0,0.0,0.0,0.0,0.0,0.0,0.0,0.2964,0.4744,0.6597,0.909,1.1853,1.4854,1.6307,1.7745,1.933,2.0175,0.0,0.0,0.0,0.0,0.0,0.0,0.0,0.0,0.0,0.0,0.0,0.0,0.0,0.0,0.0,0.0,0.0,0.0,0.0,0.0,0.0,0.0,0.0,0.0,0.0,0.0,0.0,0.0,0.0,0.0,0.0,0.0,0.0,0.0,0.0,0.0,0.0,0.0,0.0,0.0,0.0,0.0,0.0,0.0,0.0,0.0,0.0,0.0,0.0,0.0,0.0,0.0,0.0,0.0,0.0,0.0,0.0,0.0,0.0,0.0,0.0,0.0,0.0,0.0,0.0,0.0,0.0,0.0,0.0,0.0,0.0,0.0,0.0,0.0,0.0,0.0,0.0,0.0,0.0,0.0,0.0,0.0,0.0,0.0,0.0,0.0,0.0,0.0,0.0,0.0,0.0,0.0,0.0,0.0,0.0,0.0,0.0,0.0,0.0,0.0,0.0,0.0,0.4103,0.5794,0.0,1.0331,1.2902,1.6389,1.8427,2.004,2.1405,0.0,0.0,0.0,0.0,0.0,0.0,0.0,0.0,0.0,0.0,0.0,0.0,0.0,0.0,0.0,0.0,0.0,0.0,0.0,0.0,0.0,0.0,0.0,0.0,0.0,0.0,0.0,0.0,0.0,0.0,0.0,0.0,0.0,0.0,0.0,0.0,0.0,0.0,0.0,0.0,0.0,0.0,0.0,0.0,0.0,0.0,0.0,0.0,0.0,0.0,0.0,0.0,0.0,0.0,0.0,0.0,0.0,0.0,0.0,0.0,0.0,0.0,0.0,0.0,0.0,0.0,0.0,0.0,0.0,0.0,0.0,0.0,0.0,0.0,0.0,0.0,0.0,0.0,0.0,0.0,0.0,0.0,0.0,0.0,0.0,0.0,0.0,0.0,0.0,0.0,0.0,0.0,0.0,0.0,0.0,0.0,0.0,0.0,0.0,0.0,0.0,0.0,0.4392,0.5514,0.7235,0.0,1.2282,1.4867,1.8314,2.0482,2.2271,2.3574,0.0,0.0,0.0,0.0,0.0,0.0,0.0,0.0,0.0,0.0,0.0,0.0,0.0,0.0,0.0,0.0,0.0,0.0,0.0,0.0,0.0,0.0,0.0,0.0,0.0,0.0,0.0,0.0,0.0,0.0,0.0,0.0,0.0,0.0,0.0,0.0,0.0,0.0,0.0,0.0,0.0,0.0,0.0,0.0,0.0,0.0,0.0,0.0,0.0,0.0,0.0,0.0,0.0,0.0,0.0,0.0,0.0,0.0,0.0,0.0,0.0,0.0,0.0,0.0,0.0,0.0,0.0,0.0,0.0,0.0,0.0,0.0,0.0,0.0,0.0,0.0,0.0,0.0,0.0,0.0,0.0,0.0,0.0,0.0,0.0,0.0,0.0,0.0,0.0,0.0,0.0,0.0,0.0,0.0,0.0,0.0,0.0,0.0,0.0,0.0,0.0,0.0,0.6171,0.7482,0.9249,1.2234,1.5262,1.8195,2.0787,2.2631,2.4263,0.0,0.0,0.0,0.0,0.0,0.0,0.0,0.0,0.0,0.0,0.0,0.0,0.0,0.0,0.0,0.0,0.0,0.0,0.0,0.0,0.0,0.0,0.0,0.0,0.0,0.0,0.0,0.0,0.0,0.0,0.0,0.0,0.0,0.0,0.0,0.0,0.0,0.0,0.0,0.0,0.0,0.0,0.0,0.0,0.0,0.0,0.0,0.0,0.0,0.0,0.0,0.0,0.0,0.0,0.0,0.0,0.0,0.0,0.0,0.0,0.0,0.0,0.0,0.0,0.0,0.0,0.0,0.0,0.0,0.0,0.0,0.0,0.0,0.0,0.0,0.0,0.0,0.0,0.0,0.0,0.0,0.0,0.0,0.0,0.0,0.0,0.0,0.0,0.0,0.0,0.0,0.0,0.0,0.0,0.0,0.0,0.0,0.0,0.0,0.0,0.0,0.0,0.0,0.7503,0.915,1.1153,1.3582,1.5877,1.8533,2.1804,2.4084,2.5718,2.6482,0.0,0.0,0.0,0.0,0.0,0.0,0.0,0.0,0.0,0.0,0.0,0.0,0.0,0.0,0.0,0.0,0.0,0.0,0.0,0.0,0.0,0.0,0.0,0.0,0.0,0.0,0.0,0.0,0.0,0.0,0.0,0.0,0.0,0.0,0.0,0.0,0.0,0.0,0.0,0.0,0.0,0.0,0.0,0.0,0.0,0.0,0.0,0.0,0.0,0.0,0.0,0.0,0.0,0.0,0.0,0.0,0.0,0.0,0.0,0.0,0.0,0.0,0.0,0.0,0.0,0.0,0.0,0.0,0.0,0.0,0.0,0.0,0.0,0.0,0.0,0.0,0.0,0.0,0.0,0.0,0.0,0.0,0.0,0.0,0.0,0.0,0.0,0.0,0.0,0.0,0.0,0.0,0.0,0.0,0.0,0.0,0.0,0.0,0.0,0.0,0.0,0.0,0.8879,1.0745,1.2811,1.5122,1.7349,1.9975,2.3251,2.5697,2.7287,2.7622,0.0,0.0,0.0,0.0,0.0,0.0,0.0,0.0,0.0,0.0,0.0,0.0,0.0,0.0,0.0,0.0,0.0,0.0,0.0,0.0,0.0,0.0,0.0,0.0,0.0,0.0,0.0,0.0,0.0,0.0,0.0,0.0,0.0,0.0,0.0,0.0,0.0,0.0,0.0,0.0,0.0,0.0,0.0,0.0,0.0,0.0,0.0,0.0,0.0,0.0,0.0,0.0,0.0,0.0,0.0,0.0,0.0,0.0,0.0,0.0,0.0,0.0,0.0,0.0,0.0,0.0,0.0,0.0,0.0,0.0,0.0,0.0,0.0,0.0,0.0,0.0,0.0,0.0,0.0,0.0,0.0,0.0,0.0,0.0,0.0,0.0,0.0,0.0,0.0,0.0,0.0,0.0,0.0,0.0,0.0,0.0,0.0,0.0,0.0,0.0,0.0,0.0,1.0304,1.2231,1.4317,1.6848,1.931,2.1925,2.4747,2.719,2.8696,2.8898,0.0,0.0,0.0,0.0,0.0,0.0,0.0,0.0,0.0,0.0,0.0,0.0,0.0,0.0,0.0,0.0,0.0,0.0,0.0,0.0,0.0,0.0,0.0,0.0,0.0,0.0,0.0,0.0,0.0,0.0,0.0,0.0,0.0,0.0,0.0,0.0,0.0,0.0,0.0,0.0,0.0,0.0,0.0,0.0,0.0,0.0,0.0,0.0,0.0,0.0,0.0,0.0,0.0,0.0,0.0,0.0,0.0,0.0,0.0,0.0,-0.1328,0.0,0.0,0.0,0.0,0.0,0.0,0.0,0.0,0.0,0.0,0.0,0.0,0.0,0.0,0.0,0.0,0.0,0.0,0.0,0.0,0.0,0.0,0.0,0.0,0.0,0.0,0.0,0.0,0.0,0.0,0.0,0.0,0.0,0.0,0.0,0.0,0.0,0.0,0.0,0.0,0.0,1.1692,1.3888,1.6229,1.8541,2.0365,2.2366,2.4871,2.6709,2.7914,2.8332,2.7971,0.0,0.0,0.0,0.0,0.0,0.0,0.0,0.0,0.0,0.0,0.0,0.0,0.0,0.0,0.0,0.0,0.0,0.0,0.0,0.0,0.0,0.0,0.0,0.0,0.0,0.0,0.0,0.0,0.0,0.0,0.0,0.0,0.0,0.0,0.0,0.0,0.0,0.0,0.0,0.0,0.0,0.0,0.0,0.0,0.0,0.0,0.0,0.0,0.0,0.0,0.0,0.0,0.0,0.0,0.0,0.0,0.0,0.0,0.0,0.0,-0.0844,0.0,0.0,0.0,0.0,0.0,0.0,0.0,0.0,0.0,0.0,0.0,0.0,0.0,0.0,0.0,0.0,0.0,0.0,0.0,0.0,0.0,0.0,0.0,0.0,0.0,0.0,0.0,0.0,0.0,0.0,0.0,0.0,0.0,0.0,0.0,0.0,0.0,0.0,0.0,0.0,1.276,1.5001,1.7174,1.9312,2.0909,2.2716,2.4887,2.6505,2.7434,2.7633,2.7453,0.0,0.0,0.0,0.0,0.0,0.0,0.0,0.0,0.0,0.0,0.0,0.0,0.0,0.0,0.0,0.0,0.0,0.0,0.0,0.0,0.0,0.0,0.0,0.0,0.0,0.0,0.0,0.0,0.0,0.0,0.0,0.0,0.0,0.0,0.0,0.0,0.0,0.0,0.0,0.0,0.0,0.0,0.0,0.0,0.0,0.0,0.0,0.0,0.0,0.0,0.0,0.0,0.0,-0.1349,-0.1454,-0.1429,-0.0592,-0.0304,-0.0581,-0.0205,0.0152,0.0405,0.0,0.0,0.0,0.0,0.0,0.0,0.0,0.0,0.0,0.0,0.0,0.0,0.0,0.0,0.0,0.0,0.0,0.0,0.0,0.0,0.0,0.0,0.0,0.0,0.0,0.0773,0.1304,0.0,0.0,0.0,0.0,0.0,0.0,0.0,0.0,0.0,0.0,0.0,0.0,1.3724,1.579,1.7742,1.9685,2.1235,2.2875,2.453,2.5999,2.6787,2.67,2.6689,2.5569,0.0,0.0,0.0,0.0,0.0,0.0,0.0,0.0,0.0,0.0,0.0,0.0,0.0,0.0,0.0,0.0,0.0,0.0,0.0,0.0,0.0,0.0,0.0,0.0,0.0,0.0,0.0,0.0,0.0,0.0,0.0,0.0,-0.1539,-0.1827,0.0,0.0,0.0,0.0,0.0,0.0,0.0,0.0,0.0,0.0,0.0,0.0,0.0,0.0,0.1702,0.1131,0.057,0.0,0.016,0.0385,0.0618,0.0955,0.1241,0.1419,0.1469,0.0,-0.0211,0.0202,0.0,0.0,0.0,0.0,0.0,0.0,0.0,0.0,0.0,0.0,0.0,0.0,0.0,0.0,0.0,0.0,0.0,0.0,0.0,0.0,0.0,0.0,0.088,0.2003,0.2433,0.2809,0.0,0.3006,0.2508,0.321,0.3343,0.0,0.0,0.0,0.0,0.0,0.0,0.0,1.463,1.6346,1.8063,1.9959,2.1562,2.2701,2.2976,2.4499,2.5353,2.5369,2.4565,2.3207,2.1194,1.8978,0.0,0.0,0.0,0.0,0.0,0.0,0.0,0.0,0.0,0.0,0.0,0.0,0.0,0.0,0.0,0.0,0.0,0.0,0.0,0.0,0.0,0.0,0.0,0.0,0.0,0.0,0.0,0.0,0.0,-0.1063,-0.0867,-0.129,-0.0488,-0.0123,0.0,0.0,0.0,0.0,0.0,0.0,0.0,0.0,0.0,0.2193,0.2218,0.2093,0.1877,0.1499,0.1058,0.067,0.0616,0.0739,0.0991,0.127,0.1553,0.184,0.184,0.1412,0.0875,0.1098,0.0804,0.0194,0.0,0.0,0.0,0.0,0.0454,0.0206,0.0392,0.0533,0.0,0.0,0.0,0.0,0.0,0.0,0.0,0.0,0.0,0.0,0.0,0.0,0.0,0.252,0.3522,0.4428,0.4933,0.5013,0.4915,0.0,0.4705,0.5128,0.6159,0.0,0.0,0.0,0.0,1.3019,1.4976,1.6339,1.785,1.953,2.0658,2.1488,2.1884,2.2572,2.2811,2.2451,2.1873,2.0543,1.8252,1.6336,1.3913,0.0,0.0,0.0,0.0,0.0,0.0,0.0,0.0,0.0,0.0,0.0,0.0,0.0,0.0,0.0,0.0,0.0,0.0,0.0,0.0,0.0,0.0,0.0,0.0,0.0,0.0,0.0,0.0,-0.0346,-0.028,-0.0638,0.0382,0.0873,0.0,0.0,0.0,0.0,0.0,0.0,0.1973,0.1644,0.1669,0.2192,0.2169,0.2109,0.2015,0.1815,0.1582,0.1245,0.1045,0.1107,0.1371,0.159,0.1808,0.2026,0.1968,0.1888,0.1789,0.1821,0.1568,0.1185,0.1496,0.1064,0.0406,0.1162,0.1102,0.0702,0.1162,0.1325,0.1279,0.1095,0.0,0.1223,0.0639,0.0,0.0,0.0,0.0,0.0673,0.095,0.1885,0.283,0.3308,0.4623,0.5796,0.5955,0.661,0.6935,0.0,0.6148,0.6538,0.7464,0.0,0.0,0.0,0.0,1.3391,1.5109,1.6317,1.7527,1.8811,1.9702,2.0295,2.0686,2.0658,2.0283,1.9546,1.8995,1.7572,1.4993,1.3477,1.1385,0.8698,0.0,0.0,0.0,0.0,0.0,0.0,0.0,0.0,0.0,0.0,0.0,0.0,0.0,0.0,0.0,0.0,0.0,0.0,0.0,0.0,0.0,0.0,0.0,0.0,0.0,0.0,0.0,0.0,0.0,0.0422,0.1353,0.0,0.0,0.0,0.0,0.1804,0.1551,0.1641,0.2138,0.1791,0.2055,0.3011,0.2893,0.2706,0.2408,0.2346,0.2165,0.1869,0.1894,0.2092,0.2399,0.2459,0.2421,0.2355,0.2355,0.2139,0.1793,0.1814,0.1498,0.1035,0.1243,0.0813,0.0185,0.0942,0.1329,0.1573,0.1838,0.2111,0.2298,0.222,0.2165,0.2103,0.1873,0.1806,0.0,0.0,0.1372,0.2288,0.2208,0.3177,0.4404,0.5264,0.6107,0.6786,0.708,0.7541,0.7973,0.0,0.7784,0.8083,0.9521,0.0,1.0747,1.2008,1.2918,1.3963,1.5324,1.6348,1.7276,1.7889,1.9089,1.964,1.9089,1.8862,1.8326,1.7391,1.6034,1.4148,1.1734,1.0363,0.8082,0.4756,0.3658,0.0,0.0,0.0,0.0,0.0,0.0,0.0,0.0,0.0,0.0,0.0,0.0,0.0,0.0,0.0,0.0,0.0,0.0,0.0,0.0,0.0,0.0,0.0,0.0,0.0,0.0,0.0,0.0,0.1846,0.2511,0.0,0.2502,0.3192,0.3444,0.2932,0.2574,0.2489,0.2708,0.2199,0.2147,0.2694,0.2469,0.2387,0.2447,0.2265,0.2081,0.196,0.1971,0.216,0.2466,0.226,0.2284,0.2649,0.2214,0.2005,0.2018,0.1895,0.1767,0.1795,0.1786,0.1644,0.1469,0.1645,0.1782,0.1836,0.1761,0.2036,0.2459,0.2429,0.2578,0.2649,0.2442,0.2331,0.2317,0.2004,0.2582,0.3283,0.3484,0.4322,0.5362,0.6406,0.7039,0.7627,0.8581,0.8976,0.932,0.9787,0.9347,0.9202,1.0316,1.107,1.1703,1.2237,1.3413,1.438,1.485,1.6127,1.7019,1.7031,1.8124,1.8496,1.7539,1.7271,1.6505,1.5109,1.3157,1.1157,0.8998,0.7268,0.5372,0.3161,0.2,0.0969,0.0,0.0,0.0,0.0,0.0,0.0,0.0,0.0,0.0,0.0,0.0,0.0,0.0,0.0,0.0,0.0,0.0,0.0,0.0,0.0,0.0,0.0,0.0,0.0,0.0,0.0,0.1636,0.2592,0.3252,0.3537,0.3397,0.3901,0.4082,0.3789,0.3233,0.2997,0.3169,0.2538,0.235,0.2672,0.2476,0.2407,0.2529,0.2284,0.2099,0.1977,0.1977,0.216,0.2466,0.2198,0.223,0.249,0.2044,0.178,0.1753,0.1575,0.1627,0.1902,0.2066,0.2088,0.2017,0.2113,0.2133,0.2124,0.2085,0.2373,0.2778,0.2742,0.2981,0.3283,0.3139,0.3144,0.3206,0.3186,0.3751,0.4382,0.4465,0.5458,0.6556,0.723,0.7898,0.8708,0.9673,1.0109,1.049,1.1148,1.0733,1.0472,1.1168,1.1954,1.2592,1.2666,1.3957,1.4859,1.4752,1.6149,1.7043,1.6726,1.7465,1.7716,1.7179,1.6043,1.4988,1.4006,1.1487,0.9101,0.7127,0.5298,0.3534,0.1678,0.0231,-0.0729,-0.1197,0.0,0.0,0.0,0.0,0.0,0.0,0.0,0.0,0.0,0.0,0.0,0.0,0.0,0.0,0.0,0.0,0.0,0.0,0.0,0.0,0.0,0.0,0.0,0.1228,0.1546,0.1896,0.2668,0.3497,0.3987,0.3966,0.4422,0.4621,0.4334,0.3547,0.3167,0.3466,0.2861,0.267,0.3089,0.3047,0.2839,0.2529,0.2531,0.2346,0.2038,0.2038,0.216,0.2467,0.2466,0.2263,0.1869,0.1838,0.1518,0.0919,0.0904,0.1066,0.1345,0.1926,0.1948,0.1756,0.23,0.2412,0.2433,0.2787,0.3103,0.3372,0.3156,0.3447,0.3896,0.3959,0.4257,0.4484,0.4148,0.4879,0.5681,0.5303,0.6591,0.7889,0.784,0.8805,0.9937,1.0301,1.0914,1.1518,1.2113,1.2062,1.1941,1.2174,1.2784,1.3314,1.349,1.4667,0.0,1.4999,1.6387,1.7279,1.6961,1.704,1.728,1.7827,1.524,1.3686,1.4077,1.0896,0.809,0.6096,0.4454,0.247,0.0169,-0.1549,-0.262,-0.3049,0.0,0.0,0.0,0.0,0.0,0.0,0.0,0.0,0.0,0.0,0.0,0.0,0.0,0.0,0.0,0.0,0.0,0.0,0.0,0.0,0.0,0.0,-0.0463,0.1116,0.1712,0.2488,0.3776,0.3984,0.4286,0.5032,0.5067,0.5,0.477,0.4306,0.3892,0.3539,0.2845,0.2781,0.3353,0.2687,0.2557,0.3209,0.2744,0.2432,0.2344,0.2592,0.2531,0.216,0.2076,0.1878,0.1506,0.0996,0.0866,0.092,0.0916,0.1085,0.1367,0.1272,0.1471,0.1788,0.1652,0.1899,0.2316,0.2842,0.2921,0.2826,0.306,0.3364,0.367,0.3642,0.4254,0.5062,0.5502,0.6132,0.6803,0.7638,0.823,0.8828,0.9713,1.018,1.0636,1.1487,1.2344,1.2882,1.263,1.3383,1.3863,1.3042,1.3504,1.3954,1.4015,1.4917,0.0,1.5429,1.6471,1.6841,1.5941,1.6105,1.6012,1.5298,1.3677,1.2388,1.1723,0.8542,0.6084,0.4639,0.2273,0.0138,-0.1803,-0.2725,-0.3352,0.0,0.0,0.0,0.0,0.0,0.0,0.0,0.0,0.0,0.0,0.0,0.0,0.0,0.0,0.0,0.0,0.0,0.0,0.0,0.0,0.0,0.0,-0.1787,-0.0736,0.0554,0.1483,0.2467,0.3534,0.3848,0.4192,0.4763,0.4805,0.4756,0.4632,0.4239,0.3825,0.3332,0.2899,0.2899,0.3271,0.2862,0.2925,0.3517,0.2987,0.2614,0.2529,0.2406,0.216,0.179,0.1591,0.1279,0.0,0.0412,0.029,0.0348,0.0458,0.0683,0.0,0.0,0.0,0.0,0.0,0.2035,0.2644,0.3107,0.3131,0.3095,0.3371,0.3561,0.3698,0.4077,0.4694,0.5508,0.6398,0.7038,0.7648,0.8413,0.8862,0.9308,1.0137,1.0651,1.1168,1.2137,1.3109,1.3704,1.3471,0.0,0.0,1.3961,1.4351,1.4648,1.4348,1.5499,1.6135,1.5607,1.6564,1.6942,1.6013,1.5951,1.5683,1.4984,1.3266,0.0,0.0,0.0,0.5106,0.2888,0.0632,0.0,0.0,0.0,-0.4032,-0.441,0.0,0.0,0.0,-0.4118,-0.4235,0.0,0.0,0.0,0.0,0.0,0.0,0.0,0.0,0.0,0.0,0.0,0.0,0.0,0.0,0.0,0.0,-0.2085,-0.1055,-0.0273,0.0932,0.1931,0.2632,0.3421,0.3839,0.373,0.4021,0.4204,0.4271,0.3852,0.3455,0.3147,0.0,0.0,0.0,0.0,0.3401,0.3517,0.309,0.2781,0.2467,0.1848,0.154,0.1479,0.117,0.0615,0.0,-0.006,-0.0235,-0.0469,-0.0171,0.0169,0.0563,0.1711,0.1875,0.1565,0.1897,0.2436,0.3017,0.3288,0.0,0.0,0.3992,0.3939,0.3901,0.4933,0.5475,0.5956,0.6963,0.7777,0.8355,0.8474,0.9052,0.9646,0.9964,1.083,1.1744,1.2583,1.3498,1.4298,1.4585,1.5136,1.5439,1.491,1.5266,1.5344,1.4583,1.6093,1.6832,1.5612,1.6572,1.7119,1.6566,0.0,0.0,1.567,1.3373,1.1786,1.129,0.8108,0.4704,0.1188,-0.0475,-0.1841,-0.2995,-0.3889,-0.4533,-0.5009,-0.5452,-0.5602,-0.5382,-0.4601,-0.4327,0.0,0.0,0.0,0.0,0.0,0.0,0.0,0.0,0.0,0.0,0.0,0.0,0.0,0.0,0.0,-0.3937,-0.3088,-0.2288,-0.1224,0.0167,0.1452,0.2576,0.3026,0.3385,0.3673,0.4079,0.4204,0.3968,0.4154,0.4071,0.3766,0.3271,0.0,0.3697,0.2808,0.2685,0.3517,0.2623,0.2311,0.2467,0.0,0.0,0.1516,0.1151,0.0662,0.0,-0.0532,-0.0585,-0.0404,-0.0344,0.0114,0.0801,0.1075,0.0956,0.0728,0.1281,0.1836,0.2401,0.2736,0.3216,0.3774,0.4344,0.4556,0.4726,0.5727,0.6255,0.0,0.7822,0.8713,0.9473,1.0251,1.0913,1.1384,1.1509,1.2271,1.3011,1.3492,1.4509,1.5405,1.5597,1.5938,1.6172,1.6117,1.585,1.5451,1.506,1.5924,1.641,1.5725,1.6137,1.6227,1.5482,1.4746,1.4104,1.37,1.2054,1.0703,0.9864,0.638,0.3188,0.0624,-0.0574,-0.1813,-0.3052,-0.3936,-0.4602,-0.5063,-0.5509,-0.5569,-0.539,-0.4646,-0.4176,0.0,0.0,0.0,0.0,0.0,0.0,0.0,0.0,0.0,0.0,0.0,-0.7978,0.0,0.0,-0.5641,-0.4383,-0.3509,-0.2582,-0.1454,-0.0393,0.0617,0.1681,0.2466,0.2982,0.3179,0.3514,0.3922,0.4282,0.4231,0.416,0.4133,0.3579,0.333,0.3453,0.267,0.2477,0.2988,0.2352,0.1974,0.1989,0.1688,0.1321,0.1013,0.0656,0.0178,-0.0471,-0.0759,-0.0927,-0.0862,-0.0513,-0.0057,0.0454,0.045,0.0505,0.0729,0.1121,0.1692,0.233,0.2954,0.3558,0.4128,0.4763,0.4966,0.5182,0.6169,0.6758,0.728,0.8528,0.9114,0.9647,1.0666,1.1042,1.131,1.1888,1.254,1.3195,1.3807,1.4658,1.5352,1.5668,1.5918,1.6252,1.6803,1.6549,1.6183,1.5828,1.636,1.6622,1.6195,1.6114,1.5812,1.5302,1.4537,1.3769,1.3121,1.1065,0.9276,0.8088,0.5186,0.271,0.0871,-0.0435,-0.1549,-0.2419,-0.3546,-0.4206,-0.4309,-0.4924,-0.5011,-0.4634,-0.3859,-0.3625,0.0,0.0,0.0,0.0,0.0,0.0,0.0,0.0,-0.9692,-0.9515,-0.8962,-0.8301,-0.7601,-0.685,-0.5974,-0.4937,-0.3932,-0.2923,-0.179,-0.0953,-0.0112,0.0561,0.1739,0.2524,0.2524,0.2961,0.3522,0.4269,0.4103,0.4048,0.4294,0.3809,0.338,0.3009,0.2641,0.2438,0.2401,0.2005,0.169,0.1473,0.1011,0.0713,0.0469,0.0059,-0.0411,-0.0875,-0.0979,-0.1144,-0.1315,-0.0676,-0.028,-0.0056,0.0,0.028,0.0785,0.1126,0.1705,0.2415,0.3277,0.4015,0.4663,0.5237,0.5428,0.5708,0.6686,0.719,0.7687,0.8939,0.9396,0.97,1.0725,1.1057,1.134,1.2209,1.2804,1.3453,1.4263,1.4744,1.5246,1.5862,1.6065,1.6447,1.7314,1.7334,1.7138,1.6736,1.6926,1.6903,1.6356,1.6011,1.5658,1.5208,1.4505,1.3623,1.2615,1.0387,0.835,0.6686,0.4773,0.2946,0.1352,-0.0144,-0.1201,-0.1736,-0.3044,-0.3617,-0.337,-0.407,-0.4155,-0.3682,-0.2897,-0.2924,-1.131,-1.2106,-1.2918,-1.2581,-1.2694,-1.2677,0.0,0.0,-1.0587,-1.0222,-0.9706,-0.907,-0.8462,-0.8017,-0.7315,-0.5871,-0.492,-0.4024,-0.3024,-0.1457,-0.0336,-0.028,0.1009,0.1908,0.1908,0.2674,0.3162,0.2994,0.3741,0.4101,0.3987,0.3809,0.3507,0.2901,0.2599,0.2279,0.195,0.1361,0.1183,0.1414,0.0523,0.0231,0.0462,-0.0176,-0.0638,-0.0902,-0.1126,-0.1294,-0.1237,-0.0673,-0.0393,-0.0336,-0.0112,0.0056,0.0168,0.0741,0.1549,0.2469,0.3045,0.4276,0.5693,0.5961,0.635,0.6865,0.7545,0.7789,0.8039,0.9025,0.97,1.0429,1.145,1.2311,1.308,1.3519,1.4125,1.4865,1.5609,1.5848,1.6162,1.7098,1.7136,1.7274,1.7987,1.8125,1.7973,1.7396,1.7399,1.6891,1.5262,1.5513,1.5422,1.4418,1.3759,1.2715,1.1002,1.0237,0.8891,0.6559,0.5556,0.4028,0.1655,0.0247,-0.0838,-0.1603,-0.2604,-0.3042,-0.2991,-0.3158,-0.3241,-0.3075,-0.2254,-0.2286,-1.2391,-1.2925,-1.3383,0.0,-1.3049,-1.2976,-1.1835,-1.1327,-1.0867,-1.0147,-0.9816,-0.9347,-0.832,-0.7822,-0.7133,0.0,-0.5008,-0.4142,-0.3024,-0.2074,-0.1121,-0.028,0.0505,0.1177,0.1739,0.2594,0.3297,0.3613,0.3813,0.3975,0.4098,0.3745,0.3213,0.2618,0.226,0.183,0.1337,0.1055,0.0817,0.0573,0.058,0.0464,0.0172,-0.0058,-0.0577,-0.1194,-0.1464,-0.1523,-0.1365,-0.1239,-0.1009,-0.0673,-0.0561,-0.0336,0.0112,0.0848,0.1539,0.2241,0.316,0.4516,0.5829,0.6149,0.695,0.7811,0.8122,0.8305,0.8665,0.964,1.0189,1.0721,1.1784,1.2513,1.3143,1.3775,1.4313,1.4842,1.5238,1.5563,1.587,1.6181,1.6642,1.719,1.7824,1.8154,1.8312,1.8261,1.7959,1.7398,1.6553,1.5738,1.4753,1.3301,1.3043,1.2346,1.0657,1.0477,0.9442,0.7178,0.6302,0.4901,0.2922,0.1593,0.0465,-0.0364,-0.1259,-0.1632,-0.1422,-0.1636,-0.1566,-0.1252,-0.0653,-0.0669,-1.3346,0.0,0.0,-1.3464,-1.3556,-1.3407,-1.2036,-1.1593,-1.1139,-1.0186,-0.9859,-0.937,-0.8239,-0.7756,-0.7187,-0.6133,-0.5221,-0.428,-0.317,-0.2403,-0.1514,-0.028,0.0393,0.1011,0.1637,0.2474,0.3211,0.376,0.3765,0.3908,0.4147,0.3683,0.3157,0.2517,0.2107,0.1626,0.1028,0.0929,0.0635,0.0112,0.0635,0.0582,0.0,-0.0058,-0.0579,-0.1446,-0.1763,-0.1701,-0.1426,-0.1747,-0.1518,-0.0903,-0.073,-0.0394,0.0113,0.1067,0.1756,0.23,0.3464,0.4767,0.6013,0.6432,0.7412,0.8421,0.8427,0.8732,0.9281,0.9883,1.0386,1.1057,1.2087,1.2716,1.3314,1.4161,1.4659,1.5028,1.5203,1.563,1.5882,1.5772,1.6379,1.7083,1.758,1.7984,1.8275,1.8441,1.8177,1.7697,1.7231,1.5532,1.3897,1.2419,1.2532,1.2092,1.0613,1.0699,0.9939,0.7885,0.6881,0.5669,0.4073,0.2682,0.1643,0.0851,0.0,-0.0323,-0.0162,-0.0334,-0.0172,0.0293,0.0668,0.075,0.0,0.0,-1.4236,-1.4094,-1.4351,-1.4222,-1.2665,-1.2051,-1.1507,-1.0588,-0.9946,-0.9304,-0.8513,-0.8387,-0.8019,-0.6912,-0.5826,-0.4804,-0.3993,-0.2385,-0.1121,-0.0449,0.0897,0.1693,0.0,0.221,0.2694,0.2751,0.3535,0.3901,0.3736,0.3681,0.3392,0.2815,0.2187,0.1713,0.1292,0.1027,0.0742,0.0393,0.0456,0.0345,0.0,-0.0292,-0.0766,-0.1412,-0.1966,-0.1878,-0.1347,-0.1964,-0.1699,-0.086,-0.0282,0.0,0.0172,0.1354,0.221,0.2934,0.3858,0.5104,0.6377,0.6975,0.7714,0.8372,0.8372,0.9037,0.97,0.9396,1.0247,1.1518,1.2423,1.3289,1.4166,1.505,1.5647,1.6138,1.6366,1.6483,1.6548,1.6915,1.7052,1.7204,1.7204,1.7564,1.7751,1.7504,1.7697,1.7506,1.6402,1.4477,1.295,1.2083,1.2228,1.1873,1.0498,1.0808,1.0317,0.8598,0.7481,0.6263,0.4827,0.3294,0.2251,0.1757,0.0975,0.0551,0.0448,0.0513,0.0706,0.1046,0.1417,0.1579,0.0,0.0,-1.5021,-1.4073,-1.4249,-1.4182,-1.2536,-1.21,-1.1793,-1.0798,-1.0091,-0.9377,-0.8533,-0.816,-0.7603,-0.6469,-0.5641,-0.4804,-0.3769,-0.2606,-0.1626,-0.0841,0.0056,0.0,0.0,0.0,0.0,0.3018,0.3441,0.3709,0.3616,0.3447,0.3108,0.2771,0.2319,0.1928,0.1654,0.1304,0.1021,0.0741,0.0516,0.0287,0.0,-0.0289,-0.0754,-0.1391,-0.1538,-0.1588,-0.1652,-0.186,-0.1632,-0.1074,-0.0281,0.0225,0.0734,0.1686,0.2588,0.3393,0.3868,0.5042,0.6278,0.669,0.7654,0.8732,0.8732,0.9214,0.9883,1.0186,1.1126,1.2139,1.3066,1.3828,1.4606,1.5268,1.5628,1.577,1.5555,1.6053,1.6368,1.5773,1.6624,1.7196,1.6553,1.7192,1.7826,1.7815,1.7505,1.6961,1.6032,1.5293,1.428,1.289,1.2796,1.232,1.0904,1.083,1.0147,0.8535,0.7912,0.6942,0.5409,0.4517,0.3668,0.2698,0.2241,0.1926,0.1711,0.1816,0.2045,0.2344,0.2518,0.2641,0.0,-1.5597,-1.5772,-1.4682,-1.4708,-1.4567,-1.3003,-1.2605,-1.2278,-1.1305,-1.0479,-0.9708,-0.8818,-0.835,-0.7691,-0.6404,-0.5643,-0.4786,-0.3535,-0.2506,-0.1494,-0.056,0.0112,0.0674,0.0,0.0,0.0,0.2847,0.3385,0.3589,0.3309,0.3138,0.297,0.2694,0.23,0.2037,0.1955,0.1536,0.1138,0.0747,0.0402,0.0115,-0.0172,-0.0463,-0.0809,-0.1264,-0.1648,-0.1701,-0.1481,-0.1804,-0.1463,-0.0622,0.0056,0.0619,0.1131,0.2024,0.2748,0.3367,0.3895,0.4947,0.6116,0.6798,0.7829,0.8909,0.9159,0.9761,1.0429,1.0732,1.1494,1.2502,1.3423,1.4019,1.4605,1.5278,1.5638,1.5753,1.5618,1.6181,1.6647,1.6149,1.6877,1.7364,1.6646,1.6997,1.7336,1.7315,1.702,1.6633,1.6021,1.5492,1.4621,1.3098,1.2831,1.2262,1.0997,1.0667,1.0054,0.8781,0.8214,0.736,0.6277,0.5584,0.476,0.3754,0.3457,0.309,0.2669,0.2829,0.3024,0.3199,0.3534,0.3612,-1.6931,-1.6899,-1.6483,-1.5836,-1.5664,-1.5242,-1.3933,-1.338,-1.2889,-1.2097,-1.1139,-1.0135,0.0,0.0,-0.8149,-0.6832,-0.5909,-0.4817,-0.336,-0.2108,-0.0918,0.0,0.0,0.0,0.0,0.0,0.0,0.2244,0.0,0.3645,0.2807,0.297,0.297,0.2694,0.2132,0.198,0.23,0.1725,0.1092,0.0517,0.0172,-0.0115,-0.0402,-0.0758,-0.0931,-0.1034,-0.2179,-0.2046,-0.1065,-0.1849,-0.1188,0.0401,0.079,0.1132,0.1433,0.237,0.2748,0.2923,0.3822,0.4807,0.5886,0.7223,0.8179,0.8952,0.9572,1.049,1.1209,1.0967,1.1518,1.2492,1.3463,1.3952,1.443,1.5236,1.5714,1.6147,1.6612,1.6962,1.7356,1.7837,1.7805,1.7565,1.7325,1.6808,1.6419,1.6146,1.6312,1.6387,1.6195,1.5199,1.4013,1.283,1.2391,1.1759,1.0844,1.0482,1.0019,0.933,0.832,0.7612,0.7339,0.6449,0.5669,0.4998,0.4588,0.4008,0.3359,0.3579,0.3685,0.3675,0.4446,0.4545,-1.6918,-1.7004,-1.6924,-1.5902,-1.5607,-1.5387,-1.4688,-1.3949,-1.3226,-1.2777,-1.1632,-1.0446,0.0,0.0,0.0,-0.7014,-0.631,0.0,-0.3794,-0.2793,0.0,-0.0727,0.0,0.0562,0.1072,0.1912,0.0,0.0,0.3141,0.3589,0.3365,0.3418,0.3253,0.2694,0.2746,0.26,0.23,0.1725,0.12,0.079,0.0278,-0.0167,-0.0395,-0.0727,-0.112,-0.1579,-0.206,-0.2227,-0.2242,-0.1937,-0.1334,-0.0451,0.1011,0.1743,0.2032,0.2751,0.3309,0.3647,0.3434,0.4385,0.5788,0.6876,0.7935,0.8834,0.9606,1.049,1.1329,1.1511,1.2162,1.3005,1.4032,1.4463,1.4868,1.5918,1.6208,1.6309,1.6677,1.6967,1.7174,1.7356,1.7106,1.6792,1.6663,1.6395,1.6253,1.6371,1.6312,1.6172,1.6116,1.5622,1.4952,1.4193,1.3264,1.2466,1.1844,1.0677,0.9713,0.9242,0.8381,0.7783,0.7528,0.7038,0.6498,0.5863,0.5353,0.4687,0.4073,0.4218,0.4385,0.445,0.4906,0.5148,-1.7708,-1.7657,-1.7374,-1.6351,-1.6163,-1.5957,-1.4941,-1.4322,-1.3788,-1.296,-1.1849,-1.0777,-0.9995,-0.9358,0.0,0.0,0.0,0.0,-0.4133,-0.3061,-0.1965,0.0,-0.0168,0.0,0.1009,0.1908,0.2412,0.0,0.3006,0.3281,0.3026,0.3117,0.3006,0.2692,0.2692,0.2526,0.2082,0.1632,0.1115,0.0494,0.0055,-0.0383,-0.0823,-0.1149,-0.1319,-0.1441,0.0,-0.1988,-0.1625,-0.1166,-0.0445,0.0393,0.1683,0.2468,0.2861,0.3026,0.3418,0.3757,0.3418,0.417,0.5471,0.6585,0.7648,0.8731,1.0077,1.1027,1.1812,1.2483,1.2984,1.356,1.4519,1.474,1.4993,1.6008,1.6354,1.6552,1.7145,1.7423,1.7593,1.7656,1.7318,1.6986,1.6502,1.6351,1.6253,1.6124,1.6076,1.5968,1.572,1.5483,1.5116,1.4471,1.3461,1.2601,1.2045,1.08,0.9783,0.9273,0.8669,0.8125,0.7659,0.7477,0.7097,0.6579,0.6069,0.5593,0.5229,0.5268,0.5259,0.5206,0.5778,0.5904,-1.8788,-1.8476,-1.7852,-1.7041,-1.6879,-1.6599,-1.5083,-1.4669,-1.4264,-1.3087,-1.2051,-1.118,-1.0532,-0.9885,-0.9099,-0.7982,0.0,-0.5896,-0.4506,-0.3257,-0.2002,-0.0782,-0.0112,0.0448,0.1062,0.2012,0.2573,0.2573,0.2804,0.2747,0.2298,0.249,0.265,0.274,0.2399,0.2103,0.1853,0.1526,0.0919,0.0053,-0.0324,-0.081,-0.1388,-0.1675,-0.1576,-0.1198,0.0,0.0,-0.0559,-0.0279,0.0559,0.1683,0.23,0.2973,0.3477,0.325,0.3418,0.3698,0.3754,0.4313,0.5234,0.6431,0.7503,0.8694,1.0703,1.1796,1.2543,1.3444,1.3753,1.4052,1.4878,1.4878,1.4888,1.5909,1.6302,1.6767,1.7617,1.7999,1.8101,1.8066,1.7885,1.7445,1.6518,1.6388,1.6183,1.5661,1.5839,1.5839,1.5235,1.5175,1.4937,1.4291,1.3384,1.2603,1.1993,1.0967,1.0126,0.9457,0.8979,0.8438,0.7905,0.7802,0.7627,0.721,0.6705,0.6434,0.6425,0.6303,0.6114,0.6004,0.6774,0.6716,-1.9109,-1.9001,-1.8809,-1.7669,-1.7228,-1.6813,-1.5814,-1.5102,0.0,0.0,-1.2575,-1.1522,-1.1192,-1.0408,-0.9493,-0.8446,-0.7886,-0.698,-0.5268,-0.4398,-0.3449,0.0,-0.1177,-0.0446,0.0165,0.1208,0.0,0.0,0.0,0.2388,0.2576,0.263,0.2779,0.3024,0.2438,0.2147,0.214,0.1392,0.0749,0.032,-0.0632,-0.1265,-0.1651,-0.1894,-0.2269,-0.2621,0.0,0.0,-0.1426,-0.1135,-0.0328,0.0729,0.1626,0.23,0.2917,0.3365,0.3866,0.4369,0.4589,0.5091,0.5837,0.6915,0.8014,0.9202,1.0953,1.2184,1.3144,1.3564,1.4052,1.453,1.4997,1.5056,1.5235,1.6183,1.6453,1.6734,1.7709,1.7911,1.7722,1.7196,1.6911,1.6556,1.5877,1.5742,1.572,1.5601,1.5661,1.5661,1.5542,1.5542,1.5186,1.4291,1.3813,1.3264,1.2595,1.139,1.0543,1.0126,0.9316,0.8818,0.8696,0.8491,0.8178,0.7752,0.7046,0.6606,0.6589,0.64,0.6534,0.6894,0.7346,0.7618,-1.9671,-1.9194,-1.8661,-1.7952,-1.765,-1.7253,-1.5927,0.0,0.0,0.0,-1.2857,-1.2066,-1.1598,-1.0894,0.0,-0.8956,-0.8382,-0.7513,-0.5998,-0.507,0.0,-0.2764,-0.1729,-0.0891,0.0,0.0,0.0,0.0,0.0,0.2262,0.241,0.2559,0.2592,0.2406,0.2238,0.1996,0.1735,0.1146,0.0674,0.0415,-0.0259,-0.0727,-0.1036,-0.1349,-0.1617,-0.184,-0.1736,0.0,-0.0765,-0.0164,0.0608,0.1458,0.2522,0.3141,0.3477,0.4036,0.4369,0.4592,0.5035,0.5536,0.6214,0.7326,0.8106,0.9005,1.1118,1.2386,1.3159,1.3819,1.443,1.4976,1.5322,1.5258,1.5353,1.6478,1.6996,1.7398,1.7973,1.7839,1.7427,1.6986,1.656,1.6149,1.5682,1.5601,1.5601,1.5601,1.5601,1.5542,1.5353,1.5353,1.5056,1.4291,1.3753,1.3264,1.2724,1.1872,1.1027,1.0368,0.9518,0.9007,0.8767,0.8391,0.8296,0.8619,0.767,0.7478,0.8114,0.7507,0.7445,0.8013,0.8054,0.8084,-2.0258,-1.9631,-1.8894,-1.8326,-1.8128,-1.7653,-1.5959,-1.545,0.0,-1.3702,-1.2952,-1.2433,-1.2042,-1.1355,-1.0466,0.0,-0.8636,-0.7794,-0.6529,-0.5479,-0.4468,0.0,-0.231,0.0,-0.065,0.0,0.0,0.0,0.0,0.0,0.2121,0.2306,0.2227,0.1892,0.1993,0.1857,0.1394,0.1014,0.0653,0.0402,0.0051,-0.0204,-0.0502,-0.0716,-0.0774,-0.0775,-0.0737,0.0,0.0,0.0997,0.1565,0.2132,0.3253,0.3757,0.3868,0.4536,0.4815,0.4871,0.5596,0.6209,0.6877,0.8122,0.8594,0.9071,1.1297,1.2489,1.3294,1.4013,1.4731,1.53,1.5591,1.5525,1.5591,1.6726,1.7411,1.7853,1.807,1.7648,1.7134,1.6883,1.6365,1.5887,1.5661,1.5661,1.5661,1.5601,1.5661,1.5542,1.5175,1.5056,1.4759,1.4172,1.3684,1.3264,1.2964,1.2294,1.1511,1.0664,0.9943,0.9277,0.8857,0.8482,0.8596,0.9309,0.8383,0.8445,0.9525,0.853,0.8462,0.9086,0.8729,0.852,-2.0573,-2.0611,-2.0594,-1.9166,-1.8648,-1.7994,-1.6258,0.0,-1.4485,-1.3797,-1.2779,-1.218,-1.2785,-1.1634,-1.0402,-0.968,-0.8862,-0.7908,-0.6717,-0.5917,-0.5086,-0.4199,0.0,0.0,0.0,0.0,0.0,0.0,0.0,0.0,0.0,0.1778,0.1855,0.2086,0.2046,0.1874,0.157,0.1044,0.0689,0.0394,-0.0099,-0.0493,-0.0738,-0.0552,-0.0557,-0.0759,0.0,0.0,0.0,0.1088,0.1383,0.1458,0.2468,0.2973,0.3306,0.4201,0.5039,0.5819,0.6993,0.7604,0.8122,0.9812,1.0152,1.0168,1.1512,1.2793,1.3858,1.4016,1.4782,1.5596,1.5649,1.5829,1.6194,1.6844,1.7268,1.7527,1.7551,1.7067,1.6571,1.6512,1.6028,1.5661,1.5601,1.5839,1.5968,1.5661,1.5839,1.5839,1.5175,1.4828,1.4411,1.3813,1.3933,1.3992,1.3624,1.2724,1.1993,1.1692,1.0725,1.0012,0.9548,0.9532,0.9475,0.9315,0.9086,0.9156,0.9525,0.8968,0.9143,0.9971,0.9338,0.9368,-2.1609,-2.1259,-2.0643,-1.9487,-1.8699,-1.785,-1.6405,0.0,-1.4713,-1.4215,-1.3506,-1.2915,-1.2606,-1.1942,-1.1005,-0.9637,-0.9041,0.0,-0.7351,-0.6667,-0.5965,-0.5102,0.0,0.0,0.0,0.0,0.0,0.0,0.0,0.0,0.0,0.1674,0.1873,0.1788,0.1755,0.1631,0.1318,0.0969,0.082,0.082,0.0635,0.0687,0.0882,0.085,0.066,0.0462,0.0,0.0,0.0,0.1544,0.195,0.2466,0.3029,0.3194,0.3304,0.4979,0.5596,0.5819,0.7543,0.8318,0.8712,0.9772,1.0405,1.089,1.2016,1.2852,1.3542,1.3969,1.4849,1.5729,1.6,1.6472,1.6961,1.6961,1.7256,1.742,1.7256,1.6832,1.6478,1.6312,1.572,1.5353,1.5601,1.5542,1.5542,1.5601,1.5542,1.5413,1.5116,1.465,1.4291,1.4052,1.3933,1.3753,1.3444,1.2844,1.2234,1.1511,1.1065,1.0459,0.9734,0.9729,0.9902,1.0143,0.9783,0.9808,1.0234,0.9899,0.9855,1.0058,0.9918,0.9934,-2.179,-2.144,-2.0707,-1.9837,-1.8907,-1.7924,0.0,0.0,-1.4946,-1.4501,-1.4001,-1.3441,-1.2647,-1.2187,-1.1385,-0.9858,-0.9262,-0.8657,-0.7785,-0.7037,-0.6288,0.0,0.0,0.0,0.0,0.0,0.0,0.0,0.0,0.0,0.0,0.1516,0.1771,0.1591,0.1569,0.1499,0.1336,0.1042,0.0995,0.124,0.1354,0.166,0.2108,0.2,0.1936,0.1918,0.0,0.0,0.0,0.2001,0.2237,0.2616,0.3357,0.3418,0.3362,0.5314,0.5926,0.6038,0.7654,0.865,0.9265,0.9868,1.0714,1.164,1.2486,1.2974,1.3285,1.3733,1.4719,1.5761,1.6363,1.6978,1.7382,1.7303,1.7432,1.7432,1.7079,1.6726,1.6419,1.6146,1.5661,1.5294,1.5542,1.5472,1.5413,1.5601,1.5413,1.5235,1.5116,1.465,1.4232,1.4052,1.3873,1.3564,1.3204,1.2784,1.2234,1.1511,1.1271,1.0875,1.0263,1.0143,1.0412,1.0982,1.0484,1.0419,1.085,1.057,1.044,1.0335,1.0376,1.0396,-2.0616,-2.0994,-2.1287,-2.0362,-1.9413,-1.854,0.0,0.0,-1.5033,-1.4502,-1.3965,-1.3477,-1.3067,-1.231,-1.1403,-1.0422,-0.9414,-0.8497,-0.7877,-0.6776,0.0,0.0,0.0,0.0,0.0,0.0,0.0,0.0,0.0,0.0,0.0,0.1264,0.1315,0.148,0.1479,0.1622,0.1908,0.1355,0.1262,0.1621,0.1861,0.212,0.2404,0.265,0.3005,0.0,0.0,0.0,0.0,0.2545,0.2166,0.1478,0.3008,0.3418,0.3304,0.4812,0.5926,0.676,0.7382,0.8546,0.9894,1.0443,1.1397,1.246,1.3027,1.3194,1.32,1.3267,1.4298,1.5643,1.6777,1.7092,1.7223,1.7852,1.7726,1.7432,1.7079,1.6726,1.6419,1.6146,1.5839,1.5601,1.5601,1.5839,1.5968,1.5661,1.5601,1.5483,1.5116,1.4828,1.4351,1.3744,1.3693,1.3564,1.3204,1.2595,1.2113,1.182,1.1458,1.131,1.1277,1.0975,1.1127,1.1776,1.1049,1.085,1.1181,1.0811,1.0813,1.1172,1.0683,1.0821,-2.0678,-2.0398,-1.9865,-1.8984,-1.8115,-1.7246,-1.6574,0.0,-1.4853,-1.4894,-1.4504,-1.3925,-1.328,-1.2696,-1.186,-1.0472,-0.9618,0.0,0.0,0.0,0.0,0.0,0.0,0.0,0.0,0.0,0.0,0.0,0.0,0.0,0.0,0.0282,0.0658,0.1215,0.1542,0.1764,0.183,0.1682,0.174,0.2009,0.2321,0.2745,0.324,0.3701,0.0,0.0,0.0,0.0,0.0,0.2946,0.2832,0.3062,0.3191,0.344,0.3857,0.5135,0.6308,0.7426,0.7986,0.9203,1.0429,1.0366,1.099,1.1991,1.276,1.3527,1.4238,1.4877,1.5416,1.5885,1.6618,1.696,1.7117,1.7074,1.7288,1.7313,1.6553,1.6344,1.6124,1.5667,1.542,1.5306,1.5306,1.5553,1.5661,1.5294,1.5067,1.4828,1.453,1.3983,1.3564,1.3384,1.2964,1.2724,1.2844,1.2475,1.2113,1.182,1.1813,1.1619,1.1285,1.1268,1.1293,1.138,1.1446,1.1304,1.1008,1.1481,1.1615,1.1484,1.1272,1.1453,-2.0085,-1.9765,-1.9161,-1.8486,-1.7599,0.0,0.0,-1.5619,-1.495,-1.495,-1.4643,-1.4077,-1.324,-1.2752,-1.2014,-1.0738,-0.9991,0.0,0.0,0.0,0.0,0.0,0.0,0.0,0.0,0.0,0.0,0.0,0.0,0.0,0.0,0.0,0.0461,0.1098,0.1464,0.1818,0.2198,0.2018,0.2185,0.2714,0.2794,0.3286,0.4065,0.4314,0.0,0.0,0.0,0.0,0.0,0.3466,0.3397,0.3808,0.3645,0.3835,0.4337,0.5503,0.6618,0.7639,0.83,0.9478,1.0696,1.0468,1.1236,1.2401,1.3252,1.397,1.4724,1.5499,1.5842,1.6038,1.6745,1.7001,1.7059,1.697,1.7125,1.7055,1.616,1.5999,1.5838,1.5338,1.5207,1.522,1.5306,1.5505,1.5542,1.5294,1.4828,1.4411,1.4351,1.3803,1.3324,1.3204,1.2844,1.2535,1.2543,1.2242,1.2001,1.1828,1.1931,1.1923,1.1664,1.1569,1.1605,1.1776,1.1644,1.1526,1.155,1.1902,1.1938,1.1626,1.1643,1.175,0.0,-1.905,-1.8897,-1.844,-1.7685,-1.7003,-1.6755,-1.6076,0.0,-1.4838,-1.4516,-1.4019,-1.3081,-1.2492,-1.1891,-1.1129,0.0,0.0,0.0,0.0,0.0,0.0,0.0,0.0,0.0,0.0,0.0,0.0,0.0,0.0,0.0,0.0,0.0595,0.1077,0.1301,0.1882,0.2911,0.2516,0.2706,0.3528,0.3293,0.3746,0.4784,0.4587,0.0,0.0,0.0,0.0,0.0,0.4035,0.3903,0.3794,0.4193,0.4529,0.4854,0.5941,0.6832,0.763,0.82,0.9416,1.0696,1.0743,1.1946,1.3464,1.4219,1.4516,1.4719,1.5321,1.5658,1.6003,1.6876,1.7021,1.7047,1.73,1.7149,1.6692,1.5848,1.5676,1.555,1.5261,1.5156,1.5289,1.5515,1.558,1.5601,1.5601,1.4828,1.4351,1.457,1.4102,1.3624,1.3264,1.3204,1.2904,1.2234,1.1957,1.1792,1.1792,1.1955,1.2134,1.232,1.1834,1.193,1.27,1.1733,1.1688,1.2645,1.2234,1.191,1.1712,1.1782,1.185,-1.8258,0.0,-1.7181,-1.6773,-1.6592,-1.6468,0.0,-1.5777,-1.5542,-1.5209,-1.4701,-1.403,-1.3217,-1.2309,0.0,0.0,0.0,0.0,0.0,0.0,0.0,0.0,0.0,0.0,0.0,0.0,0.0,0.0,0.0,0.0,0.0,0.0,0.018,0.1077,0.1301,0.1882,0.2911,0.3188,0.3489,0.3718,0.3916,0.4286,0.4834,0.5135,0.0,0.0,0.0,0.0,0.4826,0.4774,0.4548,0.4357,0.4858,0.5426,0.5946,0.639,0.7475,0.8602,0.7877,0.8995,1.0798,1.1455,1.2436,1.3379,1.3756,1.4072,1.4407,1.4934,1.5033,1.5135,1.5991,1.5987,1.587,1.6124,1.6287,1.6195,1.5534,1.5432,1.5377,1.5076,1.5017,1.5045,1.5396,1.554,1.5601,1.5601,1.5175,1.4759,1.4351,1.4172,1.3873,1.3264,1.3204,1.2904,1.2234,1.2073,1.1971,1.1971,1.2142,1.232,1.2499,1.2089,1.193,1.2041,1.1752,1.1967,1.2756,1.2333,1.2359,1.2663,1.2234,1.2216,-1.734,-1.6746,-1.6112,-1.5802,-1.5761,-1.5635,-1.512,-1.5168,-1.5224,-1.4819,-1.4234,-1.3604,-1.3081,-1.2222,0.0,0.0,0.0,0.0,0.0,0.0,0.0,0.0,0.0,0.0,0.0,0.0,0.0,0.0,0.0,0.0,0.0,0.0,0.0179,0.1077,0.1436,0.2206,0.3451,0.3539,0.3849,0.4394,0.4193,0.4404,0.4989,0.5286,0.5468,0.0,0.0,0.0,0.512,0.5577,0.5591,0.539,0.5742,0.6292,0.687,0.7021,0.7784,0.8774,0.836,0.9403,1.1072,1.2055,1.2827,1.3369,1.364,1.4093,1.4669,1.5267,1.5701,1.6022,1.6342,1.6434,1.6346,1.6046,1.5978,1.5807,1.5109,1.4953,1.4921,1.4789,1.4953,1.515,1.527,1.5598,1.5779,1.5601,1.5067,1.459,1.4232,1.3933,1.3624,1.3264,1.3084,1.294,1.2786,1.2361,1.2117,1.2036,1.228,1.2467,1.262,1.2126,1.1914,1.1881,1.227,1.2651,1.2943,1.2716,1.2634,1.2714,1.2289,1.2251,-1.6541,-1.5934,-1.5493,-1.5303,-1.5123,-1.4819,-1.432,-1.4479,-1.462,-1.4091,-1.3432,-1.2858,-1.2722,-1.1938,0.0,0.0,0.0,0.0,0.0,0.0,0.0,0.0,0.0,0.0,0.0,0.0,0.0,0.0,0.0,0.0,0.0,0.0,0.0,0.1166,0.1664,0.2638,0.4173,0.3761,0.4018,0.5045,0.4373,0.4464,0.519,0.524,0.534,0.0,0.0,0.0,0.5194,0.6195,0.6441,0.6236,0.6492,0.7004,0.7533,0.7617,0.8046,0.8611,0.9112,1.0023,1.1126,1.2391,1.2989,1.3315,1.3586,1.4342,1.5187,1.5638,1.6534,1.7248,1.6975,1.7053,1.7017,1.6229,1.5773,1.5389,1.4689,1.4512,1.4589,1.4589,1.5008,1.5352,1.5272,1.5686,1.5898,1.5661,1.4948,1.4351,1.4232,1.3803,1.3444,1.3264,1.3084,1.3045,1.3373,1.2824,1.2373,1.2117,1.249,1.2669,1.2605,1.2215,1.197,1.2075,1.2893,1.3213,1.3083,1.3058,1.2868,1.2531,1.2324,1.2258,-1.618,-1.5624,-1.5153,-1.508,-1.4959,-1.4697,-1.4316,-1.4109,-1.3974,-1.3571,-1.2698,-1.2042,-1.2164,-1.0776,-0.9574,0.0,0.0,0.0,0.0,0.0,0.0,0.0,0.0,0.0,0.0,0.0,0.0,0.0,0.0,0.0,0.0,0.0,0.0,0.166,0.219,0.3158,0.4596,0.4265,0.4315,0.4757,0.4682,0.4872,0.519,0.5436,0.5436,0.0,0.0,0.5851,0.4935,0.6007,0.6163,0.5761,0.6469,0.7121,0.7585,0.7776,0.8273,0.8902,0.9512,0.9849,1.0257,1.1673,1.25,1.3044,1.3532,1.4451,1.5297,1.5187,1.5612,1.6066,1.601,1.5681,1.5355,1.5244,1.4944,1.4689,1.4546,1.4697,1.4826,1.4826,1.5031,1.5319,1.5583,1.5675,1.5661,1.5601,1.5483,1.5126,1.4291,1.458,1.452,1.3684,1.3813,1.3718,1.3128,1.3127,1.2978,1.2539,1.3011,1.3128,1.2791,1.2704,1.2611,1.2487,1.2597,1.2772,1.3083,1.3058,1.3,1.3074,1.2853,1.2844,-1.5814,-1.5138,-1.4637,-1.4439,-1.4419,-1.431,-1.3911,-1.3872,-1.3763,-1.3022,-1.2335,-1.1739,0.0,0.0,-0.9548,-0.9018,0.0,0.0,0.0,0.0,0.0,0.0,0.0,0.0,0.0,0.0,0.0,0.0,0.0,0.0,0.0,0.0,0.0,0.0,0.2621,0.3284,0.4305,0.4398,0.4785,0.5421,0.5118,0.5135,0.5436,0.5687,0.5741,0.5641,0.0,0.6137,0.5737,0.6337,0.6525,0.6473,0.7021,0.7434,0.7819,0.8271,0.8584,0.8962,0.9953,1.0202,1.0312,1.1728,1.2382,1.2772,1.3478,1.4287,1.4977,1.5187,1.5867,1.6494,1.6353,1.5972,1.5716,1.5689,1.5132,1.456,1.456,1.4538,1.4514,1.4514,1.4974,1.5224,1.5052,1.5354,1.5483,1.5126,1.4948,1.4709,1.4232,1.4282,1.4162,1.3753,1.3797,1.3704,1.3465,1.3285,1.3199,1.3161,1.3195,1.3045,1.2712,1.2958,1.2917,1.2422,1.2882,1.331,1.3722,1.3313,1.3222,1.3386,1.2865,1.2741,-1.5236,-1.4632,-1.4141,-1.3613,-1.3584,-1.3613,-1.3402,-1.3336,-1.3117,-1.2345,-1.1744,-1.1186,0.0,-1.0179,0.0,0.0,0.0,0.0,0.0,0.0,0.0,0.0,0.0,0.0,0.0,0.0,0.0,0.0,0.0,0.0,0.0,0.0,0.0,0.0,0.3155,0.355,0.4163,0.4524,0.5111,0.5792,0.5441,0.5386,0.5586,0.5892,0.5942,0.5942,0.6237,0.6387,0.6337,0.6592,0.6849,0.7026,0.7234,0.7478,0.7763,0.8384,0.86,0.8784,0.9875,1.0272,1.0531,1.1782,1.2273,1.2545,1.3315,1.3983,1.4559,1.4834,1.5849,1.6728,1.6488,1.6251,1.6058,1.5993,1.5306,1.4622,1.4678,1.4537,1.4331,1.4223,1.4765,1.5091,1.4463,1.4855,1.5126,1.459,1.4351,1.4172,1.4112,1.3873,1.3693,1.3693,1.3578,1.3553,1.3726,1.3294,1.3242,1.3747,1.3359,1.3089,1.2819,1.317,1.3058,1.2328,1.3052,1.3571,1.3889,1.354,1.3409,1.3491,1.3125,1.2888,-1.441,-1.4146,-1.3889,-1.2634,-1.2373,-1.2516,-1.2845,-1.2103,-1.135,-1.1542,-1.0562,-0.9775,-1.0089,-0.9308,0.0,0.0,0.0,0.0,0.0,0.0,0.0,0.0,0.0,0.0,0.0,0.0,0.0,0.0,0.0,0.0,0.0,0.0,0.0,0.0,0.0,0.4267,0.4647,0.4732,0.4931,0.524,0.5486,0.5586,0.5586,0.5892,0.5842,0.5636,0.6187,0.6237,0.6042,0.6337,0.6592,0.6803,0.6592,0.6766,0.7192,0.7506,0.7889,0.8393,0.8777,0.9526,1.0476,1.1345,1.2001,1.2491,1.2827,1.3542,1.4137,1.3606,1.4494,1.5587,1.5516,1.5484,1.5407,1.5154,1.4843,1.4667,1.4943,1.4955,1.4801,1.4238,1.4494,1.4761,1.4344,1.4311,1.4291,1.4232,1.4232,1.4112,1.3813,1.3693,1.3693,1.3693,1.3578,1.3545,1.3614,1.3101,1.3103,1.3806,1.3557,1.3352,1.3352,1.3326,1.3074,1.2499,1.2727,1.2899,1.3079,1.3606,1.3701,1.3491,1.4053,1.4053,-1.4591,-1.3896,-1.3187,-1.2389,-1.1891,-1.1801,-1.2644,-1.2093,-1.1363,-1.1105,-1.0397,-0.9583,-0.8751,0.0,0.0,0.0,0.0,0.0,0.0,0.0,0.0,0.0,0.0,0.0,0.0,0.0,0.0,0.0,0.0,0.0,0.0,0.0,0.0,0.0,0.0,0.4579,0.4618,0.5196,0.5443,0.5398,0.5359,0.5574,0.5991,0.6173,0.6329,0.65,0.6575,0.6692,0.6742,0.6342,0.6492,0.7048,0.7282,0.7549,0.7846,0.8073,0.8375,0.8722,0.896,0.962,1.0421,1.1072,1.1564,1.201,1.2718,1.3261,1.364,1.3586,1.4126,1.4829,1.5295,1.5583,1.5783,1.6002,1.5678,1.5309,1.5253,1.5132,1.4812,1.4203,1.4354,1.45,1.4344,1.4262,1.4172,1.4172,1.3873,1.3504,1.3384,1.3204,1.3144,1.3384,1.3373,1.3527,1.391,1.3626,1.3562,1.406,1.364,1.3348,1.3245,1.3271,1.3034,1.2522,1.2775,1.3084,1.3371,1.3565,1.3582,1.3491,1.3815,1.3898,-1.4411,-1.3463,-1.2607,-1.2119,-1.1376,-1.0985,-1.1992,-1.1681,-1.1004,-1.0627,-0.9824,-0.8734,-0.7311,0.0,0.0,0.0,0.0,0.0,0.0,0.0,0.0,0.0,0.0,0.0,0.0,0.0,0.0,0.0,0.0,0.0,0.0,0.0,0.0,0.0,0.0,0.4806,0.4614,0.5301,0.5547,0.5389,0.5458,0.573,0.6256,0.6425,0.6637,0.6816,0.6782,0.6892,0.7042,0.6392,0.6437,0.6998,0.7288,0.7595,0.7802,0.7858,0.8131,0.8588,0.8761,0.9312,1.0101,1.0808,1.1259,1.1639,1.2297,1.2886,1.3305,1.3234,1.3685,1.431,1.4865,1.5295,1.5751,1.6298,1.6121,1.5738,1.5455,1.5188,1.4724,1.3889,1.4004,1.4147,1.3828,1.3799,1.3873,1.3873,1.3504,1.3264,1.3324,1.3138,1.3047,1.3294,1.3358,1.3521,1.3918,1.367,1.3637,1.3947,1.3628,1.3461,1.3349,1.3389,1.3111,1.2596,1.3054,1.3278,1.3225,1.358,1.374,1.3718,1.3915,1.4076,-1.3681,-1.2797,-1.2177,-1.1721,-1.0743,-1.0103,-1.0816,-1.0511,-1.0069,-0.9995,-0.8562,-0.6943,-0.5901,-0.6025,0.0,0.0,0.0,0.0,0.0,0.0,0.0,0.0,0.0,0.0,0.0,0.0,0.0,0.0,0.0,0.0,0.0,0.0,0.0,0.0,0.0,0.0,0.4704,0.4948,0.5143,0.5186,0.5741,0.6142,0.6387,0.6692,0.6642,0.6437,0.6692,0.6792,0.6792,0.6537,0.6387,0.6387,0.6387,0.6592,0.6798,0.6492,0.7068,0.7904,0.7904,0.8512,0.9459,1.0576,1.1069,1.1345,1.1611,1.2446,1.3112,1.2307,1.3143,1.4169,1.4169,1.4614,1.5132,1.5659,1.5772,1.5727,1.5456,1.5211,1.4581,1.3202,1.3456,1.364,1.2774,1.294,1.3204,1.3204,1.3204,1.3324,1.3633,1.3569,1.3545,1.3623,1.3602,1.3552,1.3424,1.3203,1.3181,1.3437,1.3547,1.3725,1.3896,1.3713,1.3359,1.2832,1.3521,1.3458,1.2495,1.3761,1.4306,1.4104,1.4482,1.4806,-1.3157,-1.2489,-1.1702,-1.0881,-1.0503,-1.0236,-0.9833,-0.9702,-0.9434,-0.8623,-0.7532,-0.6529,-0.5788,-0.5521,0.0,0.0,0.0,0.0,0.0,0.0,0.0,0.0,0.0,0.0,0.0,0.0,0.0,0.0,0.0,0.0,0.0,0.0,0.0,0.0,0.0,0.0,0.4147,0.5063,0.558,0.561,0.6262,0.6536,0.6562,0.6732,0.6894,0.7122,0.7077,0.7092,0.7092,0.6986,0.6844,0.6669,0.7026,0.7129,0.7148,0.7565,0.7872,0.8092,0.8603,0.9139,0.9774,1.0363,1.0909,1.1371,1.1765,1.2561,1.3197,1.2803,1.3264,1.3802,1.364,1.4134,1.4823,1.5387,1.5795,1.5852,1.4998,1.4886,1.454,1.3367,1.3259,1.3446,1.3519,1.3449,1.3464,1.3844,1.3324,1.2897,1.2917,1.3049,1.3172,1.3229,1.3667,1.3917,1.3789,1.3934,1.4105,1.4148,1.4223,1.3989,1.3468,1.3451,1.3362,1.3367,1.3362,1.3445,1.3466,1.414,1.4478,1.4557,1.4754,1.5072,-1.294,-1.2304,-1.1439,-1.0838,-1.0369,-0.9827,-0.9007,-0.8817,-0.859,-0.7716,-0.6867,-0.6129,-0.563,-0.5228,0.0,0.0,0.0,0.0,0.0,0.0,0.0,0.0,0.0,0.0,0.0,0.0,0.0,0.0,0.0,0.0,0.0,0.0,0.0,0.0,0.0,0.0,0.437,0.5185,0.5696,0.5886,0.6619,0.6933,0.685,0.6927,0.7004,0.7127,0.6842,0.6819,0.686,0.6856,0.6761,0.6581,0.6983,0.708,0.7043,0.7414,0.7718,0.8001,0.8552,0.9123,0.9646,1.0375,1.078,1.1089,1.1505,1.2247,1.2949,1.2593,1.3012,1.3532,1.3478,1.3744,1.4252,1.49,1.5456,1.5599,1.4874,1.4689,1.4386,1.3473,1.3389,1.3469,1.3509,1.3389,1.3373,1.3555,1.3084,1.276,1.2845,1.3004,1.325,1.3518,1.3696,1.3827,1.384,1.3806,1.3871,1.4027,1.3894,1.3793,1.3642,1.3858,1.3841,1.3371,1.3823,1.3909,1.3698,1.4358,1.4673,1.4708,1.5118,1.5362,-1.2844,-1.2056,-1.1316,-1.1202,-1.0182,-0.9071,-0.8308,-0.7893,-0.754,-0.7143,0.0,-0.5768,-0.5442,0.0,0.0,0.0,0.0,0.0,0.0,0.0,0.0,0.0,0.0,0.0,0.0,0.0,0.0,0.0,0.0,0.0,0.0,0.0,0.0,0.0,0.0,0.0,0.5019,0.5329,0.5679,0.0,0.6775,0.7179,0.7167,0.7185,0.7026,0.6712,0.6345,0.6261,0.6354,0.6418,0.6393,0.6311,0.6494,0.6646,0.668,0.652,0.6918,0.7616,0.8082,0.8592,0.9237,1.0399,1.0714,1.0613,1.0984,1.1754,1.248,1.2106,1.2654,1.3349,1.364,1.3532,1.3583,1.4295,1.4791,1.5049,1.4845,1.4458,1.4099,1.3565,1.3615,1.3519,1.303,1.3058,1.3066,1.2775,1.2733,1.2821,1.3188,1.325,1.3477,1.4095,1.375,1.3535,1.3646,1.3219,1.3056,1.3348,1.3083,1.3267,1.4027,1.4629,1.4424,1.3197,1.4529,1.4702,1.3603,1.4563,1.5018,1.4884,1.5554,1.5582,-1.1704,-1.1385,0.0,-1.0264,-0.9139,-0.806,-0.7731,-0.7136,-0.6745,-0.684,-0.6278,-0.5692,0.0,0.0,0.0,0.0,0.0,0.0,0.0,0.0,0.0,0.0,0.0,0.0,0.0,0.0,0.0,0.0,0.0,0.0,0.0,0.0,0.0,0.0,0.0,0.4378,0.4305,0.5115,0.5601,0.0,0.6547,0.684,0.6795,0.7093,0.7024,0.6796,0.6815,0.6725,0.664,0.6703,0.6471,0.6166,0.6381,0.6526,0.6729,0.6942,0.7155,0.7329,0.7802,0.8201,0.8649,0.9711,1.0168,1.0421,1.1274,1.1773,1.2167,1.2608,1.3077,1.3412,1.3652,1.3867,1.3931,1.3648,1.3975,1.4274,1.3943,1.3778,1.3575,1.325,1.2983,1.2952,1.3245,1.3125,1.2913,1.2757,1.2856,1.2917,1.2892,1.3054,1.3251,1.3532,1.3851,1.3856,1.35,1.375,1.3706,1.335,1.3571,1.3403,1.278,1.3556,1.4195,1.4803,1.481,1.506,1.5548,1.5235,1.548,1.6362,1.5904,1.5624,-1.1341,-1.093,0.0,-0.9488,0.0,-0.7672,-0.7092,-0.6605,-0.6257,-0.6257,-0.5901,0.0,0.0,0.0,0.0,0.0,0.0,0.0,0.0,0.0,0.0,0.0,0.0,0.0,0.0,0.0,0.0,0.0,0.0,0.0,0.0,0.0,0.0,0.0,0.415,0.4399,0.4626,0.5116,0.5532,0.5912,0.6382,0.6525,0.6311,0.6706,0.6657,0.6268,0.6325,0.6368,0.6314,0.6513,0.6438,0.625,0.6665,0.6826,0.6858,0.7202,0.7459,0.7727,0.7975,0.8457,0.9019,0.976,1.0098,1.0348,1.1009,1.1447,1.1913,1.2645,1.2943,1.3191,1.3954,1.3964,1.3704,1.3532,1.3696,1.3805,1.3694,1.3675,1.3673,1.35,1.3413,1.3342,1.3336,1.3058,1.2824,1.2838,1.2952,1.2995,1.2957,1.302,1.3189,1.3535,1.3569,1.3553,1.3626,1.3587,1.351,1.3483,1.3435,1.3527,1.3699,1.3792,1.4133,1.4676,1.5303,1.5783,1.6221,1.5878,1.6107,1.6806,1.6445,1.6156,-1.1097,-1.0461,-0.9418,-0.8781,-0.8092,0.0,-0.6473,-0.6124,-0.5902,-0.568,0.0,0.0,0.0,0.0,0.0,0.0,0.0,0.0,0.0,0.0,0.0,0.0,0.0,0.0,0.0,0.0,0.0,0.0,0.0,0.0,0.0,0.0,0.3937,0.445,0.4387,0.4615,0.5114,0.5218,0.5454,0.5837,0.603,0.6038,0.582,0.6207,0.6153,0.57,0.5791,0.5879,0.599,0.629,0.6403,0.6419,0.6982,0.7184,0.7138,0.7189,0.7579,0.8021,0.7959,0.8521,0.9314,0.9776,1.0044,1.0252,1.0659,1.108,1.1601,1.2506,1.2675,1.2833,1.4105,1.3856,1.3315,1.3532,1.3586,1.3639,1.3694,1.3735,1.3849,1.3888,1.4015,1.3873,1.3204,1.2991,1.295,1.2996,1.3137,1.3171,1.3101,1.3113,1.3248,1.3486,1.3153,1.3144,1.3823,1.3332,1.3159,1.3788,1.3475,1.379,1.4992,1.4594,1.4382,1.4346,1.5647,1.6273,1.6221,1.6273,1.6518,1.6861,1.6843,1.6563,-1.0196,0.0,-0.8533,0.0,-0.7254,-0.6428,0.0,0.0,-0.5463,0.0,0.0,0.0,0.0,0.0,0.0,0.0,0.0,0.0,0.0,0.0,0.0,0.0,0.0,0.0,0.0,0.0,0.0,0.0,0.0,0.0,0.0,0.4059,0.4154,0.3807,0.4558,0.489,0.4765,0.521,0.5363,0.5127,0.5174,0.5312,0.5586,0.5858,0.5893,0.5795,0.6139,0.6264,0.6276,0.6481,0.6591,0.6667,0.6789,0.7152,0.7449,0.6767,0.6857,0.7274,0.6736,0.726,0.8251,0.8635,0.9117,0.9809,1.0736,1.0829,1.0924,1.2577,1.272,1.2581,1.358,1.3586,1.3261,1.3044,1.3367,1.3694,1.3639,1.3559,1.3624,1.38,1.3779,1.3564,1.2904,1.335,1.3671,1.3075,1.3564,1.3733,1.3144,1.3232,1.3284,1.2931,1.2986,1.3275,1.3831,1.3653,1.382,1.458,1.4432,1.4446,1.471,1.5134,1.5385,1.5437,1.5642,1.5863,1.6195,1.5863,1.6179,1.7071,1.6232,1.619,-0.9284,-0.8912,-0.8521,0.0,-0.7452,-0.6523,-0.6163,0.0,0.0,0.0,0.0,0.0,0.0,0.0,0.0,0.0,0.0,0.0,0.0,0.0,0.0,0.0,0.0,0.0,0.0,0.0,0.0,0.0,0.0,0.0,0.365,0.4185,0.4442,0.4256,0.4667,0.4925,0.4976,0.5228,0.5353,0.5352,0.5151,0.5023,0.5015,0.5398,0.5691,0.5888,0.604,0.6091,0.6087,0.6322,0.6424,0.6409,0.6911,0.7183,0.7295,0.7163,0.7301,0.7528,0.7402,0.7705,0.8266,0.8753,0.9283,0.9938,1.0685,1.087,1.1157,1.2727,1.2751,1.2511,1.3519,1.3547,1.3207,1.2935,1.3059,1.3237,1.3237,1.3516,1.3814,1.3858,1.3696,1.356,1.3438,1.3665,1.3803,1.3492,1.3988,1.4052,1.3208,1.3444,1.3424,1.2832,1.2994,1.3233,1.3557,1.3608,1.382,1.4289,1.4856,1.5108,1.491,1.5569,1.58,1.5607,1.605,1.628,1.6212,1.6617,1.687,1.7116,1.6625,1.658,0.0,0.0,-0.8055,-0.8002,-0.7288,-0.6486,0.0,0.0,0.0,0.0,0.0,0.0,0.0,0.0,0.0,0.0,0.0,0.0,0.0,0.0,0.0,0.0,0.0,0.0,0.0,0.0,0.0,0.0,0.0,0.0,0.3743,0.4192,0.4458,0.4574,0.4716,0.486,0.4955,0.4955,0.5079,0.5223,0.5005,0.4791,0.4588,0.5036,0.547,0.5866,0.593,0.5947,0.5947,0.6196,0.6287,0.6364,0.6892,0.704,0.7025,0.7278,0.7423,0.7583,0.7867,0.8184,0.8553,0.9029,0.9592,1.0167,1.0659,1.1002,1.1482,1.2741,1.2638,1.2412,1.3362,1.3275,1.2965,1.2857,1.2881,1.2979,1.2973,1.347,1.3891,1.3869,1.3712,1.3634,1.3812,1.3927,1.3931,1.3806,1.4216,1.4235,1.3345,1.3566,1.349,1.2898,1.2994,1.3241,1.3489,1.3539,1.3804,1.4382,1.5168,1.5588,1.562,1.5966,1.5989,1.5744,1.6271,1.628,1.5914,1.673,1.7089,1.6886,1.6642,1.6753,0.0,-0.6985,0.0,-0.6288,-0.6139,0.0,0.0,0.0,0.0,0.0,0.0,0.0,0.0,0.0,0.0,0.0,0.0,0.0,0.0,0.0,0.0,0.0,0.0,0.0,0.0,0.0,0.0,0.0,0.0,0.0,0.4012,0.4,0.4047,0.4245,0.4839,0.4893,0.4369,0.4369,0.429,0.4177,0.429,0.4422,0.4497,0.5001,0.537,0.5711,0.5984,0.6078,0.6114,0.6236,0.6531,0.6842,0.6538,0.6559,0.6703,0.6534,0.6571,0.6825,0.7295,0.8092,0.8972,0.8979,0.9632,1.0413,1.0708,1.1002,1.1384,1.2443,1.2314,1.2092,1.2864,1.2621,1.2206,1.2472,1.2881,1.3177,1.3107,1.3336,1.3538,1.3718,1.3693,1.3648,1.3539,1.3927,1.4182,1.3869,1.4134,1.4196,1.362,1.3509,1.3301,1.284,1.2994,1.3308,1.3839,1.3678,1.4215,1.5732,1.5551,1.5875,1.6917,1.6289,1.601,1.6203,1.582,1.5429,1.5045,1.5514,1.5862,1.6202,1.5569,1.6023,0.0,0.0,0.0,-0.6425,-0.6234,-0.5972,0.0,0.0,0.0,0.0,0.0,0.0,0.0,0.0,0.0,0.0,0.0,0.0,0.0,0.0,0.0,0.0,0.0,0.0,0.0,0.0,0.0,0.0,0.0,0.0,0.2917,0.3454,0.3588,0.33,0.4029,0.4422,0.4346,0.4342,0.4609,0.5081,0.4609,0.4532,0.4901,0.5115,0.5264,0.5326,0.5498,0.5712,0.5964,0.588,0.5979,0.6133,0.6303,0.6319,0.6367,0.6719,0.6821,0.6943,0.8092,0.866,0.8934,0.9453,1.0204,1.0953,1.1051,1.1345,1.1795,1.2366,1.2441,1.2374,1.2314,1.2341,1.2382,1.2264,1.2459,1.2699,1.2757,1.2831,1.3039,1.3438,1.3532,1.3652,1.398,1.401,1.3869,1.3618,1.3724,1.3629,1.2872,1.3116,1.3418,1.3394,1.33,1.3481,1.4077,1.4333,1.4707,1.5274,1.6176,1.6717,1.6876,1.6908,1.6675,1.623,1.6181,1.6001,1.5613,1.6355,1.6783,1.6799,1.6699,1.6756,-0.5942,-0.565,-0.5477,0.0,0.0,-0.5651,0.0,0.0,0.0,0.0,0.0,0.0,0.0,0.0,0.0,0.0,0.0,0.0,0.0,0.0,0.0,0.0,0.0,0.0,0.0,0.0,0.0,0.0,0.0,0.0,0.2376,0.2748,0.2882,0.282,0.3196,0.3601,0.3997,0.41,0.438,0.4892,0.456,0.4518,0.4779,0.4892,0.4929,0.501,0.5065,0.5402,0.5878,0.5665,0.5684,0.5801,0.615,0.6105,0.5952,0.67,0.691,0.6988,0.8482,0.9035,0.9226,1.0015,1.0708,1.1198,1.1296,1.1639,1.2078,1.2322,1.2426,1.2391,1.2153,1.2273,1.2388,1.2139,1.2241,1.2421,1.2495,1.2614,1.2857,1.3252,1.3352,1.3539,1.3989,1.3823,1.3528,1.3278,1.3425,1.3281,1.259,1.288,1.3302,1.3486,1.3467,1.3648,1.4318,1.4638,1.5035,1.5523,1.66,1.7165,1.6981,1.7227,1.7158,1.6481,1.6363,1.6398,1.6529,1.6827,1.6951,1.6823,1.6871,1.6721,0.0,0.0,0.0,0.0,0.0,0.0,0.0,0.0,0.0,0.0,0.0,0.0,0.0,0.0,0.0,0.0,0.0,0.0,0.0,0.0,0.0,0.0,0.0,0.0,0.0,0.0,0.0,0.0,0.0,0.1232,0.2469,0.1905,0.1941,0.2773,0.2433,0.2546,0.3191,0.3436,0.3549,0.3534,0.4111,0.4324,0.4219,0.4257,0.4482,0.4771,0.4643,0.5049,0.5843,0.5676,0.5721,0.5899,0.6179,0.5924,0.5502,0.6485,0.6796,0.6929,0.8327,0.9202,0.9853,1.0587,1.0993,1.1287,1.1531,1.1775,1.2068,1.2322,1.2224,1.2078,1.2332,1.2264,1.2171,1.2087,1.2231,1.2384,1.2321,1.2692,1.3067,1.3182,1.3204,1.3268,1.3478,1.335,1.3225,1.3049,1.3187,1.3223,1.286,1.2815,1.2905,1.3151,1.3331,1.3786,1.4745,1.4656,1.5186,1.6603,1.676,1.6981,1.737,1.7396,1.7339,1.7125,1.6355,1.6538,1.7718,1.6721,1.625,1.6436,1.6023,1.5878,-0.4356,0.0,0.0,0.0,0.0,0.0,0.0,0.0,0.0,0.0,0.0,0.0,0.0,0.0,0.0,0.0,0.0,0.0,0.0,0.0,0.0,0.0,0.0,0.0,0.0,0.0,0.0,0.0,0.0628,0.0726,0.0699,0.042,0.0861,0.2165,0.1575,0.1661,0.2602,0.2825,0.3352,0.4171,0.3864,0.4051,0.4642,0.4235,0.41,0.4157,0.4256,0.4497,0.4831,0.5194,0.54,0.5555,0.5773,0.5752,0.5719,0.6656,0.7238,0.7661,0.866,0.9579,1.0314,1.0521,1.1125,1.1796,1.17,1.1939,1.2305,1.2377,1.2467,1.2558,1.2381,1.1862,1.1536,1.1996,1.1968,1.1945,1.2238,1.2522,1.2742,1.2713,1.2994,1.3208,1.3171,1.3005,1.2847,1.2759,1.2829,1.291,1.2809,1.3251,1.3808,1.4408,1.4292,1.4664,1.5713,1.5999,1.6306,1.6888,1.7349,1.7706,1.8008,1.7791,1.7442,1.7108,1.7198,1.7244,1.7226,1.661,1.6606,1.7121,1.6295,1.5999,-0.3928,-0.3761,-0.3718,-0.3572,0.0,0.0,0.0,-0.4598,0.0,0.0,0.0,0.0,0.0,0.0,0.0,0.0,0.0,0.0,0.0,0.0,0.0,0.0,0.0,0.0,0.0,0.0,0.0,0.0,0.0135,0.0181,0.0,-0.0233,0.0238,0.1476,0.0946,0.0992,0.1724,0.2312,0.2889,0.3546,0.3762,0.4093,0.4433,0.41,0.3932,0.3892,0.4142,0.4316,0.4442,0.5078,0.5373,0.5468,0.5969,0.6071,0.6071,0.6924,0.7559,0.8168,0.887,0.9669,1.0368,1.0519,1.0952,1.1422,1.1515,1.1656,1.1885,1.2315,1.2442,1.2402,1.2093,1.1654,1.1323,1.1615,1.1801,1.1889,1.191,1.2172,1.2509,1.2624,1.283,1.3,1.3056,1.2682,1.243,1.2403,1.2574,1.2758,1.28,1.3315,1.3967,1.4683,1.4728,1.5165,1.6282,1.668,1.7033,1.749,1.802,1.8285,1.8144,1.8168,1.795,1.7385,1.7378,1.7235,1.6935,1.6863,1.6923,1.7108,1.6377,1.5966,-0.3556,-0.3218,-0.2969,-0.2885,0.0,0.0,-0.3844,-0.3835,0.0,0.0,0.0,0.0,0.0,0.0,0.0,0.0,0.0,0.0,0.0,0.0,0.0,0.0,0.0,0.0,0.0,0.0,-0.0359,-0.0134,-0.0403,-0.0407,-0.0046,-0.0329,-0.0143,0.0668,0.0469,0.0516,0.0813,0.1811,0.2337,0.235,0.3614,0.4078,0.388,0.3864,0.3819,0.3809,0.4164,0.4323,0.4417,0.5211,0.5449,0.5415,0.6368,0.6526,0.6322,0.7099,0.7784,0.8434,0.887,0.9528,1.0204,1.0454,1.0583,1.0721,1.1135,1.1181,1.1241,1.2104,1.2097,1.1883,1.1717,1.1558,1.135,1.1254,1.1572,1.1822,1.1416,1.1754,1.2289,1.2687,1.2744,1.2757,1.3024,1.2499,1.2122,1.2199,1.2449,1.2731,1.2817,1.3259,1.3776,1.4547,1.4864,1.5518,1.6725,1.6959,1.7428,1.8177,1.8592,1.852,1.8016,1.8521,1.8455,1.7736,1.7252,1.7016,1.6862,1.7191,1.7108,1.6689,1.6205,1.5966,-0.3238,-0.2971,-0.2935,-0.272,0.0,0.0,-0.3449,-0.3668,-0.3579,0.0,0.0,0.0,0.0,0.0,0.0,0.0,0.0,0.0,0.0,0.0,0.0,0.0,0.0,0.0,0.0,0.0,-0.0717,-0.0852,-0.1301,-0.1176,-0.037,-0.0882,-0.0797,0.0143,0.0095,0.0335,0.0879,0.1394,0.2034,0.2695,0.2919,0.3232,0.3635,0.367,0.3623,0.3597,0.4107,0.4257,0.4313,0.5147,0.5256,0.5018,0.5889,0.6013,0.5772,0.691,0.76,0.8045,0.8467,0.915,0.9899,1.0022,1.0419,1.096,1.105,1.1185,1.1403,1.1734,1.1616,1.1482,1.2004,1.1409,1.092,1.2029,1.1475,1.0794,1.1414,1.1463,1.1518,1.1897,1.2247,1.2489,1.2389,1.2509,1.2466,1.2242,1.2775,1.315,1.3178,1.3766,1.4497,1.5313,1.5419,1.5998,1.7368,1.7253,1.7464,1.8205,1.8211,1.8051,1.7731,1.82,1.827,1.7747,1.7456,1.7483,1.7755,1.7108,1.678,1.6689,1.6205,1.5966,0.0,0.0,0.0,-0.2128,0.0,0.0,0.0,-0.3364,-0.3525,0.0,0.0,0.0,0.0,0.0,0.0,0.0,0.0,0.0,0.0,0.0,0.0,0.0,0.0,0.0,0.0,0.0,-0.1391,-0.1749,-0.2153,-0.1936,-0.0956,-0.1196,-0.1064,-0.037,-0.0236,-0.0096,0.0097,0.092,0.1613,0.2141,0.2688,0.3086,0.3337,0.367,0.3695,0.3537,0.4111,0.4328,0.4305,0.5031,0.5178,0.5052,0.6005,0.6242,0.6229,0.7111,0.7762,0.8311,0.8566,0.9104,0.9703,0.9732,0.9979,1.0333,1.0597,1.0854,1.104,1.0886,1.0943,1.1124,1.1521,1.11,1.0771,1.1548,1.1212,1.0868,1.1353,1.1469,1.1518,1.1819,1.2107,1.2264,1.2192,1.2354,1.2388,1.2117,1.28,1.3267,1.3181,1.3982,1.4815,1.5526,1.5991,1.6758,1.7878,1.7888,1.7915,1.8262,1.8404,1.8365,1.8213,1.8542,1.8504,1.8191,1.7937,1.7917,1.8165,1.7342,1.7042,1.7026,1.646,1.6178,0.0,0.0,0.0,0.0,0.0,-0.2449,0.0,0.0,0.0,0.0,0.0,0.0,0.0,0.0,0.0,0.0,0.0,0.0,0.0,0.0,0.0,0.0,0.0,0.0,0.0,0.0,-0.2045,-0.2601,-0.2803,-0.2532,-0.1658,-0.1601,-0.1376,-0.0812,-0.0563,-0.0527,-0.0623,0.0489,0.1185,0.1531,0.2456,0.2954,0.306,0.3592,0.3738,0.3604,0.4143,0.4335,0.4343,0.496,0.5146,0.5219,0.6149,0.6546,0.675,0.7221,0.7898,0.8544,0.8647,0.9078,0.9544,0.9569,0.9646,0.982,1.0125,1.0367,1.0452,1.0038,1.0306,1.0754,1.0886,1.0778,1.0663,1.0944,1.0934,1.0923,1.1286,1.1414,1.154,1.1916,1.1994,1.1992,1.2166,1.2234,1.2241,1.2188,1.2798,1.332,1.3363,1.4227,1.5078,1.5661,1.652,1.7307,1.8104,1.8228,1.8277,1.8215,1.8587,1.8645,1.857,1.8808,1.8894,1.8793,1.8477,1.8338,1.8375,1.7687,1.7348,1.7312,1.671,1.6357,0.0,0.0,0.0,0.0,-0.241,0.0,0.0,0.0,0.0,0.0,0.0,0.0,0.0,0.0,0.0,0.0,0.0,0.0,0.0,0.0,0.0,0.0,0.0,0.0,0.0,0.0,0.0,-0.3084,-0.3033,-0.2801,-0.2415,-0.2376,-0.1985,-0.106,-0.0815,-0.0587,-0.044,0.0199,0.0856,0.1611,0.1716,0.2169,0.2867,0.3073,0.3472,0.3967,0.4206,0.4365,0.4425,0.4985,0.5186,0.5222,0.5822,0.6138,0.6272,0.6932,0.7409,0.7867,0.8153,0.8717,0.9376,0.9524,0.9864,1.0212,1.0081,1.0014,0.9957,0.9723,0.9838,1.0146,1.0754,1.0428,1.025,1.1531,1.0793,1.0029,1.1072,1.0799,1.0663,1.1566,1.1614,1.1617,1.2149,1.2475,1.2725,1.2865,1.3118,1.3562,1.4261,1.4837,1.5529,1.6205,1.6747,1.7298,1.7958,1.7736,1.7694,1.8013,1.8101,1.8106,1.8054,1.8507,1.885,1.895,1.8532,1.8402,1.8575,1.7748,1.7231,1.7188,1.679,1.6552,0.0,0.0,0.0,0.0,0.0,0.0,-0.3097,0.0,-0.2513,0.0,0.0,0.0,0.0,0.0,0.0,0.0,0.0,0.0,0.0,0.0,0.0,0.0,0.0,0.0,0.0,0.0,0.0,0.0,0.0,-0.3493,-0.2825,-0.2897,-0.2604,-0.1836,-0.1258,-0.0937,-0.0798,0.0,0.0559,0.0924,0.1371,0.1767,0.2118,0.2896,0.3248,0.333,0.3947,0.4095,0.3984,0.4336,0.4688,0.4989,0.5236,0.5806,0.6555,0.6932,0.7395,0.7856,0.7959,0.8472,0.9087,0.9174,0.9209,0.9244,0.92,0.8865,0.8577,0.8932,0.9165,0.948,1.0146,1.013,1.0215,1.1112,1.0668,1.0287,1.1191,1.1272,1.1292,1.1694,1.2028,1.2173,1.2124,1.2585,1.289,1.2631,1.3411,1.4189,1.4592,1.529,1.6001,1.6658,1.7225,1.7733,1.8217,1.7892,1.7847,1.8172,1.8357,1.8386,1.8391,1.9001,1.9267,1.9334,1.9269,1.925,1.9211,1.8388,1.7837,1.7491,1.6959,1.6738,-0.4588,0.0,0.0,0.0,0.0,0.0,0.0,0.0,0.0,0.0,0.0,0.0,0.0,0.0,0.0,-0.1048,0.0,0.0,0.0,0.0,0.0,0.0,0.0,0.0,0.0,0.0,0.0,0.0,-0.3798,-0.376,-0.3164,-0.3291,-0.2995,-0.2114,-0.156,-0.1192,-0.1069,-0.0253,0.0205,0.0314,0.0873,0.1326,0.1639,0.2426,0.2832,0.2847,0.3519,0.371,0.3528,0.3883,0.4282,0.4684,0.4784,0.5508,0.6602,0.6832,0.7309,0.79,0.79,0.8221,0.8653,0.8653,0.8438,0.8147,0.8151,0.7818,0.7599,0.813,0.8528,0.8968,0.9563,0.9848,1.0135,1.0524,1.0476,1.0468,1.1162,1.1435,1.1698,1.2107,1.2459,1.2692,1.269,1.291,1.3098,1.3046,1.3916,1.4864,1.5395,1.5991,1.6606,1.7164,1.7697,1.812,1.829,1.8185,1.8225,1.8543,1.872,1.8777,1.8836,1.9294,1.9481,1.9513,1.9694,1.9723,1.9512,1.8967,1.8339,1.7822,1.7339,1.7012,0.0,0.0,0.0,-0.4409,0.0,0.0,0.0,0.0,-0.2627,0.0,0.0,0.0,0.0,-0.0976,-0.1109,-0.1108,-0.138,0.0,0.0,0.0,0.0,0.0,0.0,0.0,0.0,0.0,0.0,-0.3721,-0.3581,-0.3409,-0.3367,-0.3598,-0.3063,-0.1666,-0.1521,-0.1299,-0.0933,-0.0561,-0.0257,0.0,0.0052,0.0628,0.1699,0.1593,0.2041,0.2897,0.3047,0.3177,0.3229,0.3783,0.4185,0.4437,0.4684,0.5312,0.6036,0.6314,0.7027,0.79,0.79,0.7961,0.8029,0.8029,0.7659,0.7221,0.7091,0.7218,0.7389,0.7432,0.8025,0.8689,0.9095,0.9509,0.9839,1.0079,1.0087,1.0187,1.0853,1.0819,1.1138,1.2749,1.2673,1.2737,1.4198,1.3514,1.328,1.4615,1.4731,1.5291,1.6933,1.7183,1.736,1.7809,1.8142,1.8272,1.7935,1.8258,1.871,1.9224,1.9111,1.9111,1.9263,1.9131,1.9094,1.9297,1.9495,1.9456,1.9195,1.9204,1.8689,1.7822,1.7814,1.7551,0.0,0.0,-0.4959,-0.5013,0.0,0.0,0.0,0.0,0.0,0.0,0.0,0.0,0.0,-0.0957,-0.1133,-0.1213,-0.1445,-0.1693,0.0,0.0,0.0,0.0,0.0,0.0,0.0,0.0,0.0,-0.3632,-0.3976,-0.4049,0.0,-0.3957,-0.3573,-0.2494,-0.2063,-0.1536,-0.0913,-0.0568,-0.0362,-0.0271,0.0107,0.0481,0.0854,0.1402,0.1825,0.2162,0.2763,0.2966,0.2822,0.3262,0.3761,0.4205,0.4253,0.4871,0.5748,0.6031,0.6667,0.7408,0.7716,0.7636,0.7454,0.7767,0.7175,0.6482,0.7324,0.7037,0.6632,0.7642,0.8023,0.8284,0.8996,0.9555,0.9886,0.988,1.0078,1.0427,1.0905,1.1387,1.197,1.2758,1.3031,1.326,1.3873,1.381,1.4023,1.4935,1.5337,1.5979,1.7053,1.7193,1.7439,1.817,1.8503,1.8574,1.831,1.8727,1.9074,1.9272,1.9124,1.9192,1.9705,1.942,1.9367,1.9654,1.9942,1.9884,1.965,1.9397,1.9039,1.8759,1.8453,1.8083,-0.6019,-0.5737,0.0,-0.5124,-0.4143,0.0,-0.3212,0.0,0.0,0.0,0.0,0.0,0.0,0.0,-0.1327,-0.1318,-0.1635,-0.2039,0.0,-0.2795,0.0,0.0,0.0,0.0,0.0,0.0,-0.3653,-0.3751,-0.4196,-0.432,0.0,0.0,-0.3781,-0.2874,-0.2285,-0.1698,-0.1074,-0.0727,-0.0573,-0.0597,-0.0109,0.0163,0.0269,0.1046,0.1538,0.1719,0.2494,0.2808,0.2764,0.3178,0.3621,0.4088,0.4116,0.4745,0.5566,0.5763,0.6385,0.7136,0.7388,0.7243,0.6974,0.728,0.6701,0.6056,0.7014,0.6864,0.6509,0.7512,0.7935,0.832,0.8921,0.9639,1.0054,0.9755,1.0175,1.0706,1.0974,1.167,1.2405,1.3109,1.3552,1.3945,1.455,1.4679,1.4898,1.5453,1.5832,1.6409,1.74,1.7328,1.7507,1.832,1.878,1.9051,1.9084,1.9371,1.9614,1.9771,1.9673,1.9785,2.0334,1.9845,1.9696,2.003,2.0144,2.0076,1.9921,1.9572,1.9388,1.9186,1.9066,1.8822]}]]